[[{"header":{"parameterUnit":"m.s-1","parameterCategory":1,"la1":30.6,"la2":29.2853,"lo1":-89.7004,"lo2":-87.6739,"dy":0.0162,"dx":0.0183,"nx":112,"ny":82,"refTime":"2024-09-28T06:00:00:Z","depth":0,"parameterNumber":2,"parameterNumberName":"U-component_of_WINDS"},"data":[0.0,0.0,0.0,0.0,0.0,0.0,0.0,0.0,0.0,0.0,0.0,0.0,0.0,0.0,0.0,0.0,0.0,0.0,0.0,0.0,0.0,0.0,0.0,0.0,0.0,0.0,0.0,0.0,0.0,0.0,0.0,0.0,0.0,0.0,0.0,0.0,0.0,0.0,0.0,0.0,0.0,0.0,0.0,0.0,0.0,0.0,0.0,0.0,0.0,0.0,0.0,0.0,0.0,0.0,0.0,0.0,0.0,0.0,0.0,0.0,0.0,0.0,0.0,0.0,0.0,0.0,0.0,0.0,0.0,0.0,0.0,0.0,0.0,0.0,0.0,0.0,0.0,0.0,0.0,0.0,0.0,0.0,0.0,0.0,0.0,0.0,0.0,0.0,0.0,0.0,1.7,1.9726,2.2158,2.3086,2.1799,2.1695,2.0049,1.6188,0.0,0.0,0.0,0.0,0.0,0.0,0.0,0.0,0.0,0.0,0.0,0.0,0.0,0.0,0.0,0.0,0.0,0.0,0.0,0.0,0.0,0.0,0.0,0.0,0.0,0.0,0.0,0.0,0.0,0.0,0.0,0.0,0.0,0.0,0.0,0.0,0.0,0.0,0.0,0.0,0.0,0.0,0.0,0.0,0.0,0.0,0.0,0.0,0.0,0.0,0.0,0.0,0.0,0.0,0.0,0.0,0.0,0.0,0.0,0.0,0.0,0.0,0.0,0.0,0.0,0.0,0.0,0.0,0.0,0.0,0.0,0.0,0.0,0.0,0.0,0.0,0.0,0.0,0.0,0.0,0.0,0.0,0.0,0.0,0.0,0.0,0.0,0.0,0.0,0.0,0.0,0.0,0.0,0.0,0.0,0.0,0.0,0.0,0.0,0.0,0.0,0.0,0.0,0.0,1.7269,2.0991,2.2712,2.3086,2.1799,2.1695,2.0243,1.6771,0.0,0.0,0.0,0.0,0.0,0.0,0.0,0.0,0.0,0.0,0.0,0.0,0.0,0.0,0.0,0.0,0.0,0.0,0.0,0.0,0.0,0.0,0.0,0.0,0.0,0.0,0.0,0.0,0.0,0.0,0.0,0.0,0.0,0.0,0.0,0.0,0.0,0.0,0.0,0.0,0.0,0.0,0.0,0.0,0.0,0.0,0.0,0.0,0.0,0.0,0.0,0.0,0.0,0.0,0.0,0.0,0.0,0.0,0.0,0.0,0.0,0.0,0.0,0.0,0.0,0.0,0.0,0.0,0.0,0.0,0.0,0.0,0.0,0.0,0.0,0.0,0.0,0.0,0.0,0.0,0.0,0.0,0.0,0.0,0.0,0.0,0.0,0.0,0.0,0.0,0.0,0.0,0.0,0.0,0.0,0.0,0.0,0.0,0.0,0.0,0.0,0.0,0.0,1.7,1.8901,2.1425,2.2832,2.2986,2.1407,2.152,2.0013,1.6016,1.453,0.0,0.0,0.0,0.0,0.0,0.0,0.0,0.0,0.0,0.0,0.0,0.0,0.0,0.0,0.0,0.0,0.0,0.0,0.0,0.0,0.0,0.0,0.0,0.0,0.0,0.0,0.0,0.0,0.0,0.0,0.0,0.0,0.0,0.0,0.0,0.0,0.0,0.0,0.0,0.0,0.0,0.0,0.0,0.0,0.0,0.0,0.0,0.0,0.0,0.0,0.0,0.0,0.0,0.0,0.0,0.0,0.0,0.0,0.0,0.0,0.0,0.0,0.0,0.0,0.0,0.0,0.0,0.0,0.0,0.0,0.0,0.0,0.0,0.0,0.0,0.0,0.0,0.0,0.0,0.0,0.0,0.0,0.0,0.0,0.0,0.0,0.0,0.0,0.0,0.0,0.0,0.0,0.0,0.0,0.0,0.0,0.0,0.0,0.0,0.0,0.0,0.0,1.8957,2.0498,2.1365,2.2622,2.2721,2.1009,2.0868,1.9265,1.5442,1.395,0.0,0.0,0.0,0.0,0.0,0.0,0.0,0.0,0.0,0.0,0.0,0.0,0.0,0.0,0.0,0.0,0.0,0.0,0.0,0.0,0.0,0.0,0.0,0.0,0.0,0.0,0.0,0.0,0.0,0.0,0.0,0.0,0.0,0.0,0.0,0.0,0.0,0.0,0.0,0.0,0.0,0.0,0.0,0.0,0.0,0.0,0.0,0.0,0.0,0.0,0.0,0.0,0.0,0.0,0.0,0.0,0.0,0.0,0.0,0.0,0.0,0.0,0.0,0.0,0.0,0.0,0.0,0.0,0.0,0.0,0.0,0.0,0.0,0.0,0.0,0.0,0.0,0.0,0.0,0.0,0.0,0.0,0.0,0.0,0.0,0.0,0.0,0.0,0.0,0.0,0.0,0.0,0.0,0.0,0.0,0.0,0.0,0.0,0.0,0.0,0.0,0.0,1.9211,2.1365,2.0842,2.1964,2.2218,2.081,1.9325,1.7684,1.5875,1.3059,0.0,0.0,0.0,0.0,0.0,0.0,0.0,0.0,0.0,0.0,0.0,0.0,0.0,0.0,0.0,0.0,0.0,0.0,0.0,0.0,0.0,0.0,0.0,0.0,0.0,0.0,0.0,0.0,0.0,0.0,0.0,0.0,0.0,0.0,0.0,0.0,0.0,0.0,0.0,0.0,0.0,0.0,0.0,0.0,0.0,0.0,0.0,0.0,0.0,0.0,0.0,0.0,0.0,0.0,0.0,0.0,0.0,0.0,0.0,0.0,0.0,0.0,0.0,0.0,0.0,0.0,0.0,0.0,0.0,0.0,0.0,0.0,0.0,0.0,0.0,0.0,0.0,0.0,0.0,0.0,0.0,0.0,0.0,0.0,0.0,0.0,0.0,0.0,0.0,0.0,0.0,0.0,0.0,0.0,0.0,0.0,0.0,0.0,0.0,0.0,0.0,0.0,1.8149,2.0064,0.0,2.153,2.1575,2.0289,1.9929,1.849,1.5504,0.0,0.0,0.0,0.0,0.0,0.0,0.0,0.0,0.0,0.0,0.0,0.0,0.0,0.0,0.0,0.0,0.0,0.0,0.0,0.0,0.0,0.0,0.0,0.0,0.0,0.0,0.0,0.0,0.0,0.0,0.0,0.0,0.0,0.0,0.0,0.0,0.0,0.0,0.0,0.0,0.0,0.0,0.0,0.0,0.0,0.0,0.0,0.0,0.0,0.0,0.0,0.0,0.0,0.0,0.0,0.0,0.0,0.0,0.0,0.0,0.0,0.0,0.0,0.0,0.0,0.0,0.0,0.0,0.0,0.0,0.0,0.0,0.0,0.0,0.0,0.0,0.0,0.0,0.0,0.0,0.0,0.0,0.0,0.0,0.0,0.0,0.0,0.0,0.0,0.0,0.0,0.0,0.0,0.0,0.0,0.0,0.0,0.0,0.0,0.0,0.0,0.0,1.5542,1.7864,1.96,0.0,2.0976,2.0941,1.9914,1.9376,1.791,1.5124,0.0,0.0,0.0,0.0,0.0,0.0,0.0,0.0,0.0,0.0,0.0,0.0,0.0,0.0,0.0,0.0,0.0,0.0,0.0,0.0,0.0,0.0,0.0,0.0,0.0,0.0,0.0,0.0,0.0,0.0,0.0,0.0,0.0,0.0,0.0,0.0,0.0,0.0,0.0,0.0,0.0,0.0,0.0,0.0,0.0,0.0,0.0,0.0,0.0,0.0,0.0,0.0,0.0,0.0,0.0,0.0,0.0,0.0,0.0,0.0,0.0,0.0,0.0,0.0,0.0,0.0,0.0,0.0,0.0,0.0,0.0,0.0,0.0,0.0,0.0,0.0,0.0,0.0,0.0,0.0,0.0,0.0,0.0,0.0,0.0,0.0,0.0,0.0,0.0,0.0,0.0,0.0,0.0,0.0,0.0,0.0,0.0,0.0,0.0,0.0,0.0,0.0,1.5662,1.8657,2.0438,1.975,2.0288,2.0423,1.975,1.7213,1.5381,0.0,0.0,0.0,0.0,0.0,0.0,0.0,0.0,0.0,0.0,0.0,0.0,0.0,0.0,0.0,0.0,0.0,0.0,0.0,0.0,0.0,0.0,0.0,0.0,0.0,0.0,0.0,0.0,0.0,0.0,0.0,0.0,0.0,0.0,0.0,0.0,0.0,0.0,0.0,0.0,0.0,0.0,0.0,0.0,0.0,0.0,0.0,0.0,0.0,0.0,0.0,0.0,0.0,0.0,0.0,0.0,0.0,0.0,0.0,0.0,0.0,0.0,0.0,0.0,0.0,0.0,0.0,0.0,0.0,0.0,0.0,0.0,0.0,0.0,0.0,0.0,0.0,0.0,0.0,0.0,0.0,0.0,0.0,0.0,0.0,0.0,0.0,0.0,0.0,0.0,0.0,0.0,0.0,0.0,0.0,0.0,0.0,0.0,0.0,0.0,0.0,0.0,0.0,1.5634,1.8238,1.9914,1.9705,1.9869,1.9899,1.9705,1.827,1.6619,1.4904,0.0,0.0,0.0,0.0,0.0,0.0,0.0,0.0,0.0,0.0,0.0,0.0,0.0,0.0,0.0,0.0,0.0,0.0,0.0,0.0,0.0,0.0,0.0,0.0,0.0,0.0,0.0,0.0,0.0,0.0,0.0,0.0,0.0,0.0,0.0,0.0,0.0,0.0,0.0,0.0,0.0,0.0,0.0,0.0,0.0,0.0,0.0,0.0,0.0,0.0,0.0,0.0,0.0,0.0,0.0,0.0,0.0,0.0,0.0,0.0,0.0,0.0,0.0,0.0,0.0,0.0,0.0,0.0,0.0,0.0,0.0,0.0,0.0,0.0,0.0,0.0,0.0,0.0,0.0,0.0,0.0,0.0,0.0,0.0,0.0,0.0,0.0,0.0,0.0,0.0,0.0,0.0,0.0,0.0,0.0,0.0,0.0,0.0,0.0,0.0,0.0,0.0,1.5634,1.8092,1.969,1.969,1.969,1.969,1.969,1.8744,1.7159,1.4934,0.0,0.0,0.0,0.0,0.0,0.0,0.0,0.0,0.0,0.0,0.0,0.0,0.0,0.0,0.0,0.0,0.0,0.0,0.0,0.0,0.0,0.0,0.0,0.0,0.0,0.0,0.0,0.0,0.0,0.0,0.0,0.0,0.0,0.0,0.0,0.0,0.0,0.0,0.0,0.0,0.0,0.0,0.0,0.0,0.0,0.0,0.0,0.0,0.0,0.0,0.0,0.0,0.0,0.0,0.0,0.0,0.0,0.0,0.0,0.0,0.0,0.0,0.0,0.0,0.0,0.0,0.0,0.0,0.0,0.0,0.0,0.0,0.0,0.0,0.0,0.0,0.0,0.0,0.0,0.0,0.0,0.0,0.0,0.0,0.0,0.0,0.0,0.0,0.0,0.0,0.0,0.0,0.0,0.0,0.0,0.0,0.0,0.0,0.0,0.0,0.0,0.0,1.5634,1.8092,1.969,1.969,1.969,1.969,1.969,1.8744,1.7188,1.5009,0.0,0.0,0.0,0.0,0.0,0.0,0.0,0.0,0.0,0.0,0.0,0.0,0.0,0.0,0.0,0.0,0.0,0.0,0.0,0.0,0.0,0.0,0.0,0.0,0.0,0.0,0.0,0.0,0.0,0.0,0.0,0.0,0.0,0.0,0.0,0.0,0.0,0.0,0.0,0.0,0.0,0.0,0.0,0.0,0.0,0.0,0.0,0.0,0.0,0.0,0.0,0.0,0.0,0.0,0.0,0.0,0.0,0.0,0.0,0.0,1.7712,1.6324,0.0,0.0,0.0,0.0,0.0,0.0,0.0,0.0,0.0,0.0,0.0,0.0,0.0,0.0,0.0,0.0,0.0,0.0,0.0,0.0,0.0,0.0,0.0,0.0,0.0,0.0,0.0,0.0,0.0,0.0,0.0,0.0,0.0,0.0,0.0,0.0,0.0,0.0,0.0,0.0,1.5634,1.8092,1.969,1.969,1.969,1.969,1.969,1.8744,1.7378,1.5695,1.3957,0.0,0.0,0.0,0.0,0.0,0.0,0.0,0.0,0.0,0.0,0.0,0.0,0.0,0.0,0.0,0.0,0.0,0.0,0.0,0.0,0.0,0.0,0.0,0.0,0.0,0.0,0.0,0.0,0.0,0.0,0.0,0.0,0.0,0.0,0.0,0.0,0.0,0.0,0.0,0.0,0.0,0.0,0.0,0.0,0.0,0.0,0.0,0.0,0.0,0.0,0.0,0.0,0.0,0.0,0.0,0.0,0.0,0.0,0.0,2.0545,1.9355,0.0,0.0,0.0,0.0,0.0,0.0,0.0,0.0,0.0,0.0,0.0,0.0,0.0,0.0,0.0,0.0,0.0,0.0,0.0,0.0,0.0,0.0,0.0,0.0,0.0,0.0,0.0,0.0,0.0,0.0,0.0,0.0,0.0,0.0,0.0,0.0,0.0,0.0,0.0,0.0,1.6069,1.8253,1.969,1.969,1.969,1.969,1.969,1.9182,1.8244,1.6817,1.5299,0.0,0.0,0.0,0.0,0.0,0.0,0.0,0.0,0.0,0.0,0.0,0.0,0.0,0.0,0.0,0.0,0.0,0.0,0.0,0.0,0.0,0.0,0.0,0.0,0.0,0.0,0.0,0.0,0.0,0.0,0.0,0.0,0.0,0.0,0.0,0.0,0.0,0.0,0.0,0.0,0.0,0.0,0.0,0.0,0.0,0.0,0.0,0.0,0.0,0.0,0.0,0.0,0.0,2.4229,2.4667,2.5034,2.5122,2.5544,2.6098,2.3619,2.2877,2.3272,2.1551,0.0,0.0,0.0,0.0,0.0,0.0,0.0,0.0,0.0,0.0,0.0,0.0,0.0,0.0,0.0,0.0,0.0,0.0,0.0,0.0,0.0,0.0,1.9647,1.958,1.9569,1.8836,1.6244,0.0,0.0,0.0,0.0,0.0,0.0,0.0,0.0,0.0,0.0,0.0,1.6712,1.8538,1.969,1.969,1.969,1.969,1.969,1.969,1.9166,1.7936,1.6772,1.5575,0.0,0.0,0.0,0.0,0.0,0.0,0.0,0.0,0.0,0.0,0.0,0.0,0.0,0.0,0.0,0.0,0.0,0.0,0.0,0.0,0.0,0.0,0.0,0.0,0.0,0.0,0.0,0.0,0.0,0.0,0.0,0.0,1.6651,1.8321,0.0,0.0,0.0,0.0,0.0,0.0,0.0,0.0,0.0,0.0,0.0,0.0,0.0,2.3738,2.448,2.6296,2.6895,2.6339,2.9016,2.9622,2.837,2.8798,2.9186,2.9489,2.8149,0.0,2.4922,2.2962,0.0,0.0,0.0,0.0,0.0,0.0,0.0,0.0,0.0,0.0,0.0,0.0,0.0,0.0,0.0,0.0,0.0,0.0,0.0,0.0,0.0,0.0,2.2697,2.2305,2.1954,2.1294,1.9874,1.6982,1.4656,1.4423,1.3451,1.2591,0.0,0.0,0.0,0.0,0.0,0.0,1.7399,1.8822,1.969,1.969,1.969,1.969,1.969,1.969,1.9375,1.8627,1.7847,1.71,1.6353,1.4442,0.0,0.0,0.0,0.0,0.0,0.0,0.0,0.0,0.0,0.0,0.0,0.0,0.0,0.0,0.0,0.0,0.0,0.0,0.0,0.0,0.0,0.0,0.0,0.0,0.0,0.0,0.0,0.0,0.0,1.6289,1.8802,2.0508,2.0065,1.9422,0.0,0.0,0.0,0.0,0.0,0.0,0.0,0.0,0.0,2.562,2.7023,2.7925,2.8304,2.9372,2.9742,2.9392,3.0754,3.1017,3.0356,3.0545,3.0734,3.0852,3.014,2.9446,2.8558,2.5877,2.4127,2.2997,0.0,0.0,0.0,0.0,2.1604,2.1959,2.2442,2.2516,2.22,2.0997,0.0,0.0,0.0,0.0,0.0,0.0,0.0,2.0695,2.2078,2.3207,2.3894,2.3389,2.2947,2.2327,2.1132,1.9436,1.779,1.6652,1.5964,1.5096,1.3615,1.3735,0.0,0.0,0.0,1.7206,1.8149,1.9091,1.969,1.969,1.969,1.969,1.969,1.969,1.9555,1.9271,1.8642,1.8149,1.7832,1.5964,1.4629,0.0,0.0,0.0,0.0,0.0,0.0,0.0,0.0,0.0,0.0,0.0,0.0,0.0,0.0,0.0,0.0,0.0,0.0,0.0,0.0,0.0,0.0,0.0,0.0,0.0,0.0,0.0,0.0,1.8516,2.0937,2.2637,2.2856,2.2491,0.0,0.0,0.0,0.0,0.0,0.0,2.4062,2.6524,2.8198,2.8852,3.0405,3.1223,3.1223,3.1547,3.1715,3.1715,3.1916,3.2008,3.2008,3.2008,3.2008,3.199,3.1528,3.1464,3.1476,2.8338,2.6417,2.5307,2.4003,2.3401,2.3365,2.365,2.4095,2.4645,2.527,2.5517,2.5311,2.3945,2.3059,2.2139,2.0246,0.0,0.0,0.0,0.0,2.2453,2.3642,2.4357,2.4652,2.415,2.3813,2.3189,2.1792,2.1203,2.0361,1.8538,1.8056,1.7356,1.5396,1.574,0.0,0.0,0.0,1.8208,1.8867,1.9375,1.969,1.969,1.969,1.969,1.969,1.969,1.969,1.969,1.9226,1.8957,1.8957,1.7221,1.5964,1.5306,0.0,0.0,0.0,0.0,0.0,0.0,0.0,0.0,0.0,0.0,0.0,0.0,0.0,0.0,0.0,0.0,0.0,0.0,0.0,0.0,0.0,0.0,0.0,0.0,0.0,0.0,0.0,0.0,0.0,2.5215,2.5408,0.0,0.0,0.0,0.0,2.386,2.617,2.7604,2.764,3.0063,3.1468,3.1506,3.192,3.2128,3.2128,3.24,3.254,3.2559,3.3311,3.3678,3.3678,3.3678,3.3678,3.3642,3.2845,3.2515,3.2331,2.9479,2.8494,2.859,2.7013,2.6158,2.5829,2.5841,2.5665,2.5454,2.549,2.5533,2.5691,2.6357,2.6218,2.5548,2.4342,2.3972,0.0,0.0,2.3978,2.4523,2.5287,2.5524,2.5444,2.5012,2.4909,2.4377,2.2454,2.1739,2.1075,1.9827,1.9091,1.8612,1.8478,0.0,1.7802,1.8418,1.8597,1.8897,1.9555,1.966,1.969,1.969,1.969,1.969,1.969,1.969,1.969,1.969,1.966,1.963,1.963,1.8343,1.7279,1.6622,1.4034,0.0,0.0,0.0,0.0,0.0,0.0,0.0,0.0,0.0,0.0,0.0,0.0,0.0,0.0,0.0,0.0,0.0,0.0,0.0,0.0,0.0,0.0,0.0,0.0,0.0,0.0,0.0,0.0,2.707,2.734,0.0,2.7657,2.7642,2.7806,2.8265,2.9605,3.039,3.0352,3.2237,3.3314,3.3314,3.3631,3.3807,3.3807,3.3512,3.3366,3.3385,3.366,3.3807,3.3807,3.3807,3.3807,3.377,3.3495,3.3366,3.3256,3.1733,3.0881,3.0406,2.9077,2.8431,2.8232,2.7495,2.7157,2.7048,2.7048,2.7193,2.7417,2.7435,2.6954,2.6308,2.5909,2.5458,2.5173,2.5559,2.5454,2.5372,2.6116,2.6302,2.6202,2.5775,2.5653,2.5231,2.3777,2.2984,2.2283,2.1418,2.0212,1.9211,1.8777,1.8867,1.8927,1.8732,1.9061,1.942,1.966,1.969,1.969,1.969,1.969,1.969,1.969,1.969,1.951,1.9076,1.9061,1.8867,1.8433,1.7533,1.695,1.6712,1.4573,1.2862,0.0,0.0,0.0,0.0,0.0,0.0,0.0,0.0,0.0,0.0,0.0,0.0,0.0,0.0,0.0,0.0,0.0,0.0,0.0,0.0,0.0,0.0,0.0,0.0,0.0,0.0,2.6465,2.8496,2.9219,2.9769,3.0346,3.0625,3.0955,3.1437,3.2232,3.2666,3.2583,3.391,3.4661,3.4641,3.4677,3.4694,3.4694,3.4087,3.3807,3.3807,3.3807,3.3807,3.3807,3.3807,3.3807,3.3807,3.3807,3.3807,3.3752,3.322,3.2687,3.2074,3.0735,2.9961,2.9521,2.8756,2.8307,2.8075,2.8228,2.8412,2.8567,2.8288,2.7842,2.738,2.725,2.6777,2.6401,2.6782,2.6437,2.6082,2.6573,2.6691,2.6624,2.6297,2.6227,2.594,2.4917,2.4183,2.3462,2.2508,2.0986,1.9758,1.9334,1.9497,1.954,1.9091,1.9405,1.969,1.969,1.969,1.969,1.969,1.969,1.969,1.969,1.969,1.9566,1.9273,1.8891,1.8575,1.8303,1.7136,1.6518,1.6518,1.4766,1.3551,1.2941,0.0,0.0,0.0,0.0,0.0,0.0,0.0,0.0,0.0,0.0,0.0,0.0,0.0,0.0,0.0,0.0,0.0,0.0,0.0,0.0,0.0,0.0,0.0,2.3398,2.6289,2.8711,2.9609,3.1094,3.2051,3.207,3.2794,3.3256,3.3276,3.4061,3.4494,3.434,3.5141,3.5584,3.5526,3.4999,3.4714,3.4714,3.4111,3.3815,3.3815,3.3788,3.3807,3.3807,3.3807,3.3807,3.3807,3.3807,3.3807,3.3807,3.3807,3.3807,3.3642,3.2045,3.0732,2.9674,2.9638,2.9114,2.8471,2.8863,2.8994,2.8994,2.8994,2.8994,2.8929,2.854,2.8183,2.784,2.7409,2.7019,2.6725,2.6691,2.6691,2.6691,2.6691,2.6691,2.6488,2.5795,2.5297,2.4563,2.3059,2.1471,2.0364,2.0314,2.0,1.9711,1.9711,1.9726,0.0,1.969,1.9711,1.9711,1.969,1.9711,1.9711,1.9711,1.9711,1.9859,2.0218,1.9262,1.8894,1.9324,1.7282,1.6136,1.6163,1.4799,1.4472,1.523,0.0,0.0,0.0,0.0,0.0,0.0,0.0,0.0,0.0,0.0,0.0,0.0,0.0,0.0,0.0,0.0,0.0,0.0,0.0,0.0,0.0,2.5817,2.7812,2.7832,2.9199,3.0723,3.2187,3.2754,3.3262,3.3906,3.4157,3.4523,3.5109,3.5389,3.5456,3.5324,3.555,3.5641,3.5584,3.5239,3.5037,3.4981,3.4401,3.4074,3.4093,3.3902,3.3807,3.3807,3.3807,3.3807,3.3807,3.3807,3.3807,3.3807,3.3807,3.3807,3.3697,3.2669,3.2067,3.1642,3.0472,2.9515,2.8839,2.8952,2.8994,2.8994,2.8994,2.8994,2.8994,2.8863,2.8583,2.8183,2.7823,2.7457,2.7051,2.6791,2.6691,2.6691,2.6691,2.6691,2.664,2.6437,2.5882,2.5143,2.4185,2.2944,2.1795,2.0941,2.0416,2.0124,2.0124,1.9874,0.0,1.969,1.9929,2.0035,1.9711,1.9965,2.0124,2.0124,2.0124,1.9896,1.9338,1.8796,1.8439,1.8305,1.7493,1.7167,1.7416,1.6645,1.6138,0.0,0.0,0.0,0.0,0.0,0.0,0.0,0.0,0.0,0.0,0.0,0.0,0.0,0.0,0.0,0.0,0.0,0.0,0.0,0.0,0.0,0.0,2.8498,3.0449,3.1582,3.1855,3.2441,3.3789,3.3945,3.4297,3.5156,3.5234,3.5449,3.5918,3.5937,3.5894,3.5798,3.5732,3.5673,3.5608,3.5306,3.5143,3.5105,3.4636,3.4401,3.4401,3.4237,3.4111,3.3961,3.3961,3.3902,3.3807,3.3807,3.3807,3.3807,3.3807,3.3807,3.3752,0.0,0.0,0.0,0.0,2.9696,2.8994,2.8994,2.8994,2.8994,2.8994,2.8994,2.8994,2.8994,2.8725,2.8342,2.7992,2.7589,2.721,2.6808,2.6691,2.6691,2.6691,2.6691,2.6691,2.6691,2.6353,2.5744,2.4709,2.3933,0.0,2.1765,2.0846,2.0314,2.0314,2.0089,1.9929,1.9929,2.033,2.0499,2.0277,2.0465,2.0583,2.0583,2.0583,0.0,0.0,0.0,1.8779,1.8129,1.792,0.0,0.0,0.0,0.0,0.0,0.0,0.0,0.0,1.732,1.7151,0.0,0.0,0.0,0.0,0.0,0.0,0.0,0.0,0.0,0.0,0.0,0.0,0.0,0.0,0.0,0.0,3.047,3.1952,3.4355,3.4081,3.3944,3.4746,3.4844,3.5156,3.5918,3.5996,3.5996,3.5996,3.5996,3.5976,3.5918,0.0,0.0,0.0,0.0,3.5157,3.5157,3.4889,3.4753,3.4734,3.4714,3.4551,3.4265,3.4265,3.4117,3.3842,3.3842,3.3815,3.3807,3.3807,3.3807,3.3807,3.3807,3.3256,3.2302,3.087,2.9769,2.8994,2.8994,0.0,0.0,2.8994,2.8994,2.8994,2.8994,2.8749,2.8394,2.8047,2.7707,2.7348,2.6939,2.6858,2.6858,2.6858,2.6858,2.6858,2.6858,2.6808,2.635,2.4856,2.4537,2.4019,2.2564,2.1275,2.0449,2.0449,2.0416,2.0382,2.0382,2.0781,2.1055,2.0991,0.0,0.0,2.1055,2.1055,2.1212,2.1526,2.0668,1.9682,1.868,1.8765,1.8935,1.9164,1.9232,1.9908,2.1204,2.1288,2.1312,2.1271,1.8595,1.8335,0.0,0.0,0.0,0.0,0.0,0.0,0.0,0.0,0.0,0.0,0.0,0.0,0.0,0.0,0.0,3.0072,3.226,3.3969,3.453,3.4989,3.5381,3.5702,3.5742,3.5801,3.5976,3.5996,3.5996,3.5996,3.5996,3.5996,3.5976,3.5955,3.587,3.5682,3.5608,3.5528,3.5432,3.5174,3.5016,3.5016,3.4793,0.0,3.4593,3.4593,3.4442,3.4123,3.4123,3.4012,3.3807,3.3807,3.3807,3.3807,3.3807,3.2908,3.1586,3.1274,3.0246,2.8994,2.8994,2.8994,2.8994,2.8994,2.8994,2.8994,2.8994,2.8952,0.0,2.8394,2.8246,2.8112,2.7765,2.7648,2.7648,2.7648,2.7648,2.7648,2.7648,2.7409,2.6761,2.527,2.4731,2.4019,2.2564,2.1764,2.1352,2.1352,2.107,2.0862,2.0862,2.1244,2.1368,2.1023,2.1275,2.1491,2.1491,2.1491,2.1411,2.1305,2.1065,2.0738,2.0202,2.105,2.1309,2.078,2.1346,2.1498,2.1204,2.1803,2.209,2.2073,2.1498,2.1126,0.0,0.0,0.0,0.0,0.0,0.0,0.0,0.0,0.0,0.0,0.0,2.59,2.7622,0.0,3.0906,3.2275,3.3581,3.4584,3.5079,3.547,3.5763,3.5976,3.5976,3.5957,3.5996,3.5996,3.5996,3.5996,3.5962,3.5968,3.5996,3.5898,3.5827,3.5807,3.5739,3.5872,3.6205,3.5637,3.5534,3.5898,3.5365,3.5016,3.4908,3.4908,3.4754,3.4445,3.4445,3.4265,3.3986,3.3868,3.3807,3.3807,3.3807,3.3054,3.1953,3.1549,3.0632,2.9549,2.9122,2.8994,2.8994,2.8994,2.8994,2.8994,2.8994,2.8994,2.8929,2.8496,2.8394,2.8316,2.801,2.7897,2.7897,2.7897,2.7897,2.7897,2.7897,2.7754,2.7105,2.5442,2.4948,2.4269,2.2592,2.2106,2.1869,2.1658,2.143,2.1306,2.1306,2.1675,2.1869,2.1691,2.184,2.1957,2.1957,2.1957,2.191,2.1769,2.1752,2.1653,2.1451,2.2006,2.2141,2.1752,2.2124,2.2124,2.1752,2.2124,2.231,2.231,2.231,2.2107,0.0,0.0,0.0,0.0,0.0,0.0,0.0,0.0,2.4909,2.714,2.8275,2.9478,3.1415,3.1999,3.2667,3.4191,3.4493,3.4795,3.5565,3.5678,3.5723,3.5929,3.5888,3.5873,3.5932,3.5932,3.5932,3.5932,3.5896,3.5883,3.5929,3.5817,3.5859,3.6091,3.6034,3.6377,3.7153,3.6485,3.6334,3.6719,3.6084,3.5556,3.519,3.519,3.5016,3.4774,3.4714,3.4551,3.4288,3.4062,3.3979,3.3954,3.3902,3.3489,3.2827,3.1998,3.1188,3.0401,2.9654,2.9355,2.9292,2.9122,2.9044,2.8994,2.8994,2.8994,2.8929,2.859,2.8515,2.8446,2.8174,2.812,2.812,2.812,2.812,2.812,2.812,2.8065,2.75,2.5775,2.5251,2.4545,2.2819,2.2395,2.218,2.1794,2.1735,2.1735,2.1735,2.2077,2.231,2.231,2.231,2.231,2.231,2.231,2.231,2.231,2.231,2.2321,2.2388,2.2388,2.2415,2.2453,2.2453,2.2443,2.2388,2.2405,2.2349,2.231,2.231,2.231,2.1889,2.1474,2.1689,2.414,2.4274,2.4995,0.0,0.0,2.9852,3.091,3.1775,3.2218,3.1795,3.291,3.3987,3.4199,3.4872,3.543,3.5603,3.5553,3.5573,3.5707,3.5724,3.5735,3.5735,3.5735,3.5735,3.5735,3.5735,3.5726,3.5732,3.5821,3.6166,3.6777,3.6952,3.7363,3.8054,3.8028,3.7618,3.6881,3.6785,3.6276,3.5465,3.5465,3.5304,3.5034,3.4793,3.4674,3.4653,3.4612,3.4612,3.4569,3.4265,3.4115,3.3929,3.3129,3.2315,3.1539,3.0979,3.0619,3.0286,2.9595,2.9181,2.8994,2.8994,2.8994,2.8994,2.8952,2.8929,2.8929,2.8881,2.8881,2.8881,2.8881,2.8881,2.8881,2.8881,2.8608,2.8012,2.6854,2.5785,2.4717,2.3498,2.2733,2.2282,2.2237,2.2209,2.2209,2.2209,2.2282,2.231,2.231,2.231,2.231,2.231,2.231,2.231,2.231,2.231,2.2415,2.2634,2.266,2.2815,2.3087,2.3111,2.2947,2.266,2.2738,2.2588,2.231,2.231,2.231,2.4988,2.5539,0.0,0.0,2.8025,2.9083,3.1218,3.1429,3.1545,3.2872,3.341,3.3699,3.3891,3.4487,3.4968,0.0,3.5257,3.5465,3.5327,3.4849,3.4473,3.4363,3.4355,3.4712,3.5615,3.5695,3.5695,3.5695,3.5657,3.5659,3.5713,3.6192,3.6639,3.6956,3.7525,3.8213,3.9017,3.8545,3.8357,3.8461,3.7411,3.6689,3.629,3.5757,3.5432,3.532,3.5053,3.4926,3.4926,3.4754,3.4694,3.4674,3.4551,3.4508,3.4373,3.3374,3.2784,3.2422,3.1883,3.1318,3.0772,3.0453,2.9827,2.9225,2.9225,2.9134,2.8994,2.8994,2.8994,2.8994,2.8994,2.8994,2.8994,2.8994,2.8994,2.8994,2.8994,2.8863,2.8421,2.7309,2.6708,2.5878,2.427,2.372,2.3354,2.2876,2.2535,2.231,2.231,2.2453,2.2616,2.2798,2.2824,2.2824,2.2824,2.2824,2.2824,2.2824,2.2824,2.2883,2.2996,2.2996,2.3069,2.3189,2.3189,2.3117,2.2996,2.3014,2.2958,2.2824,2.2824,2.2824,2.711,0.0,0.0,2.9667,3.0929,3.2083,3.2333,3.2583,3.3083,3.4314,3.4564,3.468,3.5064,3.5353,3.543,3.518,3.5353,3.5417,3.5138,3.4339,3.3777,3.3753,3.3563,3.3922,3.5277,3.5488,3.5518,3.5518,3.5556,3.5603,3.5641,3.6435,3.7025,3.7269,3.8182,3.9062,3.9891,3.9325,3.9234,3.9589,3.8302,3.7409,3.6901,3.5963,3.5526,3.5493,3.5289,3.5207,3.519,3.4999,3.4926,3.4926,3.4851,3.4793,3.4698,3.3876,3.3567,3.3496,3.2937,3.2326,3.1705,3.1233,3.0508,2.9812,2.9549,2.9312,2.9112,2.9112,2.9044,2.8994,2.8994,2.8994,2.8994,2.8994,2.8994,2.8994,2.8994,2.8994,2.8722,2.7779,2.7447,2.6826,2.5326,2.4885,2.4477,2.3655,2.3163,2.2801,2.2579,2.273,2.2923,2.3165,2.3189,2.3189,2.3189,2.3189,2.3189,2.3189,2.3189,2.3236,2.3346,2.3346,2.3392,2.3459,2.3477,2.3414,2.3346,2.3346,2.33,2.3189,2.3189,2.3189,0.0,0.0,2.9026,3.1104,3.2256,3.3083,3.393,3.4776,3.5411,3.5449,3.5468,3.5218,3.4391,3.493,3.5218,3.4372,3.4949,3.5417,3.5138,3.4339,3.4006,3.4602,3.3903,3.3752,0.0,3.4982,3.5105,3.5105,3.5354,3.5493,3.5526,3.6397,3.7238,3.7945,3.8992,3.9912,4.065,4.0836,4.0467,3.9608,3.9606,3.8709,3.6972,3.6021,3.5565,3.5493,3.5493,3.5493,3.5493,3.5479,3.5479,3.5446,3.519,3.5088,3.5069,3.5049,3.5049,3.495,3.4347,3.3954,3.3459,3.1806,3.113,3.0807,2.9941,2.9551,2.9392,2.9392,2.9181,2.8994,2.8994,2.8994,2.8994,2.8994,2.8994,2.8994,2.8994,2.8994,2.8863,2.8453,2.7777,2.7162,2.6801,2.6074,2.5301,2.447,2.4364,2.4056,2.3271,2.3165,2.3189,2.3189,2.3189,2.3189,2.3189,2.3189,2.3189,2.3189,2.3189,2.3346,2.3671,2.3692,2.3837,2.417,2.417,2.4016,2.3692,2.3692,2.3522,2.3189,2.3189,2.3189,0.0,0.0,3.1722,3.3019,3.4007,3.4699,3.5007,3.5158,3.5117,3.471,3.3918,3.3124,3.246,3.257,3.2872,3.3101,3.3838,3.4489,3.4775,3.3939,3.328,3.33,3.3054,0.0,0.0,0.0,0.0,3.4832,3.5088,3.5468,3.6004,3.7049,3.8007,3.8834,3.9738,4.0354,4.0696,4.0764,4.0699,4.0526,3.9373,3.8195,3.6968,3.6028,3.5603,3.5565,3.5526,3.5493,3.5493,3.5493,3.5493,3.5493,3.5398,3.5369,3.5369,3.5369,3.5369,3.5345,3.5133,3.462,3.3868,3.2735,3.1824,3.1045,3.0155,2.9746,2.9607,2.9607,2.9514,2.9456,2.9456,2.9355,2.9267,2.9267,2.9134,2.8994,2.8994,2.8994,2.8952,2.8839,2.8596,2.8231,2.7567,2.724,2.6786,2.5982,2.458,2.3602,2.3535,2.3522,2.3628,2.3837,2.3858,2.3858,2.3858,2.3858,2.3858,2.3858,2.3858,2.3917,2.4016,2.4016,2.4094,2.419,2.419,2.4133,2.4016,2.4016,2.3976,2.3858,2.3858,2.3858,3.0712,3.1939,3.303,3.4672,3.5158,3.5239,3.5339,3.4907,3.4293,3.362,3.2564,3.1481,3.0582,3.0696,3.1187,3.1911,3.2642,3.3468,3.4402,3.3515,3.2865,3.3007,3.3036,3.3146,0.0,0.0,0.0,3.4526,3.5058,3.5664,3.6268,3.7551,3.8604,3.9277,4.0065,4.0543,4.0639,4.0677,4.0784,4.0909,3.9528,3.8373,3.7433,3.6565,3.5958,3.5603,3.5565,3.5526,3.5493,3.5493,3.5493,3.5493,3.5493,3.5493,3.5493,3.5493,3.5526,3.5545,3.5526,3.5141,3.4526,3.3641,3.2691,3.1714,3.0858,3.0217,2.9813,2.9813,2.9765,2.9696,2.9696,2.9607,2.9513,2.9513,2.9375,2.9251,2.9251,2.9251,2.9251,2.9251,2.9251,2.9084,2.8565,2.8233,2.7862,2.736,2.5709,2.4465,2.4312,2.406,2.3976,2.417,2.419,2.419,2.419,2.419,2.419,2.419,2.419,2.419,2.419,2.419,2.419,2.419,2.419,2.419,2.419,2.419,2.419,2.419,2.419,2.419,3.316,3.3139,3.3087,3.5929,3.5678,3.4735,3.4978,3.413,3.3072,3.226,3.139,3.0294,2.8685,2.9239,3.0141,3.0767,3.145,3.2463,3.4037,3.3259,3.2889,0.0,0.0,0.0,0.0,0.0,0.0,3.4247,0.0,3.6022,3.6366,3.7927,3.8972,3.9339,4.0085,4.0489,4.0489,4.0639,4.0733,4.0785,4.0011,3.9178,3.828,3.748,3.6577,3.5618,3.5597,3.5565,3.5493,3.5493,3.5493,3.5493,3.5493,3.5493,3.5493,3.5493,3.5545,3.5603,3.5545,3.5526,3.5372,3.4487,3.3641,3.2814,3.1968,3.095,3.0071,3.0032,2.9877,2.9731,2.9731,2.9731,2.9713,2.9713,2.9713,2.9696,2.9696,2.9696,2.9696,2.9696,2.9696,2.9696,2.9696,2.907,2.8558,2.8558,2.7656,2.66,2.5554,2.4742,2.4245,2.419,2.419,2.419,2.419,2.419,2.419,2.419,2.419,2.419,2.419,2.419,2.419,2.419,2.419,2.419,2.419,2.419,2.419,2.419,2.419,2.419,3.3041,3.4066,3.515,3.5912,3.5399,3.4544,3.398,3.2994,3.1877,3.0656,2.897,2.7287,2.5824,2.6735,2.7974,2.8764,3.056,0.0,3.4852,3.4681,0.0,3.555,0.0,3.515,3.5349,3.4993,0.0,0.0,3.521,3.6152,3.7427,3.8321,3.9147,3.987,4.0293,4.0489,4.0489,4.0639,4.0703,4.0706,3.9366,3.8614,3.834,3.6894,3.6089,3.5814,3.5676,3.5603,3.5584,3.5526,3.5493,3.5493,3.5493,3.5493,3.5493,3.5493,3.5526,3.5545,3.5565,3.5584,3.5416,3.4557,3.409,3.3603,3.2141,3.1501,3.1136,3.0471,3.0254,3.0215,3.0215,3.008,2.9924,2.9924,2.9813,2.9696,2.9696,2.9696,2.9696,2.9696,2.9696,2.9696,2.9696,2.9525,2.9393,2.9393,2.8642,2.7486,2.5837,2.5318,2.485,2.4263,2.419,2.419,2.419,2.419,2.419,2.419,2.419,2.419,2.419,2.419,2.419,2.419,2.419,2.419,2.419,2.419,2.419,2.419,2.419,2.419,3.5136,3.5773,3.6269,3.6406,3.5349,3.4012,3.2929,3.16,3.0071,2.8241,2.6635,2.5093,2.3578,2.4703,2.6209,0.0,0.0,0.0,3.4388,3.4743,3.5034,0.0,3.6001,0.0,3.5683,3.5421,3.5383,0.0,3.5942,3.6472,3.7535,3.8445,3.9283,4.0081,4.0251,4.0372,4.0489,4.0581,4.062,4.06,3.9396,3.867,3.831,3.7048,3.6269,3.5898,3.5772,3.5698,3.5641,3.5603,3.5603,3.5603,3.5603,3.5584,3.5545,3.5545,3.5545,3.5565,3.5603,3.5622,3.5565,3.507,3.4647,3.4147,3.3147,3.2333,3.1634,3.1121,3.0698,3.0398,3.0398,3.0299,3.0182,3.0182,3.008,3.0007,3.0007,3.0007,3.0007,3.0007,3.0007,3.0007,3.0007,3.0007,3.0007,3.0007,2.9528,2.8654,2.7236,2.6572,2.606,2.5612,2.5557,2.5557,2.5557,2.5204,2.4999,2.4999,2.4666,2.4461,2.4461,2.4461,2.4461,2.4461,2.4375,2.4321,2.4321,2.4247,2.419,2.419,2.419,2.419,3.776,3.7436,3.6689,3.6948,3.5306,3.328,3.1912,3.0068,2.8044,2.5713,0.0,2.3363,2.1861,2.3103,2.4783,2.6151,0.0,3.0593,3.3323,3.4098,3.4668,3.5486,3.6125,3.6328,3.587,3.57,3.5941,3.6777,3.6647,3.6759,3.7278,3.8433,3.9408,4.0081,4.0101,4.0232,4.0489,4.0392,4.0335,4.0315,3.9484,3.873,3.808,3.7331,3.6601,3.5898,3.5879,3.5817,3.5732,3.5714,3.5689,3.5689,3.5689,3.565,3.5612,3.5617,3.5622,3.5622,3.5641,3.568,3.5718,3.5718,3.5232,3.4604,3.4263,3.3147,3.1922,3.1641,3.1006,3.0417,3.0417,3.0417,3.0417,3.0417,3.0417,3.0417,3.0417,3.0417,3.0398,3.0398,3.0398,3.0398,3.0398,3.0398,3.0398,3.0398,3.0196,2.9808,2.9109,2.8089,2.7422,2.7308,2.7289,2.7289,2.7289,2.6499,2.5993,2.5993,2.5238,2.4804,2.4804,2.4804,2.4804,2.4804,2.4623,2.4545,2.4545,2.4357,2.4284,2.4284,2.4284,2.4284,3.7386,3.7016,3.638,3.6417,3.4604,3.2394,3.0833,2.8676,0.0,0.0,2.3067,2.1606,2.0644,2.2157,2.3898,2.5067,0.0,0.0,0.0,0.0,3.472,0.0,0.0,0.0,3.5488,3.4562,0.0,0.0,3.5416,3.626,3.7708,3.8623,3.9408,4.0081,4.0101,4.0232,4.0489,3.9835,3.9508,3.9488,3.8016,3.7257,3.7122,3.632,3.5939,3.5898,3.5781,0.0,3.5857,3.5756,3.569,3.569,3.569,3.569,3.5685,3.5688,3.568,3.5699,3.5815,3.5853,3.5853,3.5738,3.5615,3.5224,3.3829,3.3188,3.2647,3.1205,3.0679,3.0564,3.0564,3.0564,3.0564,3.0564,3.0564,3.0564,3.0564,3.0525,3.0487,3.0487,3.0448,3.0398,3.0398,3.0398,3.0398,3.0398,3.0355,3.0285,3.0143,2.9055,2.8045,2.7365,2.7289,2.7289,2.7289,2.6499,2.5993,2.5993,2.5238,2.4804,2.4804,2.4804,2.4804,2.4804,2.476,2.4746,2.4746,2.4716,2.47,2.47,2.47,2.47,3.7386,3.7202,3.6817,3.6395,3.4119,3.1439,2.9402,0.0,0.0,0.0,2.1295,2.0311,1.9523,2.1173,0.0,0.0,0.0,0.0,0.0,0.0,0.0,0.0,0.0,0.0,0.0,3.3955,3.3887,3.4528,3.5103,3.6035,3.7452,3.8529,3.9314,3.9819,3.9565,3.9563,3.9873,3.9027,3.8623,3.8604,3.7377,3.6825,3.6858,3.6037,3.5708,3.5801,3.5808,3.584,3.5898,3.5835,3.5817,3.5848,3.5828,3.5809,3.5802,3.58,3.5768,3.5718,3.5776,3.5832,3.5892,3.5815,3.5842,3.5614,3.4323,3.3619,3.2972,3.1648,3.0963,3.0595,3.0595,3.0595,3.0595,3.0595,3.0568,3.0569,3.0586,3.0558,3.0506,3.0544,3.0506,3.0448,3.0448,3.0448,3.0448,3.0448,3.0487,3.0506,3.0506,2.9979,2.9412,2.8968,2.8911,2.8911,2.8911,2.8109,2.7427,2.7026,2.6626,2.6015,2.5106,2.5487,2.5507,2.5068,2.4962,2.4904,2.4904,2.4828,2.4804,2.4804,2.4804,2.4804,3.7129,3.7092,3.6798,3.6174,3.3523,3.0448,2.8215,2.5499,0.0,0.0,1.9768,1.9253,1.8633,0.0,2.1532,0.0,2.4098,0.0,0.0,0.0,0.0,0.0,0.0,0.0,3.3415,3.3235,0.0,3.4333,3.5165,3.6111,3.7285,3.8118,3.8792,3.9223,3.8674,3.8537,3.8927,3.8063,3.7655,3.7719,3.6853,3.6493,3.6589,3.5878,3.5622,3.5669,3.5788,3.5843,3.5867,3.5863,3.5899,3.5932,3.5888,3.5854,3.5854,3.5854,3.5799,3.5697,3.5697,3.5799,3.5872,3.568,3.5675,3.5547,3.4629,3.373,3.2869,3.1952,3.1183,3.0667,3.0667,3.0667,3.0667,3.0667,3.0623,3.0607,3.0651,3.061,3.0568,3.0607,3.0559,3.0516,3.0518,3.0525,3.0529,3.0507,3.0576,3.0595,3.0595,3.0595,3.0557,3.0441,3.0444,3.0448,3.0448,2.966,2.889,2.8206,2.7832,2.7016,2.563,2.6063,2.6005,2.5303,2.5152,2.5057,2.5057,2.4962,2.4915,2.4915,2.4915,2.4915,3.5991,3.5844,3.5192,3.5137,3.2465,2.9424,2.7798,0.0,0.0,2.0172,1.9049,1.8336,1.8246,1.8761,1.9624,2.0977,0.0,2.3659,0.0,0.0,0.0,0.0,0.0,0.0,3.2633,3.212,3.2256,3.3582,3.5335,3.6768,3.779,3.7241,3.7272,3.8033,3.73,3.7175,3.7752,3.6892,3.6575,3.6815,3.6007,3.5608,3.5628,3.5565,3.5565,3.5603,3.5631,3.5659,0.0,3.5716,3.5718,3.5732,3.5718,3.5729,3.5729,3.5729,3.5716,3.5694,3.5694,3.5796,3.5776,3.4979,3.4754,3.4668,3.3789,3.2949,3.2129,3.1249,3.0936,3.0878,3.0878,3.0878,3.0878,3.0878,3.0878,3.0855,3.0869,3.0761,3.068,3.0699,3.065,3.0583,3.059,3.0583,3.0595,3.0593,3.0601,3.0601,3.0601,3.0601,3.0601,3.0581,3.0579,3.0583,3.0583,2.9829,2.9298,2.9087,2.7651,2.6718,2.6486,2.5813,2.538,2.5303,2.5274,2.5274,2.5274,2.5253,2.5253,2.5253,2.5253,2.5253,3.4486,3.4908,3.4852,3.417,3.1465,2.8373,2.611,0.0,2.0705,1.9143,1.8374,1.7905,1.7693,1.8181,1.8867,1.9652,2.0397,2.1622,2.3826,0.0,0.0,0.0,0.0,0.0,0.0,0.0,3.0769,3.2251,3.3396,3.4548,3.5627,3.6325,3.6726,3.6796,3.6285,3.6239,3.6819,3.5982,3.5717,3.5968,3.5661,3.5493,3.5493,3.5493,3.5526,3.5545,3.5584,3.5624,0.0,3.5646,3.5662,3.5694,3.5659,3.5665,3.5704,3.5704,3.5704,3.5704,3.5704,3.5417,3.4992,3.4645,3.3847,3.2976,3.2752,3.2441,3.2012,3.1152,3.0898,3.0898,3.0898,3.0898,3.0898,3.0898,3.081,3.0723,3.0777,3.0701,3.0648,3.064,3.0626,3.0585,3.0554,3.054,3.0544,3.0543,3.0566,3.0601,3.0601,3.0601,3.0601,3.0601,3.0594,3.061,3.061,3.0311,2.9896,2.9345,2.8656,2.7794,2.6756,2.6379,2.5956,2.5428,2.539,2.537,2.537,2.5322,2.5303,2.5303,2.5303,2.5303,3.2522,3.325,3.3597,3.2788,3.0206,2.7219,0.0,2.2255,1.9906,1.8409,1.7844,1.7572,1.7344,1.7634,1.8107,0.0,1.9116,2.0051,2.1662,2.2248,0.0,0.0,0.0,2.6849,0.0,2.9241,3.0142,3.1177,3.2006,3.275,3.3351,3.4779,3.558,3.5601,3.5217,3.5212,3.5685,3.521,3.5122,3.5383,3.546,3.5493,3.5493,3.5493,3.5493,3.5493,3.5565,3.5584,0.0,3.5584,3.5603,3.5641,3.5603,3.5603,3.5641,3.5641,3.5488,3.5257,3.5257,3.4751,3.4031,3.3798,3.2878,3.1882,3.1753,3.1747,3.1621,3.1016,3.085,3.0837,3.0837,3.0836,3.081,3.081,3.0693,3.0613,3.067,3.0628,3.0604,3.0594,3.06,3.0598,3.0542,3.0531,3.0524,3.0524,3.0567,3.0603,3.0603,3.0603,3.0603,3.0603,3.0601,3.0601,3.0606,3.0622,3.0369,2.9784,2.9505,2.8709,2.7235,2.6947,2.6397,2.5517,2.5459,2.5425,2.5428,2.539,2.5341,2.5322,2.5322,2.5322,3.0026,3.0589,3.092,3.092,2.8614,2.5941,0.0,2.1988,1.9579,1.8115,1.7526,1.7304,1.7296,1.7043,1.7103,1.8052,1.8207,1.8789,2.0488,2.0833,0.0,0.0,0.0,2.468,2.6643,2.9113,3.0561,3.0612,3.1772,0.0,3.1483,3.2446,3.3477,3.4393,3.4016,3.3954,3.4218,3.4529,3.4851,3.5105,3.5369,3.5493,3.5493,3.5493,3.5493,3.5493,3.5493,3.5493,0.0,3.5493,3.5493,3.5493,3.5493,3.5493,3.5493,3.5493,3.4968,3.4218,3.4218,3.3724,3.2961,3.2109,3.1864,3.1734,3.0883,3.0671,3.0703,3.0703,3.0695,3.0691,3.0691,3.0653,3.0606,3.0606,3.0606,3.0593,3.0612,3.0614,3.0606,3.0594,3.0597,3.0602,3.0602,3.0614,3.0595,3.0595,3.0614,3.0602,3.0602,3.0602,3.0602,3.0602,3.0595,3.0598,3.0594,3.0667,3.0664,3.0586,2.9902,2.9068,2.8137,2.7259,2.6389,2.5527,2.5508,2.5493,2.5505,2.5505,2.5466,2.5409,2.5409,2.537,2.7296,2.7961,2.8139,2.6641,2.5534,2.418,2.1833,2.0449,1.9225,1.7778,1.7175,1.6876,1.6644,1.6278,1.6395,1.7709,1.7661,0.0,0.0,0.0,0.0,2.0771,2.3138,2.5227,0.0,0.0,2.8659,2.9128,2.9924,3.0477,3.0639,3.1606,3.2459,3.3087,3.331,3.3634,3.42,3.4311,3.4529,3.4813,3.5105,3.5223,3.5223,3.5417,3.5493,3.5493,3.5493,3.5493,3.5493,3.5493,3.5493,3.5493,3.5493,3.5493,3.543,3.4834,3.443,3.4103,3.3526,3.2795,3.209,3.1821,3.1333,3.0814,3.0544,3.0578,3.0696,3.0696,3.0665,3.064,3.064,3.0612,3.0598,3.0598,3.0559,3.0539,3.0529,3.0525,3.051,3.0462,3.0505,3.0525,3.0467,3.0467,3.0467,3.0467,3.0467,3.0467,3.0467,3.0467,3.0467,3.0467,3.0467,3.0502,3.0598,3.0615,3.062,3.0603,2.9827,2.8987,2.8136,2.7255,2.6394,2.5515,2.5507,2.549,2.5506,2.5507,2.5488,2.5466,2.5466,2.5428,0.0,2.5321,2.5476,2.3971,2.3179,2.2258,2.0279,1.9346,1.8555,1.737,1.6825,1.6485,1.6102,1.5694,1.5795,1.7022,1.6987,1.7145,0.0,0.0,0.0,2.0116,0.0,0.0,0.0,2.6328,2.7287,2.7695,2.8575,2.9316,2.9951,3.0778,3.1534,3.2196,3.2872,3.3468,3.4043,3.4147,3.4292,3.4529,3.4813,3.4944,3.4963,3.5223,3.5354,3.5354,3.5354,3.5354,0.0,3.5354,3.5354,3.533,3.5095,3.5007,3.4911,3.4026,3.3526,3.316,3.2519,3.1821,3.1186,3.1085,3.0753,3.0398,3.0417,3.0532,3.0644,3.0664,3.0617,3.0565,3.0552,3.0544,3.0525,3.0525,3.0487,3.0467,3.0467,3.0467,3.0448,3.0398,3.0349,3.0337,3.0398,3.0241,3.0155,3.0241,3.0182,3.0128,3.0128,3.0128,3.0128,3.0128,3.0196,3.0273,3.0369,3.0489,3.0565,3.0563,3.0086,2.9272,2.8158,2.7575,2.6741,2.5518,2.5493,2.5509,2.5494,2.5467,2.5483,2.5511,2.5466,2.5449,0.0,2.2525,2.2847,2.2509,2.1417,2.0251,1.9481,1.8546,0.0,1.6865,1.6448,1.605,1.5651,1.5299,1.5372,1.6228,1.6354,1.681,0.0,1.8721,0.0,0.0,2.191,0.0,2.3395,2.5216,2.6404,2.651,2.77,2.8685,2.9316,2.9951,3.0754,3.1699,3.2631,3.3302,3.3734,3.4,3.4128,3.4195,3.4508,3.4674,3.4674,3.4944,3.507,0.0,3.507,3.507,3.507,3.4994,3.4992,3.4914,3.4314,3.4057,3.3961,3.3083,3.2295,3.1597,3.1278,3.0819,3.0311,3.0061,3.0136,3.0374,3.0432,3.0481,3.0507,3.056,3.0521,3.0463,3.0451,3.0412,3.0355,3.0355,3.0355,3.0355,3.0355,3.0355,3.0355,3.0355,3.0136,3.0061,3.0299,2.9992,2.9763,2.9954,2.9813,2.9696,2.9696,2.9696,2.9696,2.9696,2.9861,2.9984,2.9984,3.0279,3.0487,3.0487,3.0544,2.9833,2.817,2.8096,2.7268,2.5524,2.5486,2.5498,2.5498,2.5433,2.5439,2.5506,2.5437,2.5444,1.7488,0.0,2.0025,1.8887,1.8776,1.8661,0.0,1.7251,1.6843,1.6055,0.0,1.5003,1.5328,1.5031,1.5269,1.6758,1.7076,1.7414,1.8122,0.0,0.0,2.2359,2.2778,2.3302,2.401,2.4543,2.5287,2.6404,2.7217,2.7951,2.8685,2.9717,3.0534,3.1108,3.1756,3.2533,3.3332,3.34,3.3597,3.3902,3.4171,3.4334,3.4334,3.4655,3.4793,3.4793,3.4793,3.4793,3.4737,3.4074,3.379,3.3733,3.2971,3.2665,3.2571,3.1756,3.1339,3.1056,3.0326,2.9967,2.9848,2.978,2.9815,2.9864,2.9883,3.0136,3.0414,3.0314,3.0214,3.008,2.9931,2.9883,2.9864,2.9864,2.9864,2.9864,2.9864,2.9864,2.9864,2.9864,2.9815,2.978,2.9848,2.9782,2.9713,2.9763,2.9731,2.9696,2.9696,2.9696,2.9696,2.9696,2.9729,2.9763,2.9763,3.0174,3.0417,3.0417,3.0448,2.9698,2.8025,2.7939,2.7131,2.538,2.5409,2.5457,2.5492,2.547,2.5476,2.5495,2.5488,2.5479,1.5435,1.689,1.8353,1.7491,1.7587,1.7689,1.6893,0.0,0.0,0.0,0.0,1.4617,1.4951,1.4865,1.5197,1.6622,1.6946,0.0,0.0,0.0,2.0966,2.2408,2.2567,2.2871,0.0,2.406,2.4794,2.5906,2.6596,2.7419,2.8463,2.9361,3.0117,3.0606,3.0866,3.1638,3.289,3.3075,3.3302,3.3522,3.3839,3.4018,3.4,3.396,3.3923,3.3904,3.3531,3.3362,3.3325,3.2876,3.2669,3.2594,3.1921,3.1637,3.1542,3.0712,3.041,3.0336,2.9757,2.9551,2.957,2.9661,2.9696,2.9696,2.9696,2.988,3.0056,2.9994,2.9921,2.9845,2.9731,2.9696,2.9696,2.9696,2.9696,2.9696,2.9696,2.9696,2.9696,2.9696,2.9626,2.9589,2.9678,2.9514,2.9416,2.9533,2.9456,2.9377,2.9377,2.9377,2.9377,2.9377,2.9494,2.9551,2.9551,2.9883,3.0085,3.0085,3.0085,2.9494,2.8177,2.7854,2.6949,2.5322,2.5341,2.534,2.5258,2.536,2.539,2.5332,2.5406,2.5466,1.4682,1.5917,1.7285,1.6995,1.7113,1.7181,1.6637,0.0,0.0,0.0,0.0,0.0,0.0,1.4925,0.0,0.0,0.0,0.0,1.9404,2.013,2.0831,2.1758,2.2002,0.0,2.3005,2.3708,2.4452,2.5175,2.5807,2.674,2.7957,2.8636,2.9219,2.9838,2.9822,3.0495,3.1964,3.242,3.2715,3.2852,3.3186,3.3368,3.3403,3.2969,3.2753,3.2716,3.2032,0.0,3.1715,3.1626,3.1548,3.1517,3.0921,3.0678,3.0603,2.987,2.9588,2.957,2.9394,2.933,2.9372,2.9551,2.9588,2.9588,2.9588,2.9588,2.9588,2.9588,2.9625,2.9643,2.9607,2.9588,2.9588,2.9588,2.9588,2.9588,2.9588,2.9588,2.9588,2.9588,2.9455,2.9394,2.9551,2.9251,2.9067,2.931,2.9156,2.8994,2.8994,2.8994,2.8994,2.8994,2.916,2.9249,2.9249,2.9359,2.942,2.942,2.9474,2.9072,2.8075,2.7433,2.6499,2.5241,2.5222,2.513,2.4974,2.513,2.5165,2.5069,2.5222,2.5369,1.4636,1.5591,1.6222,1.5728,1.6539,1.723,1.63,0.0,0.0,0.0,0.0,0.0,0.0,1.5942,1.6243,0.0,0.0,1.8899,0.0,0.0,2.1928,2.193,0.0,2.2944,2.3078,2.3185,2.359,2.4408,2.4627,2.5075,2.5916,2.658,2.7186,2.774,2.823,2.8829,2.9534,2.9953,3.0521,3.1245,3.1319,3.1492,3.1751,3.1673,3.1642,3.1648,0.0,3.1464,3.1427,3.0722,3.0446,3.0378,2.9609,2.93,2.9281,2.9171,2.9115,2.9093,2.9067,2.9044,2.9067,2.9093,2.9115,2.9115,2.9115,2.9115,2.9115,2.9115,2.927,2.9394,2.916,2.9115,2.9115,2.9115,2.9115,2.9115,2.9115,2.9115,2.9115,2.9115,2.9089,2.9067,2.9093,2.9044,2.8998,2.9062,2.904,2.8994,2.8994,2.8994,2.8994,2.8994,2.8731,2.8554,2.8554,2.8306,2.8174,2.8174,2.8493,2.7975,2.6427,2.5626,2.5106,2.4888,2.4888,2.4855,2.4828,2.4855,2.4869,2.485,2.4888,2.4993,1.3407,1.453,1.5465,1.477,1.6153,1.7479,1.6506,1.5868,0.0,0.0,0.0,0.0,0.0,0.0,1.573,1.6791,0.0,1.8986,1.9582,2.0404,2.1028,0.0,0.0,2.2628,2.3078,2.2862,2.2967,2.3747,2.3566,2.3751,2.4493,2.5456,2.624,2.6718,2.7299,2.784,2.8349,2.8152,2.8774,3.0198,3.0668,3.0866,3.0784,3.0539,3.0313,3.0134,0.0,2.96,2.9737,2.9373,2.9363,2.9512,2.9122,2.8994,2.8994,2.8994,2.8994,2.8994,2.8994,2.8994,2.8994,2.8994,2.8994,2.8994,2.8994,2.8839,2.8682,2.8682,2.8915,2.9156,2.904,2.8839,2.8725,2.8952,2.87,2.8456,2.8633,2.8533,2.8404,2.8404,2.8404,2.8404,2.8404,2.8404,2.8404,2.8404,2.8404,2.8404,2.8404,2.8404,2.8404,2.8404,2.8255,2.8129,2.8129,2.801,2.772,2.7341,2.7471,2.6972,2.5614,2.5205,2.4951,2.479,2.4804,2.4746,2.4639,2.4746,2.4746,2.4639,2.4746,2.485,1.2681,1.3781,1.4851,1.4427,1.5924,1.7365,1.6796,1.6035,0.0,0.0,0.0,0.0,0.0,1.4766,0.0,1.7501,1.8328,1.8718,1.8701,1.9493,2.0172,2.0366,2.1198,2.2067,2.2689,2.2372,2.2325,2.2919,2.275,2.2773,2.3187,2.4436,2.5303,2.5626,2.6182,2.6747,2.7362,2.6807,2.7402,2.9069,2.9727,2.9951,2.974,2.9375,2.906,2.8787,2.8174,2.8047,2.829,2.829,2.8515,2.8863,2.8863,2.8863,2.8839,2.8767,2.8743,2.8743,2.8743,2.8743,2.8743,2.8743,2.8743,2.8743,2.8743,2.8533,2.829,2.829,2.8489,2.8743,2.8743,2.8515,2.8342,2.8676,2.8308,2.7982,2.8237,2.8075,2.7897,2.7897,2.7897,2.7897,2.7897,2.7897,2.7897,2.7897,2.7897,2.7897,2.7897,2.7897,2.7897,2.7897,2.7811,2.7637,2.7373,2.7297,2.6848,2.5887,2.6073,2.5797,2.4775,2.4741,2.463,2.4435,2.4503,2.4439,2.4192,2.442,2.442,2.4211,2.4351,2.4484,1.3737,1.4113,1.4328,1.505,1.5827,1.656,1.7048,1.6268,0.0,1.6693,0.0,0.0,0.0,1.5146,1.5892,1.8569,1.8479,1.8364,1.9131,0.0,2.0647,1.9873,2.0818,2.155,2.1606,2.1568,2.1599,2.1655,2.2258,2.2369,2.1771,2.3019,2.3743,2.3711,2.4287,2.5091,2.6132,2.6066,2.6521,2.7459,2.7521,2.7735,2.8057,2.8032,2.7996,2.7968,2.7933,2.7926,2.7954,2.7954,2.8129,2.8446,2.8446,2.8446,2.842,2.8075,2.7982,2.7982,2.7982,2.7982,2.7982,2.7982,2.7982,2.7982,2.7982,2.7954,2.7954,2.7954,2.7954,2.7982,2.7982,2.7954,2.7954,2.7982,2.7926,2.7897,2.7926,2.7926,2.7897,2.7897,2.7897,2.7897,2.7897,2.7897,2.7897,2.7897,2.7897,2.7897,2.7897,2.7897,2.7897,2.7897,2.7577,2.6916,2.5856,2.5413,2.458,2.3102,2.4004,2.4211,2.3365,2.333,2.3335,2.331,2.3613,2.3613,2.3305,2.3613,2.3613,2.3305,2.331,2.3563,1.229,1.3049,1.3813,1.4218,1.4787,0.0,0.0,1.6202,1.6307,1.6221,1.6008,0.0,0.0,0.0,1.6098,1.6715,1.7012,1.7332,1.7664,1.8541,1.921,1.932,2.0182,2.1018,2.1493,2.1179,2.0978,2.0978,2.0887,2.091,2.1075,2.1944,2.2757,2.349,2.407,2.4736,2.5503,2.5852,2.6175,2.6505,2.7034,2.7241,2.7147,2.7409,2.7378,2.7147,2.7147,2.7303,2.7547,2.7547,2.7765,2.8075,2.8075,2.8075,2.8075,2.7954,2.7897,2.7897,2.7897,2.7897,2.7897,2.7897,2.7897,2.7897,2.7897,2.7725,2.7547,2.7547,2.7365,2.7272,2.7783,2.7707,2.7589,2.784,2.75,2.721,2.747,2.7317,2.7147,2.7147,2.7147,2.7066,2.679,2.6707,2.659,2.6267,2.6233,2.6233,2.6233,2.6233,2.6233,2.6233,2.5711,2.5344,2.5246,2.3983,2.2947,2.2345,2.2742,2.2706,2.2163,2.239,2.2617,2.281,2.3194,2.3323,2.3189,2.3323,2.3305,2.3189,2.3189,2.331,1.1765,1.2595,1.3628,1.39,0.0,0.0,1.5242,1.57,1.6014,1.5974,1.5574,1.5043,1.4596,0.0,0.0,0.0,1.6123,1.6572,1.6709,1.7328,1.8006,1.8759,1.9436,2.0145,2.0899,2.0614,2.0441,2.0441,2.0232,2.0194,2.0446,2.1438,2.2303,2.2907,2.3553,2.412,2.4617,2.4997,2.5273,2.5435,2.6252,2.6657,2.6691,2.6824,2.6757,2.647,2.6315,2.6471,2.6905,2.6905,2.7206,2.7707,2.7707,2.7601,2.7447,2.7344,2.7203,2.7009,2.6816,2.673,2.6695,2.6485,2.6415,2.6415,2.6415,2.623,2.5993,2.5993,2.5831,2.5749,2.6553,2.6923,2.7129,2.7269,2.6872,2.6488,2.6607,2.642,2.6245,2.6245,2.6245,2.6123,2.5799,2.5742,2.5615,2.5259,2.5221,2.5221,2.5221,2.5221,2.5141,2.4916,2.4452,2.4184,2.4095,2.2728,2.18,2.1561,2.141,2.1356,2.1334,2.1606,2.1864,2.2084,2.26,2.2788,2.2703,2.293,2.3014,2.2908,2.2908,2.2965,1.2567,1.308,1.3812,0.0,0.0,0.0,1.5118,1.468,1.4635,1.6154,1.5224,1.435,1.5254,1.4717,0.0,1.584,1.6055,1.6211,1.666,1.6941,1.7467,1.82,1.8533,1.8992,1.9695,1.9798,1.9798,1.9798,2.0396,2.0497,1.9837,2.1615,2.2377,2.173,2.2338,2.2925,2.3367,2.3406,2.3676,2.42,2.4868,2.5693,2.6657,2.6191,2.5997,2.5961,2.5411,2.5486,2.598,2.598,2.6488,2.7269,2.7269,2.6948,2.6421,2.609,2.5635,2.5109,2.4441,2.42,2.4072,2.3417,2.3192,2.3192,2.3192,2.3192,2.3192,2.3192,2.3192,2.3353,2.4007,2.5419,2.6556,2.6104,2.5997,2.5852,2.5297,2.5166,2.5205,2.5205,2.5205,2.5205,2.5166,2.5166,2.5166,2.5166,2.5166,2.5166,2.515,2.515,2.4894,2.4227,2.4147,2.3622,2.2194,2.172,2.1159,2.0326,1.9909,2.0085,2.0959,2.0991,2.0991,2.0991,2.1724,2.1943,2.1598,2.2334,2.2563,2.2282,2.2282,2.2436,1.1818,1.2455,0.0,1.3509,0.0,0.0,0.0,1.5479,0.0,0.0,1.5841,1.5381,1.5039,1.5,0.0,1.5146,1.4932,1.498,1.5662,1.5367,1.5566,1.691,1.7557,1.8232,1.8927,1.9475,1.9648,1.9284,1.9396,1.9451,1.93,1.9865,2.0274,2.0556,2.114,2.1513,2.1662,2.2347,2.2767,2.2954,2.3526,2.4442,2.5635,2.5486,2.519,2.4705,2.4558,2.4305,2.4032,2.4032,2.419,2.4413,2.4413,2.4329,2.4158,2.4067,2.3926,2.3751,2.3578,2.3513,2.3465,2.3256,2.3192,2.3192,2.3192,2.3192,2.3192,2.3192,2.3192,2.324,2.3449,2.387,2.4433,2.526,2.5449,2.5373,2.5221,2.482,2.4484,2.4484,2.412,2.3818,2.3896,2.3936,2.3834,2.3483,2.3442,2.3138,2.2259,2.1857,2.1657,2.1879,2.1464,2.1159,2.1121,2.0227,1.9568,1.9325,1.8841,1.9029,2.0035,2.0364,2.0516,2.0516,2.1054,2.129,2.1181,2.1685,2.1744,2.1385,2.1675,2.1702,1.2385,1.2931,0.0,1.4006,1.4485,1.4821,1.477,0.0,0.0,0.0,1.5674,1.5449,1.5098,1.5107,0.0,1.4639,1.4655,1.4746,1.4874,1.4615,1.4907,1.6144,1.6471,1.7039,1.8045,1.8529,1.8772,1.867,1.8694,1.8674,1.8714,1.895,1.9297,1.9666,2.0006,2.0172,2.0172,2.0778,2.121,2.1394,2.1812,2.2632,2.3795,2.4011,2.3887,2.3491,2.3491,2.3253,2.2893,2.3122,2.3192,2.3192,2.3192,2.2964,2.2608,2.2608,2.2335,2.195,2.1659,2.1568,2.1522,2.1262,2.117,2.117,2.117,2.117,2.117,2.117,2.117,2.1231,2.1506,2.1568,2.1993,2.3689,2.4087,2.3995,2.3592,2.3149,2.2817,2.2592,2.2255,2.2002,2.2084,2.2103,2.201,2.1695,2.1653,2.1381,2.0698,2.0302,2.0133,2.0198,1.9843,1.9609,1.9657,1.9003,1.8574,1.8574,1.8302,1.838,1.9043,1.931,1.9426,1.9426,1.9873,2.0234,2.0418,2.062,2.0718,2.0684,2.0927,2.0927,1.3598,0.0,0.0,1.5168,1.4741,0.0,1.4075,1.4634,1.5139,1.5157,0.0,1.4848,1.5216,1.5041,1.4725,1.4223,1.4758,1.4983,1.4223,1.4383,1.4873,1.5664,1.5448,1.5687,1.6973,1.723,1.7509,1.7987,1.8081,1.8103,1.8053,1.8591,1.8869,1.8869,1.8915,1.8921,1.8921,1.9003,1.9262,1.976,1.9866,2.0469,2.1461,2.2026,2.2254,2.2229,2.2167,2.2136,2.2174,2.2631,2.2808,2.2808,2.2757,2.2201,2.1365,2.1365,2.0727,1.9822,1.9197,1.9003,1.8906,1.8325,1.8106,1.8106,1.8106,1.8106,1.8106,1.8106,1.8106,1.823,1.885,1.9003,1.9537,2.1538,2.2101,2.1926,2.1015,2.0779,2.0597,2.0118,1.9948,1.9934,1.9989,1.9989,1.9989,1.9989,1.9905,1.982,1.982,1.9777,1.9556,1.8934,1.8921,1.87,1.8068,1.8027,1.8027,1.8027,1.7987,1.7947,1.7947,1.8066,1.8106,1.8106,1.8517,1.8993,1.9462,1.9394,1.9592,2.007,2.0138,2.0138,1.2672,1.3034,0.0,0.0,1.3546,1.2958,1.3268,1.3061,1.2946,1.3425,1.3963,1.435,1.4433,1.4915,1.4965,1.4029,1.3926,1.3816,1.3385,1.3323,1.3597,1.4365,1.4892,1.5329,1.5636,1.6665,1.7159,1.6821,1.7297,1.7363,1.6911,1.6992,1.7079,1.7079,1.7479,1.7691,1.7691,1.8085,1.8379,1.8498,1.8517,1.8852,1.9546,2.0709,2.1154,2.1024,2.0503,2.0276,2.0276,1.996,1.9834,1.9782,1.9339,1.9045,1.8863,1.8863,1.8719,1.8519,1.8381,1.8339,1.8311,1.8147,1.8106,1.8106,1.8106,1.8106,1.8106,1.8106,1.8106,1.8133,1.8297,1.8339,1.8446,1.8914,1.9829,2.0528,2.033,1.9852,1.946,1.9336,1.8906,1.8685,1.9197,1.9336,1.9336,1.9336,1.8507,1.7891,1.7891,1.7525,1.7243,1.7059,1.7455,1.7637,1.7476,1.7463,1.7463,1.7463,1.7076,1.6837,1.6837,1.7666,1.8106,1.8106,1.821,1.8313,1.843,1.8754,1.9016,1.9185,1.957,1.9763,1.2354,0.0,0.0,1.3503,0.0,1.2501,1.2543,1.2022,1.1518,1.1419,1.2372,1.3301,1.3588,1.3759,1.3639,1.2963,1.288,1.2819,1.2546,1.2644,1.2975,1.3723,1.3992,1.4204,1.4482,1.546,1.6022,1.6016,1.6626,1.6835,1.6534,1.6522,1.6522,1.6522,1.6752,1.6909,1.6909,1.7188,1.7463,1.7706,1.7463,1.7626,1.8159,1.9387,1.9753,1.9435,1.9075,1.893,1.8893,1.8612,1.8535,1.8496,1.8224,1.7947,1.7706,1.7706,1.7544,1.7353,1.7353,1.7353,1.7353,1.7353,1.7353,1.7353,1.7353,1.712,1.6886,1.6886,1.6705,1.6536,1.6844,1.6886,1.697,1.7258,1.8275,1.9059,1.8808,1.8465,1.8166,1.7916,1.7552,1.7446,1.7779,1.7845,1.7845,1.7845,1.73,1.6909,1.6909,1.668,1.638,1.6095,1.657,1.6811,1.6489,1.6769,1.6909,1.6909,1.6637,1.6522,1.6522,1.7034,1.7353,1.7353,1.7353,1.7463,1.7706,1.7706,1.7866,1.8145,1.8377,1.866,1.1821,0.0,1.1985,1.3125,1.2819,0.0,1.181,1.1114,1.0348,0.9697,1.0782,1.2086,1.2749,1.2474,1.2061,1.1875,1.2041,1.2079,1.1768,1.2219,1.2768,1.3348,1.3096,1.3113,1.36,1.4201,1.4778,1.541,1.6008,1.638,1.6466,1.6522,1.6522,1.6522,1.6522,1.6522,1.6522,1.6522,1.671,1.7146,1.6795,1.6837,1.7188,1.8185,1.8419,1.8106,1.8106,1.8106,1.8106,1.7987,1.7947,1.7947,1.7867,1.7544,1.7146,1.7146,1.6879,1.6522,1.6522,1.6423,1.6324,1.6324,1.6281,1.6194,1.6194,1.5832,1.5454,1.5454,1.5107,1.4789,1.532,1.5454,1.5555,1.6064,1.6883,1.7436,1.7216,1.7146,1.6993,1.6454,1.625,1.6194,1.6194,1.6194,1.6194,1.6194,1.6194,1.6194,1.6194,1.6194,1.6008,1.5499,1.5876,1.5964,1.5499,1.6008,1.6324,1.6324,1.6423,1.6522,1.6522,1.6522,1.6522,1.6522,1.6522,1.671,1.7146,1.671,1.6795,1.7312,1.7312,1.7585,0.0,0.0,1.2037,0.0,1.1972,1.1006,0.0,0.0,0.9025,0.0,1.0082,1.1295,1.1958,1.2078,1.1986,1.1589,1.2043,1.2088,1.1106,1.2059,1.2861,1.2959,1.291,1.2929,1.3017,1.3552,1.419,1.4789,1.5365,1.5964,1.6466,1.6522,1.6522,1.6522,1.6522,1.6522,1.6522,1.6522,1.6552,1.6595,1.6993,1.6993,1.6637,1.7229,1.7747,1.8106,1.8106,1.8106,1.8066,1.7585,1.7435,1.7353,1.6909,1.668,1.6595,1.6595,1.6552,1.6522,1.6522,1.6151,1.572,1.572,1.5365,1.4926,1.4926,1.488,1.4835,1.4835,1.4744,1.4709,1.4789,1.4835,1.4835,1.4926,1.505,1.541,1.6411,1.6595,1.6411,1.582,1.5287,1.4926,1.4926,1.4926,1.4926,1.4926,1.4926,1.4926,1.4926,1.4926,1.4926,1.4835,1.488,1.4926,1.4835,1.5365,1.572,1.572,1.6194,1.6522,1.6522,1.6522,1.6522,1.6522,1.6522,1.6552,1.6595,1.6522,1.6795,1.7312,1.7312,1.7585,0.9101,1.0691,1.2006,0.0,1.1841,1.0813,1.0813,0.0,0.8804,0.8804,0.9267,0.993,1.0608,1.0463,1.0417,1.1034,1.1061,1.1071,1.1309,1.1891,1.2452,1.2832,1.2881,1.2881,1.2881,1.3467,1.405,1.4652,1.5276,1.5864,1.6466,1.6522,1.6522,1.6522,1.6522,1.6522,1.6522,1.6522,1.6522,1.6522,1.6752,1.671,1.6522,1.6752,1.6993,1.7188,1.7188,1.7188,1.7188,1.6951,1.6837,1.6782,1.6225,1.6008,1.5964,1.5611,1.5478,1.5478,1.5478,1.5332,1.5096,1.5096,1.4926,1.4698,1.4698,1.4468,1.419,1.419,1.3978,1.3752,1.4097,1.419,1.4283,1.4606,1.4698,1.4846,1.5389,1.5478,1.5421,1.5152,1.488,1.4698,1.4698,1.4698,1.4698,1.4698,1.4698,1.4698,1.4698,1.4698,1.456,1.4236,1.4514,1.456,1.4236,1.4732,1.5096,1.5096,1.5332,1.5478,1.5478,1.5832,1.6008,1.6008,1.6008,1.6151,1.6522,1.6151,1.6312,1.6837,1.6837,1.7146,0.0,0.0,1.084,1.1811,1.1151,1.0318,0.0,0.0,0.8804,0.0,0.8804,0.8956,0.9465,0.9159,0.9263,1.0568,1.0364,1.0474,1.1642,1.1981,1.2286,1.2822,1.2881,1.2881,1.2881,1.3467,1.405,1.4652,1.5276,1.5864,1.6466,1.6522,1.6522,1.6522,1.6522,1.6522,1.6522,1.6522,1.6522,1.6522,1.6324,1.6281,1.6281,1.6107,1.6064,1.6064,1.638,1.6423,1.6281,1.6281,1.6194,1.602,1.5555,1.5365,1.532,1.488,1.4698,1.4698,1.4698,1.4606,1.4468,1.4468,1.4387,1.4247,1.4247,1.392,1.3552,1.3552,1.3238,1.3017,1.3467,1.3552,1.3684,1.4154,1.4247,1.434,1.4606,1.456,1.4468,1.4468,1.434,1.4247,1.4247,1.4247,1.4247,1.4247,1.4247,1.4247,1.4247,1.4247,1.4061,1.36,1.3967,1.4061,1.36,1.4097,1.4468,1.4468,1.4617,1.4698,1.4698,1.5141,1.5365,1.5365,1.5365,1.5732,1.6522,1.6051,1.6051,1.6522,1.6522,1.671,0.0,0.7301,0.0,0.9285,0.9338,0.0,0.0,0.0,0.8804,0.8804,0.8804,0.8804,0.8857,0.8804,0.9263,1.0568,1.0762,1.1015,1.1715,1.2393,1.2881,1.2881,1.2881,1.2881,1.2881,1.3467,1.405,1.4652,1.5276,1.5864,1.6466,1.6522,1.6522,1.6522,1.6522,1.6522,1.6522,1.6522,1.6522,1.6466,1.5908,1.5632,1.5632,1.5062,1.4789,1.4846,1.602,1.6194,1.5632,1.5632,1.532,1.4789,1.4755,1.4744,1.4744,1.4698,1.4698,1.4698,1.4698,1.4329,1.3862,1.3862,1.3467,1.2968,1.2968,1.2978,1.2978,1.2978,1.2929,1.2929,1.2929,1.2978,1.2978,1.2978,1.2968,1.3296,1.4433,1.4236,1.3862,1.3862,1.3372,1.2968,1.2968,1.2968,1.2968,1.2968,1.2968,1.2968,1.2968,1.2968,1.2968,1.2978,1.2968,1.2968,1.2978,1.3515,1.3862,1.3862,1.4376,1.4698,1.4698,1.4744,1.4744,1.4744,1.4744,1.5344,1.6522,1.6466,1.6466,1.6522,1.6522,1.6522,0.0,0.0,0.0,0.8848,0.936,0.9448,0.9166,0.9283,0.9309,0.891,0.8804,0.8804,0.8804,0.8804,0.9263,1.0568,1.0813,1.1225,1.2353,1.2715,1.2881,1.2881,1.2881,1.2881,1.2881,1.3113,1.3467,1.4097,1.4318,1.4687,1.5287,1.5332,1.5332,1.5332,1.5332,1.5332,1.5332,1.5332,1.5332,1.5344,1.5152,1.5017,1.5017,1.4789,1.4698,1.4698,1.5152,1.5197,1.5017,1.5017,1.488,1.4663,1.4283,1.4097,1.4097,1.3705,1.3515,1.3515,1.3515,1.3382,1.3238,1.3238,1.3055,1.2881,1.2881,1.2881,1.2881,1.2881,1.2881,1.2881,1.2881,1.2881,1.2881,1.2881,1.2881,1.3017,1.343,1.3382,1.3238,1.3238,1.3065,1.2881,1.2881,1.2881,1.2881,1.2881,1.2881,1.2881,1.2881,1.2881,1.2881,1.2881,1.2881,1.2881,1.2881,1.3113,1.3238,1.3238,1.343,1.3515,1.3515,1.3931,1.4097,1.4097,1.4514,1.5107,1.5908,1.5908,1.6139,1.6522,1.6522,1.6522,0.6178,0.0,0.0,0.0,0.0,0.859,0.8892,0.0,0.9338,0.9264,0.9386,0.9458,0.9458,0.9263,0.9413,1.0312,1.0661,1.1225,1.2353,1.2725,1.2881,1.2881,1.2881,1.2881,1.2881,1.3055,1.3372,1.3768,1.4003,1.4283,1.4698,1.4698,1.4698,1.4698,1.4698,1.4698,1.4698,1.4698,1.4698,1.4698,1.4468,1.4376,1.4376,1.4201,1.4118,1.4118,1.4118,1.4201,1.4376,1.4376,1.4294,1.4071,1.3647,1.3505,1.3467,1.3065,1.2881,1.2881,1.2881,1.2881,1.2881,1.2881,1.2881,1.2881,1.2881,1.2881,1.2881,1.2881,1.2881,1.2881,1.2881,1.2881,1.2881,1.2881,1.2881,1.2881,1.2881,1.2881,1.2881,1.2881,1.2881,1.2822,1.2559,1.2725,1.2822,1.2559,1.2725,1.2881,1.2881,1.2881,1.2881,1.2881,1.2881,1.2881,1.2881,1.2881,1.2881,1.2881,1.2881,1.2881,1.2881,1.3286,1.3505,1.3505,1.4107,1.4606,1.5005,1.5186,1.5599,1.6194,1.6194,1.6293,0.0,0.0,0.0,0.0,0.0,0.0,0.8536,0.0,0.8803,0.9914,1.0475,1.0721,1.0797,1.0261,0.9814,0.9814,1.0364,1.1065,1.1715,1.2452,1.2881,1.2881,1.2881,1.2881,1.2881,1.342,1.3768,1.3768,1.4329,1.4663,1.4663,1.4663,1.4663,1.4663,1.4663,1.4663,1.4663,1.4663,1.4663,1.4652,1.405,1.3768,1.3732,1.3152,1.2881,1.2881,1.2881,1.3238,1.3721,1.3768,1.342,1.2881,1.2881,1.2881,1.2881,1.2832,1.2881,1.2881,1.2881,1.2881,1.2881,1.2881,1.2881,1.2881,1.2881,1.2881,1.2881,1.2881,1.2881,1.2881,1.2881,1.2881,1.2881,1.2881,1.2881,1.2881,1.2881,1.2881,1.2881,1.2881,1.2881,1.2666,1.1972,1.2452,1.2666,1.1922,1.2452,1.2881,1.2881,1.2881,1.2881,1.2881,1.2881,1.2881,1.2881,1.2881,1.2881,1.2881,1.2881,1.2881,1.2881,1.2881,1.2881,1.2881,1.3457,1.3768,1.3768,1.4422,1.5017,1.5588,1.5632,1.5952,0.5195,0.0,0.0,0.0,0.0,0.0,0.0,0.0,0.8359,0.9084,0.9366,0.963,1.0238,1.0448,1.0517,1.0517,1.0661,1.1225,1.2412,1.2774,1.2881,1.2881,1.2881,1.2881,1.2881,1.3065,1.3152,0.0,1.3286,1.3382,1.3382,1.3382,1.3382,1.3382,1.3382,1.3382,1.3382,1.3382,1.3382,1.3382,1.3248,1.3152,1.3152,1.2968,1.2618,1.2129,1.2666,1.2696,1.2404,1.2939,1.3065,1.2832,1.2295,1.2452,1.2774,1.1742,1.2049,1.2822,1.2295,1.2452,1.2881,1.2881,1.2559,1.208,1.208,1.208,1.208,1.208,1.2501,1.2774,1.2236,1.208,1.208,1.208,1.2501,1.2881,1.2881,1.2881,1.2881,1.2881,1.2881,1.2822,1.2618,1.2774,1.2832,1.2618,1.2774,1.2881,1.2881,1.2881,1.2881,1.2881,1.2881,1.2881,1.2881,1.2881,1.2881,1.2881,1.2881,1.2881,1.2881,1.2881,1.2881,1.2881,1.3055,1.3152,1.3152,1.4641,1.5454,1.5632,1.6051,1.6337,0.0,0.0,0.0,0.0,0.0,0.0,0.7478,0.7675,0.8007,0.0,0.949,0.99,1.0391,1.0599,1.0862,1.1319,1.1141,1.1291,1.2325,1.2715,1.2881,1.2881,1.2881,1.2881,1.2881,1.2881,1.2881,1.2881,1.2881,1.2881,1.2881,1.2881,1.2881,1.2881,1.2881,1.2881,1.2881,1.2881,1.2881,1.2881,1.2881,1.2881,1.2881,1.2881,1.2666,1.2286,1.2715,1.2666,1.2295,1.2715,1.2881,1.2832,1.208,1.2236,1.2774,1.1625,1.194,1.2822,1.2403,1.2559,1.2881,1.2881,1.2393,1.1814,1.1814,1.1616,1.1366,1.1366,1.1683,1.194,1.1466,1.1366,1.1366,1.1366,1.1733,1.1999,1.1999,1.1999,1.2206,1.2774,1.2881,1.2774,1.2501,1.2715,1.2774,1.2501,1.2715,1.2881,1.2881,1.2881,1.2881,1.2881,1.2881,1.2881,1.2881,1.2881,1.2881,1.2881,1.2881,1.2881,1.2881,1.2881,1.2881,1.2881,1.2881,1.3017,1.3286,1.4318,1.5096,1.5632,1.6238,1.6522,0.0,0.0,0.0,0.0,0.0,0.0,0.8248,0.7978,0.7666,0.0,0.9951,1.0518,1.0605,1.0545,1.08,1.174,1.1481,1.132,1.1849,1.2501,1.2881,1.2881,1.2881,1.2881,1.2881,1.2881,1.2881,1.2881,1.2881,1.2881,1.2881,1.2881,1.2881,1.2881,1.2881,1.2881,1.2881,1.2881,1.2881,1.2881,1.2881,1.2881,1.2881,1.2881,1.2832,1.2676,1.2774,1.2676,1.2569,1.2627,1.2774,1.2832,1.208,1.2187,1.2676,1.1981,1.2089,1.2676,1.2676,1.2676,1.2676,1.2676,1.2197,1.1566,1.1566,1.1166,1.0712,1.0762,1.0771,1.0669,1.0669,1.0669,1.0669,1.0669,1.0771,1.0813,1.0813,1.0813,1.1174,1.2412,1.2676,1.2461,1.1814,1.2246,1.2452,1.1774,1.2246,1.2676,1.2676,1.2725,1.2774,1.2774,1.2832,1.2881,1.2881,1.2881,1.2881,1.2881,1.2881,1.2881,1.2881,1.2881,1.2881,1.2881,1.2881,1.32,1.3815,1.3815,1.4411,1.5632,1.6139,1.6423,0.0,0.0,0.0,0.0,0.0,0.0,0.7034,0.7017,0.724,0.0,0.7725,0.8057,0.875,0.9384,0.9877,1.0079,1.0591,1.1378,1.2503,1.2822,1.2881,1.2881,1.2881,1.2881,1.2881,1.2881,1.2881,1.2881,1.2881,1.2881,1.2881,1.2881,1.2881,1.2881,1.2881,1.2881,1.2881,1.2881,1.2881,1.2881,1.2881,1.2881,1.2881,1.2881,1.2255,1.1225,1.1774,1.1375,1.0431,1.0981,1.19,1.2832,1.208,1.1882,1.195,1.1275,1.1074,1.1225,1.1225,1.1225,1.1225,1.1225,1.0771,1.021,1.021,1.0115,1.0115,1.0669,1.0415,1.0012,1.0012,1.0012,1.0012,1.0012,1.0415,1.0813,1.0813,1.0813,1.0872,1.1174,1.1225,1.1174,1.1015,1.1124,1.1174,1.1015,1.1124,1.1225,1.1225,1.1674,1.2021,1.2021,1.2559,1.2881,1.2881,1.2881,1.2881,1.2881,1.2881,1.2881,1.2881,1.2881,1.2881,1.2881,1.2881,1.32,1.3815,1.3815,1.4411,1.5588,1.572,1.6051,0.0,0.0,0.0,0.8418,0.0,0.0,0.0,0.7393,0.7227,0.7656,0.7559,0.7617,0.8262,0.8721,0.9072,0.9287,1.0039,1.083,1.1494,1.2168,1.262,1.262,1.2791,1.2964,1.2933,1.2953,1.2959,1.291,1.2881,1.2881,1.2881,1.2881,1.2881,1.2881,1.2881,1.2881,1.2881,1.2559,1.2344,1.2344,1.1999,1.1841,1.1841,1.1841,1.1484,1.0813,1.1166,1.0914,1.0312,1.0661,1.1225,1.1792,1.1074,1.1023,1.1233,1.0568,1.0517,1.0813,1.0813,1.0813,1.0813,1.0813,1.0364,0.9814,0.9814,0.9562,0.9361,0.9718,0.9562,0.9309,0.9309,0.9309,0.9309,0.9309,0.9562,0.9814,0.9814,0.9814,0.9814,0.9814,0.9814,1.0012,1.0661,1.0813,1.0813,1.0813,1.0813,1.0813,1.0813,1.1116,1.1316,1.1316,1.1931,1.2344,1.2344,1.2666,1.2881,1.2881,1.2881,1.2881,1.2881,1.2881,1.2881,1.2881,1.2881,1.32,1.3815,1.3815,1.4411,1.5588,1.5588,1.5908,0.0,0.0,0.0,0.0,0.0,0.8357,0.0,0.0,0.0,0.0,0.0,0.0,0.0,0.0,0.0,0.0,0.0,0.0,0.0,1.0858,0.0,1.1892,1.2402,1.2731,1.2738,1.2652,1.2617,1.2635,1.2549,1.2578,1.2744,1.2832,1.2822,1.2666,1.2666,1.2618,1.251,1.1882,1.1616,1.1616,1.1065,1.0813,1.0813,1.0813,1.072,1.0618,1.0618,1.0517,1.0415,1.0415,1.0415,1.0364,1.0115,1.0269,1.0568,1.0167,1.0167,1.0415,1.0568,1.0517,1.0415,1.0415,1.0064,0.9614,0.9614,0.9211,0.8804,0.8804,0.8804,0.8804,0.8804,0.8804,0.8804,0.8804,0.8804,0.8804,0.8804,0.8804,0.8804,0.8804,0.891,0.9309,1.0261,1.0415,1.0466,1.0568,1.0618,1.0661,1.0762,1.0914,1.1015,1.1015,1.1625,1.2021,1.2021,1.2559,1.2881,1.2881,1.2881,1.2881,1.2881,1.2881,1.2881,1.2881,1.2881,1.32,1.3815,1.3815,1.4411,1.5588,1.5588,1.5908,0.0,0.0,0.0,0.0,0.9814,0.0,0.0,0.0,0.796,0.6855,0.0,0.0,0.0,0.0,0.0,0.0,0.0,0.0,0.752,0.8613,0.9711,1.0438,1.1305,1.1857,1.1869,1.1452,1.1377,1.1738,1.1357,1.1475,1.2266,1.2666,1.2608,1.1972,1.1913,1.1625,1.1015,1.0965,1.0914,1.0914,1.0864,1.0813,1.0813,1.0813,1.0466,0.9909,0.9909,0.9562,0.9008,0.9008,0.9008,0.9159,1.0261,1.0364,0.9961,1.0517,0.9961,0.9106,0.9718,0.951,0.9008,0.9008,0.8956,0.891,0.891,0.8857,0.8804,0.8804,0.8804,0.8804,0.8804,0.8804,0.8804,0.8804,0.8804,0.8804,0.8804,0.8804,0.8804,0.8804,0.9263,0.9562,0.9113,0.9008,0.9211,0.9814,0.9909,1.0115,1.0712,1.1316,1.1665,1.1665,1.2344,1.2774,1.2774,1.2832,1.2881,1.2881,1.2881,1.2881,1.2881,1.2881,1.2881,1.2881,1.2881,1.32,1.3815,1.3815,1.4411,1.5588,1.5588,1.5908,0.0,0.0,0.0,0.0,0.0,0.0,0.8409,0.0,0.791,0.0,0.0,0.0,0.0,0.0,0.0,0.0,0.6943,0.0,0.0,0.0,0.8368,0.0,0.0,0.0,1.1229,1.0876,1.0865,1.1538,1.0928,1.1035,1.2122,1.2402,1.2464,1.2442,1.203,1.1665,1.1366,1.0618,1.0218,1.0218,0.9814,0.9666,0.9666,0.9666,0.9465,0.9211,0.9211,0.9061,0.8804,0.8804,0.8804,0.8857,0.9413,0.9465,0.9263,0.951,0.9263,0.8857,0.9106,0.9061,0.8804,0.8804,0.8804,0.8804,0.8804,0.8804,0.8804,0.8804,0.8804,0.8804,0.8804,0.8804,0.8804,0.8804,0.8804,0.8804,0.8804,0.8804,0.891,0.9316,0.9614,0.9814,0.9969,0.9961,1.0064,1.0364,1.0364,1.0466,1.0762,1.1065,1.1216,1.1216,1.1832,1.2236,1.2236,1.2666,1.2881,1.2881,1.2881,1.2881,1.2881,1.2881,1.2881,1.2881,1.2881,1.3382,1.4329,1.4329,1.496,1.6095,1.5764,1.5908,1.0274,0.0,0.0,0.0,0.0,0.0,0.0,0.0,0.0,0.0,0.0,0.0,0.0,0.0,0.0,0.0,0.0,0.6855,0.0,0.6445,0.0,0.0,0.0,0.0,0.0,1.0021,1.0029,1.0989,1.0244,1.0381,1.1752,1.2054,1.2279,1.2436,1.2024,1.1616,1.1266,1.0269,0.9718,0.951,0.9008,0.8804,0.8804,0.8804,0.8804,0.8804,0.8804,0.8804,0.8804,0.8804,0.8804,0.8804,0.8804,0.8804,0.8804,0.8804,0.8804,0.8804,0.8804,0.8804,0.8804,0.8804,0.8804,0.8804,0.8804,0.8804,0.8804,0.8804,0.8804,0.8804,0.8804,0.8804,0.8857,0.9008,0.9061,0.9113,0.9316,0.9361,0.951,0.9961,1.0218,1.0517,1.1015,1.0914,1.0864,1.1065,1.1065,1.1174,1.1325,1.1384,1.1384,1.1384,1.1922,1.2295,1.2295,1.278,1.3008,1.2891,1.2881,1.2881,1.2881,1.2881,1.2968,1.3152,1.3152,1.3742,1.4971,1.4971,1.5466,1.6479,1.6051,1.6095,0.0,0.0,0.0,0.931,0.0,0.0,0.0,0.0,0.8848,0.0,0.0,0.0,0.0,0.0,0.0,0.0,0.0,0.0,0.0,0.0,0.0,0.0,0.0,0.0,0.0,0.8603,0.8369,0.9561,0.8916,0.917,1.0859,1.1723,1.1892,1.1255,1.1616,1.1166,0.9865,0.9814,0.9458,0.8857,0.8804,0.8804,0.8804,0.8804,0.8804,0.8804,0.8804,0.8804,0.8804,0.8804,0.8804,0.8804,0.8804,0.8804,0.8804,0.8804,0.8804,0.8804,0.8804,0.8804,0.8804,0.8804,0.8804,0.8804,0.8804,0.8804,0.8804,0.8804,0.8804,0.8804,0.8804,0.8804,0.8956,0.9614,0.9762,0.9969,1.0618,1.0762,1.0762,1.0762,1.1316,1.1765,1.1765,1.1216,1.1015,1.1665,1.1765,1.203,1.2725,1.2832,1.2832,1.2832,1.3192,1.3435,1.3435,1.3486,1.3311,1.291,1.2881,1.2881,1.2881,1.2881,1.3152,1.3779,1.3768,1.4365,1.5588,1.5588,1.5908,1.6522,1.6466,1.6466,0.0,0.0,0.9592,0.9288,0.0,0.0,0.0,0.0,0.0,0.0,0.0,0.0,0.0,0.0,0.0,0.0,0.0,0.0,0.0,0.0,0.0,0.0,0.0,0.0,0.0,0.0,0.0,0.8721,0.8271,0.8691,1.04,1.1318,1.1824,1.1873,1.1819,1.1566,1.1116,1.0269,0.9666,0.9465,0.9008,0.8804,0.8804,0.8804,0.8804,0.8804,0.8804,0.8804,0.8804,0.8804,0.8804,0.8804,0.8804,0.8804,0.8804,0.8804,0.8804,0.8804,0.8804,0.8804,0.8804,0.8804,0.8804,0.8804,0.8804,0.8804,0.8804,0.8804,0.8804,0.8804,0.8804,0.8804,0.8857,0.9061,0.9159,0.9211,0.9413,0.9458,0.9614,1.0064,1.0312,1.0762,1.1665,1.1616,1.1724,1.2403,1.251,1.2608,1.2881,1.2881,1.2988,1.3271,1.3418,1.3623,1.3844,1.3662,1.3447,1.3301,1.3037,1.2881,1.2881,1.2881,1.3027,1.32,1.319,1.36,1.4411,1.4824,1.532,1.5908,1.6324,1.6522,0.9368,0.9308,0.0,0.9147,0.8824,0.0,0.8301,0.0,0.9052,0.0,0.0,0.0,0.0,0.0,0.0,0.0,0.0,0.0,0.0,0.5547,0.0,0.0,0.0,0.0,0.0,0.0,0.7119,0.8322,0.7978,0.8376,0.0,1.1057,1.1734,1.1982,1.2101,1.1931,1.1466,1.0568,0.9917,0.9465,0.9008,0.8804,0.8804,0.8804,0.8804,0.8804,0.8804,0.8804,0.8804,0.8804,0.8804,0.8804,0.8804,0.8804,0.8804,0.8804,0.8804,0.8804,0.8804,0.8804,0.8804,0.8804,0.8804,0.8804,0.8804,0.8804,0.8804,0.8804,0.8804,0.8804,0.8804,0.8804,0.8857,0.9113,0.9159,0.9211,0.9465,0.951,0.9666,1.0064,1.0364,1.0762,1.1665,1.203,1.2344,1.2832,1.2881,1.2881,1.2881,1.2881,1.3037,1.3467,1.3643,1.3906,1.4326,1.4121,1.3828,1.3525,1.3252,1.3037,1.2891,1.2881,1.3113,1.3515,1.3525,1.3931,1.4778,1.5152,1.5555,1.5908,1.6337,1.6522]},{"header":{"parameterUnit":"m.s-1","parameterCategory":1,"la1":30.6,"la2":29.2853,"lo1":-89.7004,"lo2":-87.6739,"dy":0.0162,"dx":0.0183,"nx":112,"ny":82,"refTime":"2024-09-28T06:00:00:Z","depth":0,"parameterNumber":3,"parameterNumberName":"V-component_of_WINDS"},"data":[0.0,0.0,0.0,0.0,0.0,0.0,0.0,0.0,0.0,0.0,0.0,0.0,0.0,0.0,0.0,0.0,0.0,0.0,0.0,0.0,0.0,0.0,0.0,0.0,0.0,0.0,0.0,0.0,0.0,0.0,0.0,0.0,0.0,0.0,0.0,0.0,0.0,0.0,0.0,0.0,0.0,0.0,0.0,0.0,0.0,0.0,0.0,0.0,0.0,0.0,0.0,0.0,0.0,0.0,0.0,0.0,0.0,0.0,0.0,0.0,0.0,0.0,0.0,0.0,0.0,0.0,0.0,0.0,0.0,0.0,0.0,0.0,0.0,0.0,0.0,0.0,0.0,0.0,0.0,0.0,0.0,0.0,0.0,0.0,0.0,0.0,0.0,0.0,0.0,0.0,-1.3952,-1.6479,-1.8593,-1.9371,-1.8292,-1.8204,-1.6823,-1.3523,0.0,0.0,0.0,0.0,0.0,0.0,0.0,0.0,0.0,0.0,0.0,0.0,0.0,0.0,0.0,0.0,0.0,0.0,0.0,0.0,0.0,0.0,0.0,0.0,0.0,0.0,0.0,0.0,0.0,0.0,0.0,0.0,0.0,0.0,0.0,0.0,0.0,0.0,0.0,0.0,0.0,0.0,0.0,0.0,0.0,0.0,0.0,0.0,0.0,0.0,0.0,0.0,0.0,0.0,0.0,0.0,0.0,0.0,0.0,0.0,0.0,0.0,0.0,0.0,0.0,0.0,0.0,0.0,0.0,0.0,0.0,0.0,0.0,0.0,0.0,0.0,0.0,0.0,0.0,0.0,0.0,0.0,0.0,0.0,0.0,0.0,0.0,0.0,0.0,0.0,0.0,0.0,0.0,0.0,0.0,0.0,0.0,0.0,0.0,0.0,0.0,0.0,0.0,0.0,-1.4362,-1.7614,-1.9058,-1.9371,-1.8292,-1.8204,-1.6986,-1.4135,0.0,0.0,0.0,0.0,0.0,0.0,0.0,0.0,0.0,0.0,0.0,0.0,0.0,0.0,0.0,0.0,0.0,0.0,0.0,0.0,0.0,0.0,0.0,0.0,0.0,0.0,0.0,0.0,0.0,0.0,0.0,0.0,0.0,0.0,0.0,0.0,0.0,0.0,0.0,0.0,0.0,0.0,0.0,0.0,0.0,0.0,0.0,0.0,0.0,0.0,0.0,0.0,0.0,0.0,0.0,0.0,0.0,0.0,0.0,0.0,0.0,0.0,0.0,0.0,0.0,0.0,0.0,0.0,0.0,0.0,0.0,0.0,0.0,0.0,0.0,0.0,0.0,0.0,0.0,0.0,0.0,0.0,0.0,0.0,0.0,0.0,0.0,0.0,0.0,0.0,0.0,0.0,0.0,0.0,0.0,0.0,0.0,0.0,0.0,0.0,0.0,0.0,0.0,-1.4014,-1.579,-1.7978,-1.9158,-1.9459,-1.8691,-1.838,-1.7017,-1.4232,-1.252,0.0,0.0,0.0,0.0,0.0,0.0,0.0,0.0,0.0,0.0,0.0,0.0,0.0,0.0,0.0,0.0,0.0,0.0,0.0,0.0,0.0,0.0,0.0,0.0,0.0,0.0,0.0,0.0,0.0,0.0,0.0,0.0,0.0,0.0,0.0,0.0,0.0,0.0,0.0,0.0,0.0,0.0,0.0,0.0,0.0,0.0,0.0,0.0,0.0,0.0,0.0,0.0,0.0,0.0,0.0,0.0,0.0,0.0,0.0,0.0,0.0,0.0,0.0,0.0,0.0,0.0,0.0,0.0,0.0,0.0,0.0,0.0,0.0,0.0,0.0,0.0,0.0,0.0,0.0,0.0,0.0,0.0,0.0,0.0,0.0,0.0,0.0,0.0,0.0,0.0,0.0,0.0,0.0,0.0,0.0,0.0,0.0,0.0,0.0,0.0,0.0,0.0,-1.5906,-1.72,-1.7928,-1.8982,-1.932,-1.8669,-1.806,-1.6599,-1.3965,-1.2234,0.0,0.0,0.0,0.0,0.0,0.0,0.0,0.0,0.0,0.0,0.0,0.0,0.0,0.0,0.0,0.0,0.0,0.0,0.0,0.0,0.0,0.0,0.0,0.0,0.0,0.0,0.0,0.0,0.0,0.0,0.0,0.0,0.0,0.0,0.0,0.0,0.0,0.0,0.0,0.0,0.0,0.0,0.0,0.0,0.0,0.0,0.0,0.0,0.0,0.0,0.0,0.0,0.0,0.0,0.0,0.0,0.0,0.0,0.0,0.0,0.0,0.0,0.0,0.0,0.0,0.0,0.0,0.0,0.0,0.0,0.0,0.0,0.0,0.0,0.0,0.0,0.0,0.0,0.0,0.0,0.0,0.0,0.0,0.0,0.0,0.0,0.0,0.0,0.0,0.0,0.0,0.0,0.0,0.0,0.0,0.0,0.0,0.0,0.0,0.0,0.0,0.0,-1.612,-1.7928,-1.7488,-1.843,-1.8643,-1.7617,-1.6799,-1.5441,-1.338,-1.1503,0.0,0.0,0.0,0.0,0.0,0.0,0.0,0.0,0.0,0.0,0.0,0.0,0.0,0.0,0.0,0.0,0.0,0.0,0.0,0.0,0.0,0.0,0.0,0.0,0.0,0.0,0.0,0.0,0.0,0.0,0.0,0.0,0.0,0.0,0.0,0.0,0.0,0.0,0.0,0.0,0.0,0.0,0.0,0.0,0.0,0.0,0.0,0.0,0.0,0.0,0.0,0.0,0.0,0.0,0.0,0.0,0.0,0.0,0.0,0.0,0.0,0.0,0.0,0.0,0.0,0.0,0.0,0.0,0.0,0.0,0.0,0.0,0.0,0.0,0.0,0.0,0.0,0.0,0.0,0.0,0.0,0.0,0.0,0.0,0.0,0.0,0.0,0.0,0.0,0.0,0.0,0.0,0.0,0.0,0.0,0.0,0.0,0.0,0.0,0.0,0.0,0.0,-1.5229,-1.6835,0.0,-1.8066,-1.8346,-1.795,-1.7324,-1.6002,-1.3838,0.0,0.0,0.0,0.0,0.0,0.0,0.0,0.0,0.0,0.0,0.0,0.0,0.0,0.0,0.0,0.0,0.0,0.0,0.0,0.0,0.0,0.0,0.0,0.0,0.0,0.0,0.0,0.0,0.0,0.0,0.0,0.0,0.0,0.0,0.0,0.0,0.0,0.0,0.0,0.0,0.0,0.0,0.0,0.0,0.0,0.0,0.0,0.0,0.0,0.0,0.0,0.0,0.0,0.0,0.0,0.0,0.0,0.0,0.0,0.0,0.0,0.0,0.0,0.0,0.0,0.0,0.0,0.0,0.0,0.0,0.0,0.0,0.0,0.0,0.0,0.0,0.0,0.0,0.0,0.0,0.0,0.0,0.0,0.0,0.0,0.0,0.0,0.0,0.0,0.0,0.0,0.0,0.0,0.0,0.0,0.0,0.0,0.0,0.0,0.0,0.0,0.0,-1.2926,-1.499,-1.6446,0.0,-1.7601,-1.7885,-1.7696,-1.7067,-1.5776,-1.3618,0.0,0.0,0.0,0.0,0.0,0.0,0.0,0.0,0.0,0.0,0.0,0.0,0.0,0.0,0.0,0.0,0.0,0.0,0.0,0.0,0.0,0.0,0.0,0.0,0.0,0.0,0.0,0.0,0.0,0.0,0.0,0.0,0.0,0.0,0.0,0.0,0.0,0.0,0.0,0.0,0.0,0.0,0.0,0.0,0.0,0.0,0.0,0.0,0.0,0.0,0.0,0.0,0.0,0.0,0.0,0.0,0.0,0.0,0.0,0.0,0.0,0.0,0.0,0.0,0.0,0.0,0.0,0.0,0.0,0.0,0.0,0.0,0.0,0.0,0.0,0.0,0.0,0.0,0.0,0.0,0.0,0.0,0.0,0.0,0.0,0.0,0.0,0.0,0.0,0.0,0.0,0.0,0.0,0.0,0.0,0.0,0.0,0.0,0.0,0.0,0.0,0.0,-1.3026,-1.5655,-1.7149,-1.6572,-1.7024,-1.7137,-1.6572,-1.5704,-1.4406,0.0,0.0,0.0,0.0,0.0,0.0,0.0,0.0,0.0,0.0,0.0,0.0,0.0,0.0,0.0,0.0,0.0,0.0,0.0,0.0,0.0,0.0,0.0,0.0,0.0,0.0,0.0,0.0,0.0,0.0,0.0,0.0,0.0,0.0,0.0,0.0,0.0,0.0,0.0,0.0,0.0,0.0,0.0,0.0,0.0,0.0,0.0,0.0,0.0,0.0,0.0,0.0,0.0,0.0,0.0,0.0,0.0,0.0,0.0,0.0,0.0,0.0,0.0,0.0,0.0,0.0,0.0,0.0,0.0,0.0,0.0,0.0,0.0,0.0,0.0,0.0,0.0,0.0,0.0,0.0,0.0,0.0,0.0,0.0,0.0,0.0,0.0,0.0,0.0,0.0,0.0,0.0,0.0,0.0,0.0,0.0,0.0,0.0,0.0,0.0,0.0,0.0,0.0,-1.306,-1.5304,-1.671,-1.6534,-1.6672,-1.6697,-1.6534,-1.6164,-1.4964,-1.2562,0.0,0.0,0.0,0.0,0.0,0.0,0.0,0.0,0.0,0.0,0.0,0.0,0.0,0.0,0.0,0.0,0.0,0.0,0.0,0.0,0.0,0.0,0.0,0.0,0.0,0.0,0.0,0.0,0.0,0.0,0.0,0.0,0.0,0.0,0.0,0.0,0.0,0.0,0.0,0.0,0.0,0.0,0.0,0.0,0.0,0.0,0.0,0.0,0.0,0.0,0.0,0.0,0.0,0.0,0.0,0.0,0.0,0.0,0.0,0.0,0.0,0.0,0.0,0.0,0.0,0.0,0.0,0.0,0.0,0.0,0.0,0.0,0.0,0.0,0.0,0.0,0.0,0.0,0.0,0.0,0.0,0.0,0.0,0.0,0.0,0.0,0.0,0.0,0.0,0.0,0.0,0.0,0.0,0.0,0.0,0.0,0.0,0.0,0.0,0.0,0.0,0.0,-1.306,-1.5114,-1.6522,-1.6522,-1.6522,-1.6522,-1.6522,-1.6365,-1.5181,-1.2587,0.0,0.0,0.0,0.0,0.0,0.0,0.0,0.0,0.0,0.0,0.0,0.0,0.0,0.0,0.0,0.0,0.0,0.0,0.0,0.0,0.0,0.0,0.0,0.0,0.0,0.0,0.0,0.0,0.0,0.0,0.0,0.0,0.0,0.0,0.0,0.0,0.0,0.0,0.0,0.0,0.0,0.0,0.0,0.0,0.0,0.0,0.0,0.0,0.0,0.0,0.0,0.0,0.0,0.0,0.0,0.0,0.0,0.0,0.0,0.0,0.0,0.0,0.0,0.0,0.0,0.0,0.0,0.0,0.0,0.0,0.0,0.0,0.0,0.0,0.0,0.0,0.0,0.0,0.0,0.0,0.0,0.0,0.0,0.0,0.0,0.0,0.0,0.0,0.0,0.0,0.0,0.0,0.0,0.0,0.0,0.0,0.0,0.0,0.0,0.0,0.0,0.0,-1.306,-1.5114,-1.6522,-1.6522,-1.6522,-1.6522,-1.6522,-1.6365,-1.5207,-1.265,0.0,0.0,0.0,0.0,0.0,0.0,0.0,0.0,0.0,0.0,0.0,0.0,0.0,0.0,0.0,0.0,0.0,0.0,0.0,0.0,0.0,0.0,0.0,0.0,0.0,0.0,0.0,0.0,0.0,0.0,0.0,0.0,0.0,0.0,0.0,0.0,0.0,0.0,0.0,0.0,0.0,0.0,0.0,0.0,0.0,0.0,0.0,0.0,0.0,0.0,0.0,0.0,0.0,0.0,0.0,0.0,0.0,0.0,0.0,0.0,-0.597,-0.5502,0.0,0.0,0.0,0.0,0.0,0.0,0.0,0.0,0.0,0.0,0.0,0.0,0.0,0.0,0.0,0.0,0.0,0.0,0.0,0.0,0.0,0.0,0.0,0.0,0.0,0.0,0.0,0.0,0.0,0.0,0.0,0.0,0.0,0.0,0.0,0.0,0.0,0.0,0.0,0.0,-1.306,-1.5114,-1.6522,-1.6522,-1.6522,-1.6522,-1.6522,-1.6365,-1.5375,-1.317,-1.2403,0.0,0.0,0.0,0.0,0.0,0.0,0.0,0.0,0.0,0.0,0.0,0.0,0.0,0.0,0.0,0.0,0.0,0.0,0.0,0.0,0.0,0.0,0.0,0.0,0.0,0.0,0.0,0.0,0.0,0.0,0.0,0.0,0.0,0.0,0.0,0.0,0.0,0.0,0.0,0.0,0.0,0.0,0.0,0.0,0.0,0.0,0.0,0.0,0.0,0.0,0.0,0.0,0.0,0.0,0.0,0.0,0.0,0.0,0.0,-0.7681,-0.7237,0.0,0.0,0.0,0.0,0.0,0.0,0.0,0.0,0.0,0.0,0.0,0.0,0.0,0.0,0.0,0.0,0.0,0.0,0.0,0.0,0.0,0.0,0.0,0.0,0.0,0.0,0.0,0.0,0.0,0.0,0.0,0.0,0.0,0.0,0.0,0.0,0.0,0.0,0.0,0.0,-1.3483,-1.5316,-1.6522,-1.6522,-1.6522,-1.6522,-1.6522,-1.6456,-1.572,-1.4111,-1.3183,0.0,0.0,0.0,0.0,0.0,0.0,0.0,0.0,0.0,0.0,0.0,0.0,0.0,0.0,0.0,0.0,0.0,0.0,0.0,0.0,0.0,0.0,0.0,0.0,0.0,0.0,0.0,0.0,0.0,0.0,0.0,0.0,0.0,0.0,0.0,0.0,0.0,0.0,0.0,0.0,0.0,0.0,0.0,0.0,0.0,0.0,0.0,0.0,0.0,0.0,0.0,0.0,0.0,-0.858,-0.8978,-0.9112,-0.9268,-0.9424,-0.9499,-0.9423,-0.9069,-0.8528,-0.8057,0.0,0.0,0.0,0.0,0.0,0.0,0.0,0.0,0.0,0.0,0.0,0.0,0.0,0.0,0.0,0.0,0.0,0.0,0.0,0.0,0.0,0.0,-1.14,-1.1476,-1.2467,-1.3006,-1.1533,0.0,0.0,0.0,0.0,0.0,0.0,0.0,0.0,0.0,0.0,0.0,-1.4085,-1.5555,-1.6522,-1.6522,-1.6522,-1.6522,-1.6522,-1.6522,-1.6082,-1.5117,-1.4074,-1.3069,0.0,0.0,0.0,0.0,0.0,0.0,0.0,0.0,0.0,0.0,0.0,0.0,0.0,0.0,0.0,0.0,0.0,0.0,0.0,0.0,0.0,0.0,0.0,0.0,0.0,0.0,0.0,0.0,0.0,0.0,0.0,0.0,-0.0982,-0.3603,0.0,0.0,0.0,0.0,0.0,0.0,0.0,0.0,0.0,0.0,0.0,0.0,0.0,-0.5535,-0.5708,-0.7914,-0.8934,-0.8685,-1.0275,-1.0782,-1.0396,-1.1199,-1.1277,-1.0806,-1.1088,0.0,-0.9133,-0.9277,0.0,0.0,0.0,0.0,0.0,0.0,0.0,0.0,0.0,0.0,0.0,0.0,0.0,0.0,0.0,0.0,0.0,0.0,0.0,0.0,0.0,0.0,-1.3303,-1.3803,-1.4462,-1.498,-1.4908,-1.3508,-1.2189,-1.2102,-1.1286,-1.0518,0.0,0.0,0.0,0.0,0.0,0.0,-1.4664,-1.5793,-1.6522,-1.6522,-1.6522,-1.6522,-1.6522,-1.6522,-1.6258,-1.563,-1.5041,-1.4412,-1.3783,-1.2172,0.0,0.0,0.0,0.0,0.0,0.0,0.0,0.0,0.0,0.0,0.0,0.0,0.0,0.0,0.0,0.0,0.0,0.0,0.0,0.0,0.0,0.0,0.0,0.0,0.0,0.0,0.0,0.0,0.0,0.0,-0.0492,-0.1794,-0.2286,-0.187,0.0,0.0,0.0,0.0,0.0,0.0,0.0,0.0,0.0,-0.4518,-0.6239,-0.7157,-0.7254,-0.9402,-1.0387,-1.0264,-1.1042,-1.1289,-1.1049,-1.1496,-1.1491,-1.1229,-1.1948,-1.1525,-1.0394,-0.9869,-0.9141,-0.8427,0.0,0.0,0.0,0.0,-0.9675,-1.0123,-1.0287,-1.0499,-1.0529,-0.9735,0.0,0.0,0.0,0.0,0.0,0.0,0.0,-1.1412,-1.2619,-1.3398,-1.4004,-1.4686,-1.5332,-1.5853,-1.5997,-1.5599,-1.4927,-1.3973,-1.3396,-1.2667,-1.1425,-1.1525,0.0,0.0,0.0,-1.4438,-1.5229,-1.6019,-1.6522,-1.6522,-1.6522,-1.6522,-1.6522,-1.6522,-1.6409,-1.617,-1.5643,-1.5229,-1.5029,-1.3396,-1.2221,0.0,0.0,0.0,0.0,0.0,0.0,0.0,0.0,0.0,0.0,0.0,0.0,0.0,0.0,0.0,0.0,0.0,0.0,0.0,0.0,0.0,0.0,0.0,0.0,0.0,0.0,0.0,0.0,0.0,0.0,0.0,-0.2806,-0.3814,0.0,0.0,0.0,0.0,0.0,0.0,-0.4243,-0.4677,-0.4972,-0.5087,-0.73,-0.8439,-0.8439,-1.0479,-1.1543,-1.1543,-1.1617,-1.165,-1.165,-1.165,-1.165,-1.1643,-1.2261,-1.2157,-1.1456,-1.0595,-0.9877,-0.9274,-0.9516,-0.9753,-1.0038,-1.084,-1.1364,-1.1755,-1.1986,-1.1967,-1.1668,-1.0661,-0.9907,-0.9227,-0.818,0.0,0.0,0.0,0.0,-1.251,-1.3581,-1.4062,-1.4449,-1.5164,-1.5687,-1.6087,-1.6125,-1.664,-1.6784,-1.5555,-1.5218,-1.4563,-1.2918,-1.3207,0.0,0.0,0.0,-1.5279,-1.5831,-1.6258,-1.6522,-1.6522,-1.6522,-1.6522,-1.6522,-1.6522,-1.6522,-1.6522,-1.6132,-1.5906,-1.5906,-1.445,-1.3396,-1.2843,0.0,0.0,0.0,0.0,0.0,0.0,0.0,0.0,0.0,0.0,0.0,0.0,0.0,0.0,0.0,0.0,0.0,0.0,0.0,0.0,0.0,0.0,0.0,0.0,0.0,0.0,0.0,0.0,0.0,0.0,-0.3176,0.0,0.0,0.0,0.0,-0.4584,-0.5087,-0.5178,-0.4874,-0.5301,-0.5549,-0.5555,-0.7516,-0.8609,-0.8609,-1.0762,-1.1844,-1.185,-1.2124,-1.2258,-1.2258,-1.2258,-1.2258,-1.2245,-1.2036,-1.1915,-1.1848,-1.1761,-1.1224,-1.0477,-0.9899,-1.0172,-1.0831,-1.0902,-1.136,-1.187,-1.1886,-1.1839,-1.1776,-1.2151,-1.1605,-1.0844,-1.1157,-1.1306,0.0,0.0,-1.3223,-1.4087,-1.46,-1.4736,-1.4913,-1.5553,-1.5717,-1.568,-1.5432,-1.5867,-1.6392,-1.6417,-1.6019,-1.5618,-1.5505,0.0,-1.5004,-1.5454,-1.5605,-1.5856,-1.6409,-1.6497,-1.6522,-1.6522,-1.6522,-1.6522,-1.6522,-1.6522,-1.6522,-1.6522,-1.6497,-1.6471,-1.6471,-1.5392,-1.4563,-1.4009,-1.1776,0.0,0.0,0.0,0.0,0.0,0.0,0.0,0.0,0.0,0.0,0.0,0.0,0.0,0.0,0.0,0.0,0.0,0.0,0.0,0.0,0.0,0.0,0.0,0.0,0.0,0.0,0.0,0.0,0.0,-0.1134,0.0,-0.5001,-0.475,-0.4716,-0.5366,-0.542,-0.5359,-0.5352,-0.5684,-0.5874,-0.5874,-0.7919,-0.9059,-0.9059,-1.1132,-1.2144,-1.2151,-1.2251,-1.2305,-1.2305,-1.2305,-1.2305,-1.2291,-1.2191,-1.2144,-1.2104,-1.1943,-1.1546,-1.1142,-1.1234,-1.1487,-1.1766,-1.2098,-1.2376,-1.2612,-1.2612,-1.2249,-1.1638,-1.1085,-1.055,-1.0164,-1.0271,-1.1004,-1.1872,-1.2466,-1.3534,-1.4648,-1.5078,-1.5186,-1.5357,-1.6028,-1.6186,-1.6229,-1.6265,-1.6243,-1.6115,-1.5776,-1.6005,-1.612,-1.5756,-1.5831,-1.5881,-1.5718,-1.5994,-1.6296,-1.6497,-1.6522,-1.6522,-1.6522,-1.6522,-1.6522,-1.6522,-1.6522,-1.6371,-1.6007,-1.5994,-1.5831,-1.5467,-1.4777,-1.4286,-1.4085,-1.2228,-1.065,0.0,0.0,0.0,0.0,0.0,0.0,0.0,0.0,0.0,0.0,0.0,0.0,0.0,0.0,0.0,0.0,0.0,0.0,0.0,0.0,0.0,0.0,0.0,0.0,0.0,0.0,0.0,0.0,0.0,-0.0975,-0.3323,-0.41,-0.4557,-0.4768,-0.5249,-0.5613,-0.5745,-0.5979,-0.6112,-0.6108,-0.8165,-0.9296,-0.9296,-1.1323,-1.2305,-1.2305,-1.2305,-1.2305,-1.2305,-1.2305,-1.2305,-1.2305,-1.2305,-1.2305,-1.2285,-1.2091,-1.1897,-1.1753,-1.1875,-1.2029,-1.2228,-1.2578,-1.2677,-1.2573,-1.2274,-1.1841,-1.1253,-1.0506,-1.0134,-1.0033,-1.0324,-1.1297,-1.2381,-1.299,-1.4057,-1.5059,-1.5342,-1.541,-1.5526,-1.6036,-1.6151,-1.6131,-1.6104,-1.6083,-1.5826,-1.511,-1.5671,-1.6071,-1.5726,-1.6143,-1.6396,-1.6019,-1.6283,-1.6522,-1.6522,-1.6522,-1.6522,-1.6522,-1.6522,-1.6522,-1.6522,-1.6522,-1.6273,-1.5677,-1.5711,-1.5449,-1.4888,-1.4063,-1.3616,-1.3616,-1.1745,-1.0445,-0.9796,0.0,0.0,0.0,0.0,0.0,0.0,0.0,0.0,0.0,0.0,0.0,0.0,0.0,0.0,0.0,0.0,0.0,0.0,0.0,0.0,0.0,0.0,0.0,0.0,0.0,0.0,0.0,0.0,0.0,0.0,-0.1575,-0.2617,-0.2619,-0.4484,-0.5695,-0.5901,-0.6196,-0.6274,-0.6264,-0.8161,-0.9221,-0.9221,-1.1248,-1.2224,-1.2224,-1.2298,-1.2305,-1.2305,-1.2305,-1.2305,-1.2305,-1.2305,-1.2305,-1.2305,-1.2305,-1.2305,-1.2245,-1.1663,-1.172,-1.2216,-1.2201,-1.1985,-1.1648,-1.0863,-1.0624,-1.0624,-1.0624,-1.0624,-1.0744,-1.1531,-1.2328,-1.313,-1.3965,-1.4746,-1.5352,-1.541,-1.541,-1.541,-1.541,-1.541,-1.5293,-1.4893,-1.5275,-1.5423,-1.4549,-1.5034,-1.5555,-1.5588,-1.6051,-1.6466,-1.6466,-1.6479,0.0,-1.6522,-1.6466,-1.6466,-1.6522,-1.6466,-1.6466,-1.6466,-1.6466,-1.6225,-1.5584,-1.5598,-1.5369,-1.4761,-1.3442,-1.272,-1.2685,-1.0362,-0.9309,-0.9609,0.0,0.0,0.0,0.0,0.0,0.0,0.0,0.0,0.0,0.0,0.0,0.0,0.0,0.0,0.0,0.0,0.0,0.0,0.0,0.0,0.0,0.0394,0.0,0.0,0.0,0.0,0.0,0.0,0.0,0.0,-0.0447,-0.0753,-0.0766,-0.1236,-0.2246,-0.3791,-0.5392,-0.6285,-0.6274,-0.685,-0.7447,-0.8237,-1.019,-1.1236,-1.1242,-1.1922,-1.2305,-1.2305,-1.2305,-1.2305,-1.2305,-1.2305,-1.2305,-1.2305,-1.2305,-1.2305,-1.2265,-1.1891,-1.183,-1.1909,-1.1469,-1.1182,-1.0926,-1.0681,-1.0624,-1.0624,-1.0624,-1.0624,-1.0624,-1.0863,-1.1476,-1.2328,-1.3122,-1.3914,-1.4688,-1.5235,-1.541,-1.541,-1.541,-1.541,-1.5381,-1.5264,-1.517,-1.4884,-1.4317,-1.4476,-1.477,-1.4937,-1.5454,-1.5864,-1.5864,-1.6238,0.0,-1.6522,-1.6139,-1.6008,-1.6466,-1.6095,-1.5864,-1.5864,-1.5864,-1.5267,-1.3922,-1.4228,-1.4021,-1.3117,-1.3003,-1.282,-1.248,-1.1333,-1.058,0.0,0.0,0.0,0.0,0.0,0.0,0.0,0.0,0.0,0.0,0.0,0.0,0.0,0.0,0.0,0.0,0.0,0.0,0.0,0.0,0.0,0.0,0.0995,0.0,0.0,0.0,0.0,0.0,0.0,0.0,0.0,0.0,0.0,0.0,0.0,-0.0548,-0.172,-0.3834,-0.5093,-0.5401,-0.6384,-0.723,-0.7783,-0.9362,-1.019,-1.019,-1.0795,-1.1248,-1.1694,-1.1694,-1.1922,-1.2305,-1.2305,-1.2305,-1.2305,-1.2305,-1.2305,-1.2285,0.0,0.0,0.0,0.0,-1.0808,-1.0624,-1.0624,-1.0624,-1.0624,-1.0624,-1.0624,-1.0624,-1.0624,-1.117,-1.1958,-1.2757,-1.3606,-1.4392,-1.5167,-1.541,-1.541,-1.541,-1.541,-1.541,-1.541,-1.5215,-1.4863,-1.4194,-1.4168,0.0,-1.4,-1.4869,-1.5588,-1.5588,-1.5908,-1.6139,-1.6139,-1.5599,-1.5377,-1.57,-1.5421,-1.5231,-1.5231,-1.5231,0.0,0.0,0.0,-1.3395,-1.2171,-1.2374,0.0,0.0,0.0,0.0,0.0,0.0,0.0,0.0,-1.0,-0.9902,0.0,0.0,0.0,0.0,0.0,0.0,0.0,0.0,0.0,0.0,0.0,0.0,0.0,0.0,0.0,0.0,0.1864,0.0279,0.0,0.0223,0.0296,0.0,0.0,0.0,0.0,0.0,0.0,0.0,0.0,0.0,0.0,0.0,0.0,0.0,0.0,-0.7633,-0.7633,-0.8618,-0.915,-0.9145,-0.9221,-0.9744,-1.064,-1.064,-1.1168,-1.215,-1.215,-1.2224,-1.2305,-1.2305,-1.2305,-1.2305,-1.2305,-1.2104,-1.1757,-1.1236,-1.0835,-1.0624,-1.0624,0.0,0.0,-1.0624,-1.0624,-1.0624,-1.0624,-1.1108,-1.1834,-1.2634,-1.3364,-1.4085,-1.4932,-1.5118,-1.5118,-1.5118,-1.5118,-1.5118,-1.5118,-1.5167,-1.4984,-1.4134,-1.4024,-1.3867,-1.3027,-1.4283,-1.541,-1.541,-1.5454,-1.5499,-1.5499,-1.496,-1.4606,-1.4698,0.0,0.0,-1.4606,-1.4606,-1.4307,-1.3648,-1.368,-1.3151,-1.19,-1.184,-1.1603,-1.1064,-1.1103,-1.1494,-1.218,-1.2229,-1.2305,-1.2219,-1.0682,-1.0586,0.0,0.0,0.0,0.0,0.0,0.0,0.0,0.0,0.0,0.0,0.0,0.0,0.0,0.0,0.0,0.4898,0.3604,0.1929,0.0226,0.1451,0.1854,0.0234,0.0,0.0,0.0,0.0,0.0,0.0,0.0,0.0,0.0,-0.0392,-0.2194,-0.5811,-0.6359,-0.6585,-0.6567,-0.7557,-0.8084,-0.8084,-0.8917,0.0,-0.9593,-0.9593,-1.0121,-1.1087,-1.1087,-1.1545,-1.2305,-1.2305,-1.2305,-1.2305,-1.2305,-1.1977,-1.1496,-1.1383,-1.1009,-1.0624,-1.0624,-1.0624,-1.0624,-1.0624,-1.0624,-1.0624,-1.0624,-1.0681,0.0,-1.1834,-1.2135,-1.2443,-1.3243,-1.3485,-1.3485,-1.3485,-1.3485,-1.3485,-1.3485,-1.3965,-1.4154,-1.3295,-1.3638,-1.3867,-1.3027,-1.36,-1.4133,-1.4133,-1.4549,-1.488,-1.488,-1.4329,-1.4143,-1.4652,-1.4283,-1.3956,-1.3956,-1.3956,-1.3575,-1.255,-1.2533,-1.2584,-1.2746,-1.2711,-1.2427,-1.1937,-1.2324,-1.2412,-1.218,-1.2588,-1.2754,-1.2744,-1.2412,-1.2197,0.0,0.0,0.0,0.0,0.0,0.0,0.0,0.0,0.0,0.0,0.0,0.4509,0.4746,0.0,0.4757,0.5691,0.5094,0.4246,0.3301,0.3103,0.2344,0.0235,0.0,0.0,0.0,0.0,0.0,0.0,0.1963,0.22,0.0079,0.0,-0.0938,-0.3054,-0.5182,-0.6325,-0.6465,-0.6847,-0.7068,-0.7141,-0.7598,-0.8084,-0.8542,-0.8542,-0.9069,-1.004,-1.004,-1.064,-1.162,-1.2077,-1.2305,-1.2305,-1.2305,-1.2031,-1.163,-1.1483,-1.1149,-1.0755,-1.0672,-1.0624,-1.0624,-1.0624,-1.0624,-1.0624,-1.0624,-1.0624,-1.0744,-1.1586,-1.1834,-1.202,-1.2765,-1.3009,-1.3009,-1.3009,-1.3009,-1.3009,-1.3009,-1.3312,-1.344,-1.2964,-1.3195,-1.3383,-1.2978,-1.3152,-1.3467,-1.3732,-1.405,-1.4236,-1.4236,-1.3742,-1.3467,-1.3752,-1.3515,-1.3324,-1.3324,-1.3324,-1.31,-1.2568,-1.2559,-1.2691,-1.2953,-1.2898,-1.2783,-1.2559,-1.2773,-1.2773,-1.2559,-1.2773,-1.2881,-1.2881,-1.2881,-1.2764,0.0,0.0,0.0,0.0,0.0,0.0,0.0,0.0,0.4392,0.4785,0.4986,0.5132,0.5398,0.557,0.5834,0.6183,0.616,0.6135,0.6271,0.4776,0.3125,0.1412,0.0861,0.0626,0.0627,0.0627,0.0627,0.0627,0.3773,0.4406,0.1412,0.0469,0.0156,0.0472,-0.3153,-0.5274,-0.5635,-0.6105,-0.6407,-0.6474,-0.6363,-0.6751,-0.748,-0.748,-0.8084,-0.8993,-0.9221,-0.9744,-1.0565,-1.1397,-1.17,-1.1774,-1.1922,-1.1859,-1.1625,-1.1331,-1.1044,-1.0691,-1.0283,-1.0251,-1.0373,-1.0384,-1.0428,-1.0624,-1.0624,-1.0624,-1.0744,-1.1406,-1.1593,-1.171,-1.2397,-1.252,-1.252,-1.252,-1.252,-1.252,-1.252,-1.2642,-1.2751,-1.2781,-1.2866,-1.2913,-1.2976,-1.293,-1.3065,-1.3552,-1.3647,-1.3647,-1.3647,-1.32,-1.2881,-1.2881,-1.2881,-1.2881,-1.2881,-1.2881,-1.2881,-1.2881,-1.2881,-1.2822,-1.2666,-1.2666,-1.2618,-1.251,-1.251,-1.2569,-1.2666,-1.2676,-1.2774,-1.2881,-1.2881,-1.2881,0.607,0.5504,0.4858,0.4474,0.428,0.4351,0.0,0.0,0.5264,0.545,0.5603,0.5681,0.5606,0.5803,0.5993,0.603,0.6149,0.6247,0.6278,0.6109,0.5873,0.5655,0.3912,0.2734,0.2734,0.2734,0.2734,0.2734,0.3205,0.407,0.55,0.2034,0.0631,0.2088,0.0322,-0.1223,-0.2327,-0.5175,-0.6548,-0.6337,-0.6321,-0.6396,-0.6493,-0.6493,-0.7022,-0.8008,-0.8917,-0.9372,-0.9448,-0.9599,-0.9599,-0.975,-1.064,-1.092,-1.0861,-1.0605,-1.0266,-0.9869,-0.881,-0.8997,-0.9622,-0.9473,-0.9977,-1.0624,-1.0624,-1.0624,-1.0624,-1.0681,-1.0744,-1.0744,-1.087,-1.087,-1.087,-1.087,-1.087,-1.087,-1.087,-1.1413,-1.2035,-1.238,-1.2716,-1.3004,-1.3362,-1.3125,-1.2929,-1.2968,-1.3017,-1.3017,-1.3017,-1.2929,-1.2881,-1.2881,-1.2881,-1.2881,-1.2881,-1.2881,-1.2881,-1.2881,-1.2881,-1.2618,-1.1972,-1.1922,-1.1625,-1.1074,-1.1023,-1.1316,-1.1922,-1.19,-1.2264,-1.2881,-1.2881,-1.2881,0.6346,0.572,0.0,0.0,0.4942,0.5128,0.5504,0.5542,0.5562,0.5796,0.5891,0.5942,0.5976,0.6081,0.6166,0.0,0.6217,0.6493,0.7107,0.7011,0.7092,0.7697,0.699,0.6043,0.5085,0.4937,0.4937,0.4937,0.4932,0.5329,0.6217,0.4765,0.3609,0.3152,0.3779,0.2588,-0.0681,-0.1936,-0.3271,-0.4722,-0.5758,-0.6304,-0.6317,-0.6305,-0.6567,-0.6945,-0.8012,-0.8466,-0.8466,-0.9069,-0.9296,-0.9372,-0.9744,-0.9895,-0.9938,-1.0283,-1.0337,-0.999,-0.8767,-0.8538,-0.8751,-0.866,-0.919,-0.9849,-0.9849,-1.0174,-1.0624,-1.0624,-1.0624,-1.0624,-1.0624,-1.0624,-1.0624,-1.0624,-1.0624,-1.0624,-1.0624,-1.0863,-1.1195,-1.1592,-1.1752,-1.193,-1.2167,-1.2086,-1.1899,-1.1719,-1.2363,-1.2881,-1.2881,-1.251,-1.2089,-1.1742,-1.1692,-1.1692,-1.1692,-1.1692,-1.1692,-1.1692,-1.1692,-1.1534,-1.1216,-1.1216,-1.1065,-1.0813,-1.0813,-1.0965,-1.1216,-1.1225,-1.1384,-1.1692,-1.1692,-1.1692,0.6384,0.0,0.0,0.5298,0.5454,0.5657,0.5701,0.5745,0.5833,0.6051,0.6095,0.6115,0.6183,0.6234,0.6247,0.6203,0.6234,0.6644,0.7629,0.7534,0.7721,0.8808,0.8836,0.8379,0.7257,0.6898,0.6743,0.6743,0.643,0.6278,0.6285,0.6507,0.5947,0.4494,0.6133,0.5403,0.2003,0.0944,-0.0599,-0.2508,-0.5043,-0.626,-0.6341,-0.626,-0.6264,-0.6338,-0.7099,-0.7403,-0.748,-0.8161,-0.8466,-0.8466,-0.877,-0.8917,-0.8974,-0.9474,-0.9704,-0.9526,-0.8212,-0.7835,-0.7905,-0.786,-0.8389,-0.8972,-0.8964,-0.9524,-1.0238,-1.0238,-1.0428,-1.0624,-1.0624,-1.0624,-1.0624,-1.0624,-1.0624,-1.0624,-1.0624,-1.0624,-1.0739,-1.1224,-1.1159,-1.118,-1.1542,-1.1472,-1.1284,-1.0968,-1.1802,-1.2445,-1.2323,-1.1832,-1.1366,-1.0864,-1.0813,-1.0813,-1.0813,-1.0813,-1.0813,-1.0813,-1.0813,-1.0712,-1.0517,-1.0517,-1.0415,-1.0261,-1.0269,-1.0364,-1.0517,-1.0517,-1.0618,-1.0813,-1.0813,-1.0813,0.0,0.0,0.7103,0.5905,0.5688,0.5833,0.5983,0.6132,0.6244,0.6251,0.6254,0.621,0.6064,0.6159,0.621,0.6061,0.6162,0.6644,0.7629,0.7534,0.7773,0.911,0.9005,0.8886,0.0,0.8318,0.7783,0.7783,0.6872,0.6338,0.6264,0.65,0.6566,0.6605,0.6963,0.7037,0.6894,0.2587,0.0353,0.0259,-0.4163,-0.6304,-0.627,-0.627,-0.6271,-0.6338,-0.6338,-0.6338,-0.6338,-0.6416,-0.6416,-0.649,-0.748,-0.7859,-0.7855,-0.7851,-0.7851,-0.7668,-0.6521,-0.66,-0.7265,-0.7051,-0.7545,-0.8183,-0.8093,-0.8613,-0.9338,-0.9338,-0.9977,-1.0624,-1.0624,-1.0624,-1.0624,-1.0624,-1.0624,-1.0624,-1.0624,-1.0624,-1.0863,-1.164,-1.1435,-1.139,-1.2214,-1.202,-1.1597,-1.1346,-1.1296,-1.1218,-1.0913,-1.0864,-1.0813,-1.0813,-1.0813,-1.0813,-1.0813,-1.0813,-1.0813,-1.0813,-1.0813,-1.0517,-0.9865,-0.9814,-0.951,-0.8857,-0.8857,-0.9159,-0.9814,-0.9814,-1.0167,-1.0813,-1.0813,-1.0813,0.0,0.0,0.631,0.5971,0.5996,0.6118,0.6173,0.6754,0.7065,0.6277,0.6978,0.7419,0.6604,0.6552,0.6539,0.6584,0.6884,0.7488,0.867,0.9094,0.9779,1.09,1.09,0.0,0.0,0.0,0.0,0.8765,0.7859,0.7297,0.7407,0.695,0.6702,0.6848,0.7007,0.7115,0.7084,0.5638,0.3382,0.0354,-0.1289,-0.2838,-0.4212,-0.5626,-0.6278,-0.6271,-0.6264,-0.6338,-0.6338,-0.6338,-0.6338,-0.6338,-0.6641,-0.6795,-0.6795,-0.6795,-0.6795,-0.671,-0.6353,-0.6338,-0.643,-0.6215,-0.6692,-0.731,-0.717,-0.7762,-0.842,-0.842,-0.8672,-0.8865,-0.8865,-0.9326,-0.9722,-0.9722,-1.0174,-1.0624,-1.0624,-1.0624,-1.0681,-1.0926,-1.0906,-1.0766,-1.0859,-1.073,-1.0551,-1.03,-1.0624,-1.0756,-1.0233,-1.0167,-0.9969,-0.951,-0.9458,-0.9458,-0.9458,-0.9458,-0.9458,-0.9458,-0.9458,-0.9361,-0.9159,-0.9159,-0.9008,-0.8804,-0.8804,-0.8903,-0.9159,-0.9159,-0.9263,-0.9458,-0.9458,-0.9458,0.7444,0.7081,0.6645,0.627,0.6754,0.7249,0.6949,0.7499,0.7917,0.707,0.7593,0.7995,0.706,0.6735,0.6771,0.7294,0.7686,0.8344,0.9622,1.0487,1.1156,1.1932,1.2024,1.2064,0.0,0.0,0.0,0.99,0.8985,0.8316,0.804,0.764,0.7242,0.6926,0.7065,0.7058,0.7074,0.7081,0.5188,0.1518,0.0517,-0.067,-0.188,-0.336,-0.4894,-0.6278,-0.6271,-0.6264,-0.6338,-0.6338,-0.6338,-0.6338,-0.6338,-0.6338,-0.6338,-0.6338,-0.6264,-0.6268,-0.6264,-0.6196,-0.6088,-0.5932,-0.6133,-0.6452,-0.6348,-0.6907,-0.7502,-0.7502,-0.7767,-0.8027,-0.8027,-0.842,-0.8812,-0.8812,-0.9262,-0.9646,-0.9646,-0.9646,-0.9646,-0.9646,-0.9646,-0.9591,-0.9419,-0.9242,-0.912,-0.8956,-0.9484,-0.9885,-0.9638,-0.9477,-0.9263,-0.8857,-0.8804,-0.8804,-0.8804,-0.8804,-0.8804,-0.8804,-0.8804,-0.8804,-0.8804,-0.8804,-0.8804,-0.8804,-0.8804,-0.8804,-0.8804,-0.8804,-0.8804,-0.8804,-0.8804,-0.8804,0.7351,0.7879,0.8173,0.6984,0.7991,0.9064,0.8075,0.8351,0.8784,0.8418,0.8191,0.7905,0.7418,0.6885,0.6889,0.8028,0.85,0.9232,1.065,1.1452,1.1971,0.0,0.0,0.0,0.0,0.0,0.0,1.121,0.0,0.9316,0.8229,0.8495,0.8195,0.7025,0.7068,0.7139,0.7139,0.7074,0.5997,0.3748,0.1485,0.0342,0.0334,0.0082,-0.2157,-0.596,-0.6197,-0.6271,-0.6338,-0.6338,-0.6338,-0.6338,-0.6338,-0.6338,-0.6338,-0.6338,-0.6268,-0.6278,-0.6268,-0.6264,-0.6237,-0.6081,-0.5932,-0.5786,-0.5637,-0.6086,-0.6666,-0.6658,-0.7242,-0.7897,-0.7897,-0.7897,-0.7962,-0.7962,-0.7962,-0.8027,-0.8027,-0.8027,-0.8027,-0.8027,-0.8027,-0.8027,-0.8027,-0.7721,-0.7519,-0.7519,-0.7996,-0.8515,-0.9049,-0.8944,-0.8824,-0.8804,-0.8804,-0.8804,-0.8804,-0.8804,-0.8804,-0.8804,-0.8804,-0.8804,-0.8804,-0.8804,-0.8804,-0.8804,-0.8804,-0.8804,-0.8804,-0.8804,-0.8804,-0.8804,-0.8804,-0.8804,0.9553,0.9447,0.9254,0.8954,0.9072,0.9175,0.863,0.9073,0.9291,0.8143,0.865,0.8866,0.765,0.7666,0.8021,0.8452,0.9197,0.0,1.0989,1.1942,0.0,1.2939,0.0,1.4201,1.4282,1.5034,0.0,0.0,1.2382,1.0881,1.0909,0.9466,0.8589,0.8384,0.7559,0.7139,0.7139,0.7074,0.6811,0.6174,0.562,0.3463,0.0084,0.0,-0.0551,-0.1799,-0.4935,-0.6278,-0.6274,-0.6264,-0.6338,-0.6338,-0.6338,-0.6338,-0.6338,-0.6338,-0.6264,-0.6268,-0.6271,-0.6274,-0.6325,-0.6249,-0.6088,-0.5925,-0.5667,-0.5696,-0.5841,-0.5785,-0.5881,-0.6079,-0.6079,-0.6531,-0.7046,-0.7046,-0.7502,-0.8027,-0.8027,-0.8027,-0.8027,-0.8027,-0.8027,-0.8027,-0.8027,-0.7911,-0.7876,-0.7876,-0.7809,-0.7881,-0.8208,-0.8718,-0.9045,-0.8831,-0.8804,-0.8804,-0.8804,-0.8804,-0.8804,-0.8804,-0.8804,-0.8804,-0.8804,-0.8804,-0.8804,-0.8804,-0.8804,-0.8804,-0.8804,-0.8804,-0.8804,-0.8804,-0.8804,-0.8804,1.0324,1.0512,1.0486,0.9925,1.022,1.0399,0.952,0.9737,0.9843,0.8634,0.8847,0.8948,0.7889,0.7907,0.8327,0.0,0.0,0.0,1.159,1.2645,1.3536,0.0,1.4545,0.0,1.5701,1.6236,1.6688,0.0,1.443,1.2915,1.265,1.1115,0.9885,0.8886,0.8281,0.7665,0.7139,0.7064,0.7071,0.7068,0.7035,0.5091,0.1505,0.0485,0.0,-0.0157,-0.2501,-0.4621,-0.6285,-0.6278,-0.6278,-0.6278,-0.6278,-0.6274,-0.6268,-0.6268,-0.6268,-0.6271,-0.6278,-0.6281,-0.6271,-0.6263,-0.6187,-0.6098,-0.5919,-0.5701,-0.5507,-0.5488,-0.5413,-0.5428,-0.5428,-0.5752,-0.6141,-0.6141,-0.6531,-0.6859,-0.6859,-0.6859,-0.6859,-0.6859,-0.6859,-0.6859,-0.6859,-0.6859,-0.6859,-0.6859,-0.7021,-0.7144,-0.7171,-0.7808,-0.8217,-0.8076,-0.8058,-0.8058,-0.8058,-0.8007,-0.7942,-0.7942,-0.7895,-0.783,-0.783,-0.783,-0.783,-0.783,-0.8156,-0.8315,-0.8315,-0.8646,-0.8804,-0.8804,-0.8804,-0.8804,1.0739,1.1356,1.1656,1.0595,1.1301,1.1867,1.0369,1.028,1.0207,0.9359,0.0,0.8619,0.8065,0.8012,0.8473,0.9583,0.0,1.1591,1.2376,1.3518,1.4449,1.4972,1.5614,1.6365,1.7301,1.7605,1.7822,1.7937,1.6701,1.532,1.3845,1.2859,1.13,0.8978,0.889,0.8277,0.7139,0.7122,0.7112,0.7109,0.6873,0.5788,0.3918,0.1548,0.024,0.0,0.0,-0.2112,-0.55,-0.5736,-0.5892,-0.5892,-0.5892,-0.5886,-0.5879,-0.62,-0.6281,-0.6281,-0.6285,-0.6291,-0.6298,-0.6298,-0.6133,-0.5868,-0.5888,-0.5696,-0.5557,-0.5579,-0.5467,-0.5432,-0.5432,-0.5432,-0.5432,-0.5432,-0.5432,-0.5432,-0.5432,-0.5432,-0.5428,-0.5428,-0.5428,-0.5428,-0.5428,-0.5428,-0.5428,-0.5428,-0.6075,-0.6404,-0.6121,-0.6743,-0.7156,-0.7126,-0.7121,-0.7121,-0.7121,-0.6977,-0.6904,-0.6904,-0.6704,-0.6588,-0.6588,-0.6588,-0.6588,-0.6588,-0.7235,-0.7563,-0.7563,-0.8209,-0.848,-0.848,-0.848,-0.848,1.2964,1.3017,1.2883,1.2718,1.2339,1.179,1.0994,1.0296,0.0,0.0,0.8797,0.862,0.8288,0.9234,1.0082,1.0064,0.0,0.0,0.0,0.0,1.4827,0.0,0.0,0.0,1.9773,2.1388,0.0,0.0,2.014,1.8276,1.5427,1.3393,1.13,0.8978,0.889,0.8277,0.7139,0.7024,0.6966,0.6963,0.6874,0.6569,0.5963,0.3657,0.1648,0.0,0.0,0.0,-0.1252,-0.2971,-0.3673,-0.3673,-0.3673,-0.3673,-0.3908,-0.5652,-0.6291,-0.6295,-0.6315,-0.6322,-0.6322,-0.6302,-0.5085,-0.3625,-0.363,-0.4812,-0.6051,-0.5573,-0.541,-0.5389,-0.5389,-0.5389,-0.5389,-0.5389,-0.5389,-0.5389,-0.5389,-0.5382,-0.5376,-0.5376,-0.5369,-0.5428,-0.5428,-0.5428,-0.5428,-0.5428,-0.5557,-0.5613,-0.5519,-0.6641,-0.7318,-0.7141,-0.7121,-0.7121,-0.7121,-0.6977,-0.6904,-0.6904,-0.6704,-0.6588,-0.6588,-0.6588,-0.6588,-0.6588,-0.675,-0.6804,-0.6804,-0.6912,-0.6966,-0.6966,-0.6966,-0.6966,1.3607,1.354,1.34,1.3247,1.2418,1.1443,1.0701,0.0,0.0,0.0,0.8712,0.8832,0.8539,0.9538,0.0,0.0,0.0,0.0,0.0,0.0,0.0,0.0,0.0,0.0,0.0,2.2903,2.3073,2.2103,2.0988,1.9261,1.6675,1.3833,1.1552,0.9836,0.9134,0.8229,0.7031,0.6881,0.681,0.6807,0.6675,0.6659,0.6582,0.5305,0.4226,0.3132,0.0938,0.0,0.0078,0.133,0.0469,-0.1487,-0.1486,-0.1485,-0.1641,-0.266,-0.368,-0.4623,-0.4631,-0.5355,-0.6329,-0.6315,-0.4084,-0.1477,-0.1499,-0.2204,-0.3175,-0.3956,-0.4076,-0.4028,-0.4028,-0.4028,-0.4028,-0.4028,-0.4228,-0.4364,-0.4095,-0.4703,-0.5379,-0.5386,-0.5379,-0.5369,-0.5369,-0.5369,-0.5369,-0.5369,-0.5376,-0.5379,-0.5379,-0.5963,-0.6386,-0.6223,-0.6211,-0.6211,-0.6211,-0.6039,-0.5955,-0.5868,-0.5781,-0.5648,-0.5508,-0.5592,-0.5596,-0.55,-0.5878,-0.6036,-0.6036,-0.6421,-0.6588,-0.6588,-0.6588,-0.6588,1.3514,1.35,1.3394,1.3166,1.2284,1.1308,1.0479,0.998,0.0,0.0,0.8853,0.9132,0.8888,0.0,1.0386,0.0,1.1494,0.0,0.0,0.0,0.0,0.0,0.0,0.0,2.3616,2.4036,0.0,2.2403,2.0921,1.9201,1.709,1.4441,1.2324,1.0877,0.9822,0.8632,0.7215,0.7054,0.6894,0.6651,0.6498,0.6517,0.6534,0.6407,0.6281,0.6129,0.2817,0.1095,0.0939,0.4245,0.3932,0.1333,0.0861,0.0626,0.0626,0.0626,-0.0391,-0.1793,-0.1793,-0.3763,-0.6325,-0.6291,-0.3435,0.0,0.0,0.0,-0.0359,-0.1954,-0.2317,-0.2144,-0.2144,-0.2144,-0.2144,-0.2144,-0.2477,-0.288,-0.3222,-0.3758,-0.4228,-0.4233,-0.4567,-0.497,-0.5312,-0.5382,-0.5246,-0.49,-0.4843,-0.4846,-0.4846,-0.4846,-0.484,-0.4821,-0.5163,-0.5369,-0.5369,-0.523,-0.5094,-0.5037,-0.4908,-0.4703,-0.4577,-0.4596,-0.4585,-0.4519,-0.5003,-0.5269,-0.5269,-0.5878,-0.6154,-0.6154,-0.6154,-0.6154,1.31,1.3046,1.2896,1.2876,1.2381,1.1739,1.102,0.0,0.0,0.9193,0.924,0.9444,0.9448,1.0186,1.1046,1.1628,0.0,1.3114,0.0,0.0,0.0,0.0,0.0,0.0,2.4815,2.5664,2.5429,2.3514,2.071,1.8132,1.5944,1.5331,1.4028,1.181,1.1404,1.0222,0.8111,0.7926,0.7441,0.6491,0.6349,0.6359,0.6362,0.6271,0.6271,0.6278,0.5883,0.4616,0.0,0.3203,0.4307,0.55,0.3597,0.2812,0.2812,0.2812,0.2733,0.2496,0.2496,-0.1328,-0.6308,-0.6325,-0.3423,0.0,0.0,0.0,-0.007,-0.0205,-0.027,-0.0269,-0.0269,-0.0269,-0.0269,-0.0269,-0.0269,-0.1212,-0.4476,-0.2691,-0.0469,-0.0469,-0.1808,-0.3485,-0.5119,-0.5393,-0.4846,-0.3215,-0.2947,-0.2947,-0.2947,-0.2947,-0.2947,-0.2945,-0.4434,-0.5393,-0.5393,-0.5394,-0.5364,-0.5325,-0.4813,-0.4591,-0.467,-0.4551,-0.4532,-0.4519,-0.457,-0.457,-0.457,-0.468,-0.468,-0.468,-0.468,-0.468,1.2552,1.2705,1.2858,1.3117,1.2474,1.168,1.1218,0.0,1.0211,0.9492,0.9667,1.0079,1.037,1.0924,1.1675,1.2519,1.3057,1.4041,1.5845,0.0,0.0,0.0,0.0,0.0,0.0,0.0,2.559,2.2793,2.0969,1.9052,1.6993,1.5889,1.4467,1.258,1.1702,1.0306,0.8078,0.7977,0.7348,0.6342,0.6288,0.6338,0.6338,0.6338,0.6264,0.6268,0.6274,0.5802,0.0,0.501,0.5569,0.6213,0.5329,0.5012,0.5018,0.5018,0.5018,0.5018,0.5018,0.3254,0.0764,-0.0454,0.0222,0.144,0.0357,0.0,0.0,0.0,0.0,0.0,0.0,0.0,0.0,0.0,0.0807,0.1543,0.1209,-0.0335,-0.1003,0.1204,0.1069,0.02,-0.0867,-0.1667,-0.1935,-0.12,-0.0133,0.0534,0.0534,0.0534,0.0534,0.0534,-0.2072,-0.3758,-0.3758,-0.3789,-0.3803,-0.3798,-0.4603,-0.4901,-0.4598,-0.4711,-0.4635,-0.4484,-0.4477,-0.4473,-0.4473,-0.4522,-0.4519,-0.4519,-0.4519,-0.4519,1.1837,1.2349,1.2813,1.3164,1.2666,1.2047,0.0,1.1217,1.0696,0.9892,1.0147,1.0611,1.0943,1.1397,1.2099,0.0,1.3762,1.4635,1.6622,1.6917,0.0,0.0,0.0,2.3859,0.0,2.5871,2.4847,2.2548,2.1285,1.9971,1.8392,1.6775,1.5103,1.3311,1.2126,1.0682,0.8815,0.8453,0.7706,0.6718,0.6412,0.6338,0.6338,0.6338,0.6338,0.6338,0.6271,0.6274,0.0,0.6274,0.6278,0.6285,0.6278,0.6278,0.6285,0.6285,0.6257,0.6217,0.6217,0.6049,0.5619,0.4075,0.3528,0.3281,0.2012,0.0831,0.0,0.0,0.074,0.1616,0.1616,0.1212,0.0807,0.0807,0.1743,0.3218,0.4995,0.241,0.0267,0.2341,0.3149,0.3351,0.2941,0.2135,0.16,0.16,0.2674,0.3487,0.3487,0.3487,0.3487,0.3487,0.1202,-0.0534,-0.1069,-0.1605,-0.1924,-0.1887,-0.3101,-0.3843,-0.3949,-0.4027,-0.4004,-0.3814,-0.3805,-0.4027,-0.4484,-0.4477,-0.4525,-0.4522,-0.4522,-0.4522,1.0929,1.1819,1.2729,1.2729,1.304,1.3146,0.0,1.1814,1.1361,1.0459,1.0687,1.0971,1.1019,1.1442,1.2313,1.3852,1.4098,1.4812,1.6814,1.819,0.0,0.0,0.0,2.342,2.3884,2.3575,2.3344,2.3278,2.1633,0.0,1.9865,1.8171,1.6237,1.4246,1.2973,1.1774,1.0789,0.982,0.877,0.7783,0.6795,0.6338,0.6338,0.6338,0.6338,0.6338,0.6338,0.6338,0.0,0.6338,0.6338,0.6338,0.6338,0.6338,0.6338,0.6338,0.6166,0.6034,0.6034,0.6022,0.596,0.5734,0.5547,0.5382,0.5376,0.2818,0.0,0.0,0.2551,0.5343,0.5343,0.4036,0.2678,0.2678,0.2678,0.3215,0.4986,0.5329,0.4779,0.3013,0.4164,0.5396,0.5396,0.5329,0.5326,0.5326,0.5329,0.5396,0.5396,0.5396,0.5396,0.5396,0.5326,0.4573,0.2811,0.1004,-0.0,-0.0,-0.0065,-0.0888,-0.2647,-0.2385,-0.2251,-0.2233,-0.2232,-0.2961,-0.4497,-0.4497,-0.449,-0.448,-0.448,-0.4473,1.0478,1.1085,1.1584,1.2141,1.2385,1.2387,1.1854,1.1925,1.1839,1.0948,1.1207,1.1653,1.1982,1.2378,1.3396,1.5531,1.6112,0.0,0.0,0.0,0.0,2.2372,2.4597,2.5896,0.0,0.0,2.3942,2.2452,2.1246,2.0268,1.9519,1.7791,1.6183,1.4905,1.3797,1.2492,1.0783,1.049,0.982,0.8841,0.7783,0.7326,0.7326,0.6644,0.6338,0.6338,0.6338,0.6338,0.6338,0.6338,0.6338,0.6338,0.6338,0.6338,0.6247,0.6142,0.6071,0.6013,0.5911,0.5783,0.5731,0.5682,0.5525,0.5433,0.5386,0.457,0.3701,0.3701,0.3629,0.383,0.5059,0.4986,0.4573,0.4573,0.4567,0.47,0.5246,0.5382,0.5243,0.4688,0.5036,0.5382,0.5372,0.5372,0.5372,0.5372,0.5372,0.5372,0.5372,0.5372,0.5372,0.5372,0.5372,0.5173,0.4573,0.403,0.3151,0.1939,0.1824,0.1456,0.0675,0.0773,0.0806,0.078,-0.0167,-0.0946,-0.1448,-0.2456,-0.3469,-0.449,-0.449,-0.4484,0.0,1.0424,1.1011,1.1756,1.2195,1.2338,1.1945,1.2089,1.2165,1.1443,1.1726,1.2198,1.2637,1.311,1.4098,1.6224,1.6766,1.76,0.0,0.0,0.0,2.3762,0.0,0.0,0.0,2.5314,2.4248,2.2932,2.1729,2.0719,1.9824,1.8402,1.7033,1.579,1.4378,1.2931,1.1391,1.1013,1.0484,0.982,0.8841,0.8389,0.8313,0.7326,0.6872,0.6872,0.6872,0.6872,0.0,0.6872,0.6872,0.6788,0.6346,0.6173,0.6156,0.6,0.5911,0.5847,0.61,0.5898,0.5569,0.5902,0.5769,0.5428,0.5432,0.5109,0.4785,0.5269,0.4576,0.3956,0.5113,0.5386,0.5382,0.5382,0.5376,0.5372,0.5372,0.5372,0.5369,0.5428,0.5693,0.576,0.5428,0.5947,0.6272,0.5947,0.6141,0.6404,0.6404,0.6404,0.6404,0.6404,0.6075,0.5885,0.5903,0.5582,0.4909,0.382,0.3694,0.3594,0.3208,0.3142,0.3047,0.3077,0.2174,0.1393,0.0835,-0.0278,-0.1503,-0.2794,-0.3183,-0.3463,0.0,0.9911,1.0897,1.1407,1.2241,1.2778,1.2351,1.2392,0.0,1.1974,1.2282,1.2766,1.3191,1.3715,1.4587,1.6228,1.657,1.7407,0.0,2.07,0.0,0.0,2.4765,0.0,2.5531,2.4888,2.4408,2.4292,2.2834,2.1616,2.0719,1.9824,1.8479,1.6766,1.4871,1.3455,1.2445,1.1459,1.1007,1.0864,0.9895,0.9372,0.9372,0.8389,0.7936,0.0,0.7936,0.7936,0.7936,0.7918,0.7838,0.774,0.6592,0.6159,0.6141,0.6057,0.5913,0.5928,0.672,0.634,0.5686,0.6527,0.6268,0.5561,0.5572,0.4691,0.3949,0.5183,0.5519,0.5509,0.5575,0.5568,0.5557,0.5557,0.5557,0.5557,0.5557,0.5557,0.5557,0.5557,0.6268,0.6527,0.5752,0.6924,0.7697,0.6915,0.7502,0.8027,0.8027,0.8027,0.8027,0.8027,0.7307,0.6785,0.6785,0.5954,0.5376,0.5376,0.5386,0.526,0.4904,0.4639,0.4502,0.4501,0.4494,0.3811,0.2343,0.1946,0.1222,0.0278,-0.0777,-0.1501,0.8295,0.0,1.0258,1.0959,1.1562,1.2003,0.0,1.2707,1.3338,1.2885,0.0,1.4238,1.4802,1.5296,1.6232,1.8129,1.9132,2.0032,2.1124,0.0,0.0,2.6647,2.6907,2.6688,2.6318,2.609,2.5508,2.4408,2.3348,2.2433,2.1616,2.0139,1.8803,1.76,1.6531,1.5084,1.3382,1.3157,1.2645,1.1922,1.0938,1.0415,1.0415,0.9367,0.8917,0.8917,0.8917,0.8917,0.8903,0.8654,0.8582,0.8489,0.7992,0.7842,0.7819,0.7697,0.7596,0.7599,0.7702,0.7611,0.7442,0.7632,0.7572,0.7377,0.7381,0.6268,0.5226,0.6374,0.656,0.6531,0.7186,0.7381,0.7377,0.7377,0.7377,0.7377,0.7377,0.7377,0.7377,0.7377,0.7572,0.7632,0.7442,0.7702,0.7962,0.7697,0.7897,0.8027,0.8027,0.8027,0.8027,0.8027,0.7827,0.7697,0.7697,0.6276,0.5432,0.5432,0.5369,0.5237,0.4942,0.4864,0.4723,0.4532,0.448,0.4317,0.3981,0.3863,0.3694,0.3413,0.2006,0.0667,0.8164,0.917,1.0278,1.093,1.1752,1.2501,1.273,0.0,0.0,0.0,0.0,1.4745,1.5618,1.5941,1.6804,1.9038,1.9842,0.0,0.0,0.0,2.6123,2.7795,2.7993,2.7745,0.0,2.6721,2.6014,2.4908,2.4053,2.311,2.1939,2.0655,1.9465,1.8572,1.7552,1.612,1.4386,1.3954,1.3455,1.2952,1.1983,1.1465,1.1459,1.0302,0.9807,0.9802,0.9615,0.9567,0.9556,0.9349,0.9291,0.9269,0.8553,0.8329,0.8304,0.8158,0.8077,0.8129,0.8463,0.8613,0.8549,0.8156,0.8027,0.8027,0.8027,0.7312,0.6732,0.7339,0.7391,0.7372,0.7897,0.8027,0.8027,0.8027,0.8027,0.8027,0.8027,0.8027,0.8027,0.8027,0.8355,0.8484,0.8091,0.8672,0.9064,0.8678,0.8935,0.9192,0.9192,0.9192,0.9192,0.9192,0.8807,0.8613,0.8613,0.7381,0.6601,0.6601,0.6601,0.6471,0.6182,0.573,0.5177,0.4522,0.4525,0.4639,0.4967,0.4643,0.4477,0.4467,0.3627,0.2845,0.8477,0.9611,1.0853,1.1196,1.2433,1.3666,1.4022,0.0,0.0,0.0,0.0,0.0,0.0,1.6576,0.0,0.0,0.0,0.0,2.5288,2.6233,2.7025,2.8356,2.8415,0.0,2.766,2.7034,2.6336,2.5618,2.4813,2.3658,2.2238,2.1093,2.0176,1.9284,1.8096,1.6817,1.5418,1.4434,1.3803,1.3524,1.2739,1.231,1.2158,1.1031,1.0563,1.0551,1.0253,0.0,1.0152,1.0047,1.0099,0.9937,0.894,0.858,0.8559,0.8424,0.8415,0.8479,0.9268,0.953,0.9402,0.8613,0.8415,0.8415,0.8415,0.8415,0.8415,0.8415,0.8285,0.8221,0.835,0.8415,0.8415,0.8415,0.8415,0.8415,0.8415,0.8415,0.8415,0.8415,0.9005,0.9268,0.8544,0.9646,1.0364,0.9594,1.011,1.0624,1.0624,1.0624,1.0624,1.0624,1.004,0.9716,0.9716,0.9116,0.8784,0.8784,0.8243,0.779,0.7588,0.6713,0.5814,0.4849,0.4846,0.5113,0.5651,0.5113,0.4835,0.4816,0.4846,0.4702,0.9414,1.0968,1.2224,1.1744,1.3155,1.4651,1.4676,0.0,0.0,0.0,0.0,0.0,0.0,1.8748,1.9617,0.0,0.0,2.4519,0.0,0.0,2.7079,2.8323,0.0,2.771,2.7625,2.7509,2.7137,2.6404,2.5171,2.4109,2.3232,2.1333,1.9934,1.9155,1.8246,1.7322,1.6455,1.551,1.4313,1.2862,1.2733,1.2246,1.1557,1.1372,1.1283,1.1207,0.0,1.1142,1.1129,1.0955,1.0856,1.0757,1.0413,1.0232,1.0226,1.0187,1.0168,1.0231,1.0364,1.0428,1.0364,1.0231,1.0168,1.0168,1.0168,1.0168,1.0168,1.0168,0.9652,0.9268,1.004,1.0168,1.0168,1.0168,1.0168,1.0168,1.0168,1.0168,1.0168,1.0168,1.0301,1.0364,1.0231,1.0428,1.0555,1.0434,1.0498,1.0624,1.0624,1.0624,1.0624,1.0624,1.1101,1.1392,1.1392,1.1943,1.2251,1.2251,0.9327,0.7431,0.7019,0.6687,0.6435,0.6263,0.6263,0.6312,0.6421,0.6312,0.6258,0.6253,0.6263,0.5655,0.9388,1.09,1.2246,1.2449,1.4166,1.5877,1.6363,1.6795,0.0,0.0,0.0,0.0,0.0,0.0,2.1161,2.3217,0.0,2.6618,2.8228,2.7955,2.7905,0.0,0.0,2.7944,2.7625,2.7245,2.6772,2.6029,2.5052,2.417,2.3447,2.1741,2.0409,1.968,1.824,1.7144,1.6367,1.5685,1.4899,1.4082,1.3176,1.2706,1.2751,1.2107,1.2094,1.2482,0.0,1.2034,1.1639,1.1496,1.1198,1.0742,1.0672,1.0624,1.0624,1.0624,1.0624,1.0624,1.0624,1.0624,1.0624,1.0624,1.0624,1.0624,1.0624,1.0926,1.1226,1.1226,1.0667,1.011,1.0498,1.0926,1.117,1.0681,1.1233,1.1787,1.1351,1.16,1.1911,1.1911,1.1911,1.1911,1.1911,1.1911,1.1911,1.1911,1.1911,1.1911,1.1911,1.1911,1.1911,1.1911,1.2212,1.2451,1.2451,1.2765,1.2926,1.2677,1.1099,0.9551,0.8199,0.8068,0.7569,0.6642,0.6588,0.6804,0.7182,0.6804,0.6804,0.7182,0.6804,0.6253,0.9556,1.0913,1.2352,1.3453,1.5111,1.6769,1.7933,1.8045,0.0,0.0,0.0,0.0,0.0,2.0991,0.0,2.5346,2.6792,2.8013,2.9354,2.8763,2.8411,2.9086,2.8388,2.7618,2.716,2.6662,2.6139,2.5567,2.4611,2.3893,2.3492,2.181,2.0582,2.0021,1.8418,1.7122,1.6198,1.5869,1.5425,1.5052,1.3705,1.3257,1.3632,1.2772,1.2711,1.3271,1.3063,1.2634,1.2081,1.2081,1.1593,1.0863,1.0863,1.0863,1.0926,1.1115,1.1178,1.1178,1.1178,1.1178,1.1178,1.1178,1.1178,1.1178,1.1178,1.16,1.2081,1.2081,1.1655,1.1178,1.1178,1.1593,1.1958,1.1296,1.2089,1.2826,1.2205,1.2573,1.3009,1.3009,1.3009,1.3009,1.3009,1.3009,1.3009,1.3009,1.3009,1.3009,1.3009,1.3009,1.3009,1.3009,1.3191,1.333,1.3425,1.3536,1.3386,1.2907,1.2436,1.1351,0.9634,0.9559,0.8965,0.7587,0.7433,0.7706,0.8448,0.77,0.77,0.8396,0.7853,0.7427,1.0588,1.1895,1.3302,1.4919,1.5827,1.6778,1.8605,1.9647,0.0,2.1854,0.0,0.0,0.0,2.2883,2.4472,2.6768,2.7656,2.8549,3.0029,0.0,2.7776,2.8382,2.6886,2.5796,2.5749,2.5704,2.5627,2.558,2.3869,2.3063,2.3655,2.1279,1.9834,1.972,1.8975,1.7897,1.6488,1.6446,1.57,1.4294,1.4174,1.3752,1.3083,1.2997,1.2981,1.3042,1.3025,1.2948,1.2887,1.2887,1.2451,1.171,1.171,1.171,1.1772,1.2573,1.2826,1.2826,1.2826,1.2826,1.2826,1.2826,1.2826,1.2826,1.2826,1.2887,1.2887,1.2887,1.2887,1.2826,1.2826,1.2887,1.2887,1.2826,1.2948,1.3009,1.2948,1.2948,1.3009,1.3009,1.3009,1.3009,1.3009,1.3009,1.3009,1.3009,1.3009,1.3009,1.3009,1.3009,1.3009,1.3009,1.3674,1.4236,1.4628,1.5195,1.5137,1.4296,1.2429,1.1162,1.071,1.0694,1.0635,1.0501,0.9902,0.9902,1.0559,0.9902,0.9902,1.0559,1.0501,0.982,1.0451,1.201,1.3753,1.5049,1.6279,0.0,0.0,2.0925,2.224,2.3713,2.4186,0.0,0.0,0.0,2.5638,2.675,2.7898,2.8846,2.9398,2.8551,2.7821,2.7721,2.6782,2.5955,2.5615,2.5241,2.5001,2.5001,2.3922,2.3223,2.31,2.1753,2.0581,1.971,1.9061,1.8221,1.7202,1.6708,1.6197,1.5613,1.4678,1.4332,1.451,1.3965,1.4025,1.451,1.451,1.4213,1.3734,1.3734,1.3243,1.2573,1.2573,1.2573,1.2573,1.2887,1.3009,1.3009,1.3009,1.3009,1.3009,1.3009,1.3009,1.3009,1.3009,1.3373,1.3734,1.3734,1.4094,1.4273,1.3252,1.3364,1.3606,1.313,1.3786,1.4392,1.3846,1.4145,1.451,1.451,1.451,1.4619,1.508,1.5187,1.5352,1.5783,1.584,1.584,1.584,1.584,1.584,1.584,1.5833,1.5684,1.5395,1.5426,1.5332,1.5001,1.421,1.3442,1.2667,1.222,1.1837,1.1373,1.0754,1.0568,1.0813,1.0568,1.0559,1.0813,1.0813,1.0501,1.1067,1.265,1.4424,1.537,0.0,0.0,2.0599,2.1909,2.3192,2.4954,2.5045,2.4912,2.5154,0.0,0.0,0.0,2.7926,2.8704,2.8941,2.8277,2.7594,2.704,2.6267,2.5553,2.5017,2.4567,2.4253,2.4253,2.3688,2.3231,2.3009,2.2007,2.1073,2.0356,1.9329,1.8424,1.7721,1.718,1.6807,1.6597,1.5696,1.5313,1.541,1.5099,1.5216,1.5748,1.5968,1.5671,1.4914,1.4914,1.4314,1.3364,1.3364,1.3537,1.376,1.4007,1.4236,1.4436,1.4258,1.4212,1.4194,1.4008,1.3972,1.3972,1.3972,1.4316,1.4781,1.4781,1.514,1.5395,1.4417,1.439,1.4501,1.4195,1.4972,1.568,1.5361,1.5718,1.6083,1.6083,1.6083,1.6244,1.6754,1.6877,1.7034,1.7523,1.7578,1.7578,1.7578,1.7578,1.7522,1.7366,1.7042,1.6466,1.5648,1.562,1.555,1.538,1.5556,1.5163,1.4054,1.3632,1.3137,1.2686,1.1828,1.1548,1.1756,1.1308,1.1225,1.1484,1.1484,1.1325,1.2733,1.4027,1.5475,0.0,0.0,0.0,2.1793,2.2605,2.3535,2.5603,2.5213,2.498,2.642,2.549,0.0,2.7435,2.7807,2.8078,2.8856,2.7918,2.6896,2.6358,2.5161,2.4199,2.3681,2.3595,2.3595,2.3595,2.3054,2.2965,2.3537,2.1805,2.1051,2.1635,1.9937,1.8647,1.793,1.7879,1.7519,1.6788,1.7332,1.6845,1.5468,1.6208,1.6482,1.6539,1.7302,1.7191,1.6472,1.6472,1.5603,1.4195,1.4195,1.4632,1.5408,1.6224,1.6968,1.75,1.6955,1.6788,1.6699,1.6169,1.6014,1.6014,1.6014,1.6014,1.6014,1.6014,1.6014,1.6125,1.6655,1.6116,1.5565,1.6312,1.6482,1.6708,1.7468,1.7622,1.7567,1.7567,1.7567,1.7567,1.7622,1.7622,1.7622,1.7622,1.7622,1.7622,1.7611,1.7611,1.7431,1.6886,1.683,1.6387,1.5397,1.5926,1.609,1.5668,1.6194,1.5976,1.4744,1.4698,1.4698,1.4698,1.3443,1.312,1.3826,1.2444,1.2187,1.2929,1.2929,1.2501,1.2453,1.4016,0.0,1.6831,0.0,0.0,0.0,2.4297,0.0,0.0,2.7028,2.664,2.6048,2.5981,0.0,2.6234,2.6939,2.7448,2.7402,2.73,2.6962,2.6163,2.5426,2.4752,2.4225,2.3837,2.3415,2.2981,2.281,2.2376,2.1624,2.1025,2.0631,2.0378,1.9456,1.8866,1.8665,1.7776,1.7234,1.6985,1.6627,1.6642,1.6968,1.7191,1.7071,1.6742,1.6957,1.6705,1.6134,1.6134,1.586,1.5478,1.5478,1.5574,1.5838,1.6081,1.6291,1.6476,1.628,1.6236,1.6203,1.6058,1.6014,1.6014,1.6014,1.6014,1.6014,1.6014,1.6014,1.6047,1.6192,1.6025,1.6095,1.7038,1.7246,1.7357,1.7578,1.7299,1.7064,1.7064,1.6732,1.6755,1.7682,1.7792,1.796,1.8512,1.8564,1.857,1.8595,1.8917,1.8909,1.8196,1.7931,1.7442,1.665,1.6823,1.6935,1.6799,1.734,1.7133,1.6008,1.5555,1.532,1.532,1.4538,1.4226,1.4422,1.3616,1.3521,1.4154,1.3742,1.3627,1.3816,1.5411,0.0,1.8253,2.0496,2.2932,2.4825,0.0,0.0,0.0,2.7148,2.6759,2.615,2.6167,0.0,2.6275,2.6713,2.7019,2.6971,2.6779,2.6349,2.5587,2.5004,2.4335,2.3623,2.3295,2.2873,2.2349,2.2278,2.1962,2.1152,2.0862,2.0514,2.0188,1.9405,1.8976,1.8976,1.8222,1.7718,1.7557,1.7506,1.7603,1.785,1.7525,1.7197,1.6911,1.6911,1.674,1.6405,1.6115,1.6014,1.6014,1.6014,1.6305,1.6729,1.6729,1.7061,1.746,1.7229,1.7156,1.7119,1.6912,1.6839,1.6839,1.6839,1.6839,1.6839,1.6839,1.6839,1.6888,1.7107,1.7156,1.7183,1.737,1.742,1.7514,1.8021,1.7924,1.7747,1.797,1.7703,1.7738,1.853,1.8629,1.8798,1.9279,1.9326,1.9336,1.9301,1.9605,1.9527,1.8835,1.8585,1.8206,1.7544,1.7567,1.7626,1.7626,1.7907,1.7827,1.7146,1.6786,1.6591,1.6591,1.6022,1.5596,1.5386,1.4982,1.4846,1.5028,1.4653,1.4653,1.5921,0.0,0.0,1.9947,2.1649,0.0,2.6471,2.6813,2.6622,2.6791,0.0,2.5978,2.6622,2.6183,2.6026,2.7034,2.6901,2.6754,2.7034,2.6216,2.5376,2.4827,2.4131,2.3367,2.2524,2.2353,2.211,2.1723,2.1644,2.1575,2.1515,2.0921,2.0592,2.0592,1.9502,1.8921,1.8921,1.8838,1.8601,1.8186,1.9184,1.9088,1.8088,1.752,1.7231,1.7134,1.7087,1.7063,1.7014,1.6367,1.6119,1.6119,1.6158,1.6882,1.7928,1.7928,1.8662,1.9565,1.903,1.8838,1.8742,1.8245,1.8106,1.8106,1.8106,1.8106,1.8106,1.8106,1.8106,1.823,1.8687,1.8838,1.854,1.7441,1.7267,1.7676,1.8839,1.9041,1.9123,1.9598,1.9688,1.9674,1.9729,1.9729,1.9729,1.9729,1.9732,1.9734,1.9734,1.9777,1.9556,1.9017,1.8921,1.87,1.8226,1.8185,1.8185,1.8185,1.8224,1.8263,1.8263,1.8145,1.8106,1.8106,1.7572,1.7027,1.6549,1.6418,1.615,1.568,1.5592,1.5592,1.4837,1.6386,0.0,0.0,2.189,2.399,2.5219,2.5634,2.6107,2.7373,2.7257,2.6988,2.7144,2.677,2.6451,2.6385,2.6329,2.6122,2.5576,2.5322,2.5043,2.4633,2.4066,2.3604,2.3401,2.2728,2.2062,2.1434,2.1077,2.0692,2.0154,1.9983,1.9909,1.9909,1.9243,1.8888,1.8888,1.8484,1.8219,1.8098,1.8357,1.8126,1.7522,1.8242,1.8147,1.7331,1.6826,1.664,1.664,1.6898,1.7015,1.7046,1.7489,1.7837,1.8058,1.8058,1.8235,1.8438,1.83,1.8259,1.8232,1.8147,1.8106,1.8106,1.8106,1.8106,1.8106,1.8106,1.8106,1.8133,1.8218,1.8259,1.8206,1.7948,1.8572,1.9311,1.9547,1.9255,1.8958,1.9084,1.8742,1.8604,1.903,1.9084,1.9084,1.9084,1.9081,1.9102,1.9102,1.9464,1.9662,1.9538,1.9132,1.8831,1.8741,1.8727,1.8727,1.8727,1.9132,1.9369,1.9369,1.8535,1.8106,1.8106,1.7973,1.784,1.772,1.7261,1.6972,1.6899,1.6421,1.6219,1.4722,0.0,0.0,2.0993,0.0,2.4143,2.502,2.5491,2.6022,2.7065,2.6836,2.6388,2.6242,2.6152,2.6061,2.5858,2.5834,2.5712,2.5302,2.4816,2.4402,2.4011,2.3402,2.2953,2.2732,2.2079,2.1455,2.0872,2.044,2.0064,1.9705,1.969,1.969,1.969,1.9442,1.9281,1.9281,1.9006,1.8727,1.8496,1.8727,1.8574,1.808,1.8158,1.8021,1.7731,1.7402,1.7271,1.7312,1.7585,1.7666,1.7706,1.7987,1.8263,1.8496,1.8496,1.865,1.8855,1.8855,1.8855,1.8855,1.8855,1.8855,1.8855,1.8855,1.9014,1.917,1.917,1.9302,1.9447,1.9207,1.917,1.9096,1.8916,1.8925,1.9059,1.9307,1.9121,1.8976,1.9212,1.907,1.8955,1.9233,1.9305,1.9305,1.9305,1.9299,1.9281,1.9281,1.953,1.9782,1.9965,1.9573,1.9339,1.9564,1.9376,1.9281,1.9281,1.9566,1.969,1.969,1.9169,1.8855,1.8855,1.8855,1.8727,1.8496,1.8416,1.826,1.8066,1.7746,1.7477,1.4403,0.0,1.918,2.2394,2.3487,0.0,2.49,2.541,2.5774,2.6109,2.587,2.5482,2.5157,2.5295,2.5429,2.5322,2.5244,2.5183,2.5093,2.4243,2.3515,2.3236,2.2682,2.2152,2.1764,2.1354,2.091,2.0449,2.0035,1.9782,1.9711,1.969,1.969,1.969,1.969,1.969,1.969,1.969,1.9479,1.9043,1.9406,1.9369,1.9006,1.8027,1.7787,1.8106,1.8106,1.8106,1.8106,1.8224,1.8263,1.8263,1.8341,1.865,1.9043,1.9043,1.9332,1.969,1.969,1.9747,1.9803,1.9803,1.9839,1.9909,1.9909,2.0174,2.0416,2.0416,2.0698,2.0926,2.0516,2.0416,2.0364,2.0015,1.9251,1.8698,1.8954,1.9043,1.9207,1.9696,1.9889,1.9909,1.9909,1.9909,1.9909,1.9909,1.9909,1.9909,1.9909,1.9909,2.0035,2.0382,2.0139,2.007,2.0382,2.0035,1.9803,1.9803,1.9747,1.969,1.969,1.969,1.969,1.969,1.969,1.9479,1.9043,1.9479,1.9406,1.8893,1.8893,1.8612,0.0,0.0,1.8986,0.0,2.2877,2.3336,0.0,0.0,2.4463,0.0,2.527,2.5821,2.5499,2.5464,2.527,2.4572,2.4287,2.3981,2.3548,2.292,2.2502,2.2446,2.2361,2.2282,2.2209,2.1794,2.1337,2.0926,2.0483,2.007,1.9711,1.969,1.969,1.969,1.969,1.969,1.969,1.969,1.9639,1.9603,1.9207,1.9207,1.9566,1.8968,1.8458,1.8106,1.8106,1.8106,1.8145,1.8612,1.8779,1.8855,1.9281,1.953,1.9603,1.9603,1.9639,1.969,1.969,1.9945,2.0212,2.0212,2.0483,2.0829,2.0829,2.0862,2.0894,2.0894,2.0959,2.1007,2.0926,2.0894,2.0894,2.0829,2.0715,2.0449,1.9732,1.9603,1.9732,2.0158,2.0565,2.0829,2.0829,2.0829,2.0829,2.0829,2.0829,2.0829,2.0829,2.0829,2.0829,2.0894,2.0862,2.0829,2.0894,2.0483,2.0212,2.0212,1.9909,1.969,1.969,1.969,1.969,1.969,1.969,1.9639,1.9603,1.969,1.9406,1.8893,1.8893,1.8612,1.3815,1.6462,1.8937,0.0,2.2747,2.3189,2.3189,0.0,2.419,2.419,2.4622,2.4889,2.4544,2.4649,2.4541,2.3797,2.372,2.3607,2.306,2.2721,2.2463,2.2338,2.231,2.231,2.231,2.1869,2.143,2.1023,2.055,2.0124,1.9711,1.969,1.969,1.969,1.969,1.969,1.969,1.969,1.969,1.969,1.9442,1.9479,1.969,1.9442,1.9207,1.9006,1.9006,1.9006,1.9006,1.9244,1.9369,1.9391,1.9859,2.0035,2.007,2.0345,2.0447,2.0447,2.0447,2.0532,2.0682,2.0682,2.0829,2.0991,2.0991,2.115,2.1337,2.1337,2.1524,2.1691,2.1399,2.1337,2.1275,2.1055,2.0991,2.091,2.0514,2.0447,2.0465,2.0665,2.0862,2.0991,2.0991,2.0991,2.0991,2.0991,2.0991,2.0991,2.0991,2.0991,2.1086,2.1306,2.1118,2.1086,2.1306,2.0943,2.0682,2.0682,2.0532,2.0447,2.0447,2.0174,2.0035,2.0035,2.0035,1.9945,1.969,1.9945,1.9788,1.9369,1.9369,1.9043,0.0,0.0,1.7776,2.056,2.2004,2.2772,0.0,0.0,2.419,0.0,2.419,2.4113,2.3876,2.4016,2.3976,2.3323,2.3414,2.3387,2.2849,2.2652,2.251,2.2321,2.231,2.231,2.231,2.1869,2.143,2.1023,2.055,2.0124,1.9711,1.969,1.969,1.969,1.969,1.969,1.969,1.969,1.969,1.969,1.9803,1.9839,1.9839,1.998,2.0015,2.0015,1.9782,1.9747,1.9839,1.9839,1.9909,2.005,2.0364,2.0483,2.0516,2.0862,2.0991,2.0991,2.0991,2.1055,2.115,2.115,2.1229,2.1323,2.1323,2.1538,2.1794,2.1794,2.2032,2.2209,2.1869,2.1794,2.1688,2.1385,2.1323,2.126,2.1055,2.1086,2.115,2.115,2.126,2.1323,2.1323,2.1323,2.1323,2.1323,2.1323,2.1323,2.1323,2.1323,2.1446,2.1764,2.1507,2.1446,2.1764,2.1399,2.115,2.115,2.1071,2.0991,2.0991,2.0649,2.0483,2.0483,2.0483,2.0227,1.969,2.0,2.0,1.969,1.969,1.9479,0.0,1.3171,0.0,1.7648,1.9911,0.0,0.0,0.0,2.419,2.419,2.419,2.419,2.417,2.419,2.3976,2.3323,2.3212,2.3093,2.2746,2.2473,2.231,2.231,2.231,2.231,2.231,2.1869,2.143,2.1023,2.055,2.0124,1.9711,1.969,1.969,1.969,1.969,1.969,1.969,1.969,1.969,1.9711,2.0089,2.028,2.028,2.0731,2.0926,2.091,2.005,1.9909,2.028,2.028,2.0516,2.0926,2.0975,2.0959,2.0959,2.0991,2.0991,2.0991,2.0991,2.1244,2.1552,2.1552,2.1869,2.2237,2.2237,2.2254,2.2254,2.2254,2.2282,2.2282,2.2282,2.2254,2.2254,2.2254,2.2237,2.202,2.1197,2.1306,2.1552,2.1552,2.1928,2.2237,2.2237,2.2237,2.2237,2.2237,2.2237,2.2237,2.2237,2.2237,2.2237,2.2254,2.2237,2.2237,2.2254,2.184,2.1552,2.1552,2.1213,2.0991,2.0991,2.0959,2.0959,2.0959,2.0959,2.0548,1.969,1.9711,1.9711,1.969,1.969,1.969,0.0,0.0,0.0,1.6641,1.8773,2.0377,2.1464,2.2833,2.3937,2.4151,2.419,2.419,2.419,2.419,2.3976,2.3323,2.3189,2.3014,2.2517,2.236,2.231,2.231,2.231,2.231,2.231,2.2152,2.1869,2.1399,2.1228,2.0975,2.0565,2.0532,2.0532,2.0532,2.0532,2.0532,2.0532,2.0532,2.0532,2.0548,2.0665,2.0764,2.0764,2.0926,2.0991,2.0991,2.0665,2.0632,2.0764,2.0764,2.0862,2.1039,2.1275,2.1399,2.1399,2.1721,2.184,2.184,2.184,2.1945,2.2032,2.2032,2.2163,2.231,2.231,2.231,2.231,2.231,2.231,2.231,2.231,2.231,2.231,2.231,2.231,2.2209,2.1915,2.1945,2.2032,2.2032,2.218,2.231,2.231,2.231,2.231,2.231,2.231,2.231,2.231,2.231,2.231,2.231,2.231,2.231,2.231,2.2152,2.2032,2.2032,2.1915,2.184,2.184,2.1554,2.1399,2.1399,2.1118,2.0698,2.0089,2.0089,1.9929,1.969,1.969,1.969,1.0754,0.0,0.0,0.0,0.0,1.8213,2.0328,0.0,2.2684,2.3367,2.3676,2.3858,2.3858,2.3976,2.3896,2.3437,2.3259,2.3014,2.2517,2.2377,2.231,2.231,2.231,2.231,2.231,2.2163,2.1928,2.1612,2.146,2.1275,2.0991,2.0991,2.0991,2.0991,2.0991,2.0991,2.0991,2.0991,2.0991,2.0991,2.115,2.1213,2.1213,2.1354,2.1432,2.1432,2.1432,2.1354,2.1213,2.1213,2.1291,2.1462,2.1735,2.1823,2.1869,2.218,2.231,2.231,2.231,2.231,2.231,2.231,2.231,2.231,2.231,2.231,2.231,2.231,2.231,2.231,2.231,2.231,2.231,2.231,2.231,2.231,2.231,2.231,2.231,2.231,2.231,2.2321,2.2426,2.2377,2.2321,2.2426,2.2377,2.231,2.231,2.231,2.231,2.231,2.231,2.231,2.231,2.231,2.231,2.231,2.231,2.231,2.231,2.2003,2.1823,2.1823,2.1415,2.1055,2.0748,2.0616,2.033,1.9909,1.9909,1.9854,0.0,0.0,0.0,0.0,0.0,0.0,1.884,0.0,2.0366,2.1754,2.2592,2.3124,2.3153,2.3459,2.3692,2.3692,2.3414,2.3069,2.2746,2.2463,2.231,2.231,2.231,2.231,2.231,2.1899,2.1612,2.1612,2.1244,2.1039,2.1039,2.1039,2.1039,2.1039,2.1039,2.1039,2.1039,2.1039,2.1039,2.1023,2.143,2.1612,2.1658,2.2106,2.231,2.231,2.231,2.2032,2.1642,2.1612,2.1899,2.231,2.231,2.231,2.231,2.2338,2.231,2.231,2.231,2.231,2.231,2.231,2.231,2.231,2.231,2.231,2.231,2.231,2.231,2.231,2.231,2.231,2.231,2.231,2.231,2.231,2.231,2.231,2.231,2.231,2.231,2.2388,2.2634,2.2463,2.2388,2.266,2.2463,2.231,2.231,2.231,2.231,2.231,2.231,2.231,2.231,2.231,2.231,2.231,2.231,2.231,2.231,2.231,2.231,2.231,2.1853,2.1612,2.1612,2.1181,2.0764,2.0314,2.028,2.0054,0.9044,0.0,0.0,0.0,0.0,0.0,0.0,0.0,1.7825,2.005,2.0672,2.1132,2.2207,2.2927,2.3346,2.3346,2.3259,2.3014,2.2508,2.2349,2.231,2.231,2.231,2.231,2.231,2.218,2.2106,0.0,2.2003,2.1945,2.1945,2.1945,2.1945,2.1945,2.1945,2.1945,2.1945,2.1945,2.1945,2.1945,2.2049,2.2106,2.2106,2.2237,2.2415,2.2573,2.2388,2.2326,2.2378,2.2186,2.218,2.2338,2.2527,2.2463,2.2349,2.2798,2.266,2.2321,2.2527,2.2463,2.231,2.231,2.2426,2.2599,2.2599,2.2599,2.2599,2.2599,2.2436,2.2349,2.2537,2.2599,2.2599,2.2599,2.2436,2.231,2.231,2.231,2.231,2.231,2.231,2.2321,2.2415,2.2349,2.2338,2.2415,2.2349,2.231,2.231,2.231,2.231,2.231,2.231,2.231,2.231,2.231,2.231,2.231,2.231,2.231,2.231,2.231,2.231,2.231,2.2163,2.2106,2.2106,2.1007,2.0416,2.028,2.0,1.9818,0.0,0.0,0.0,0.0,0.0,0.0,1.4756,1.5226,1.5714,0.0,1.9035,1.9747,2.0615,2.1493,2.2148,2.2335,2.2468,2.2524,2.2466,2.236,2.231,2.231,2.231,2.231,2.231,2.231,2.231,2.231,2.231,2.231,2.231,2.231,2.231,2.231,2.231,2.231,2.231,2.231,2.231,2.231,2.231,2.231,2.231,2.231,2.2388,2.251,2.236,2.2388,2.2527,2.236,2.231,2.2338,2.2599,2.2537,2.2349,2.2815,2.2695,2.2321,2.249,2.2426,2.231,2.231,2.2473,2.2695,2.2695,2.2797,2.2923,2.2923,2.2807,2.2695,2.2873,2.2923,2.2923,2.2923,2.2781,2.2686,2.2686,2.2686,2.2598,2.2349,2.231,2.2349,2.2436,2.236,2.2349,2.2436,2.236,2.231,2.231,2.231,2.231,2.231,2.231,2.231,2.231,2.231,2.231,2.231,2.231,2.231,2.231,2.231,2.231,2.231,2.231,2.2209,2.2003,2.1228,2.0682,2.028,1.9874,1.969,0.0,0.0,0.0,0.0,0.0,0.0,1.443,1.4246,1.3973,0.0,1.7236,1.8217,1.8369,1.9321,2.0205,2.0645,2.1036,2.1631,2.2522,2.2436,2.231,2.231,2.231,2.231,2.231,2.231,2.231,2.231,2.231,2.231,2.231,2.231,2.231,2.231,2.231,2.231,2.231,2.231,2.231,2.231,2.231,2.231,2.231,2.231,2.2338,2.2405,2.2349,2.2405,2.2443,2.2432,2.2349,2.2338,2.2599,2.2563,2.2405,2.2652,2.2616,2.2405,2.2405,2.2405,2.2405,2.2405,2.2581,2.2822,2.2822,2.3021,2.3236,2.3212,2.323,2.3277,2.3277,2.3277,2.3277,2.3277,2.323,2.3189,2.3189,2.3189,2.3038,2.2508,2.2405,2.248,2.2695,2.2554,2.2463,2.2738,2.2554,2.2405,2.2405,2.2377,2.2349,2.2349,2.2338,2.231,2.231,2.231,2.231,2.231,2.231,2.231,2.231,2.231,2.231,2.231,2.231,2.2077,2.1582,2.1582,2.1165,2.028,1.9929,1.9747,0.0,0.0,0.0,0.0,0.0,0.0,1.2245,1.2277,1.2667,0.0,1.3379,1.3954,1.5155,1.6503,1.7458,1.7545,1.8625,2.011,2.2099,2.2321,2.231,2.231,2.231,2.231,2.231,2.231,2.231,2.231,2.231,2.231,2.231,2.231,2.231,2.231,2.231,2.231,2.231,2.231,2.231,2.231,2.231,2.231,2.231,2.231,2.2571,2.3014,2.2738,2.294,2.3427,2.3153,2.2738,2.2338,2.2599,2.2704,2.2712,2.2989,2.3087,2.3014,2.3014,2.3014,2.3014,2.3014,2.323,2.3482,2.3482,2.3544,2.3544,2.3277,2.3392,2.3588,2.3588,2.3588,2.3588,2.3588,2.3392,2.3189,2.3189,2.3189,2.3183,2.3038,2.3014,2.3038,2.3093,2.3063,2.3038,2.3093,2.3063,2.3014,2.3014,2.2789,2.2608,2.2608,2.2426,2.231,2.231,2.231,2.231,2.231,2.231,2.231,2.231,2.231,2.231,2.231,2.231,2.2077,2.1582,2.1582,2.1165,2.0314,2.0212,2.0,0.0,0.0,0.0,1.458,0.0,0.0,0.0,1.2804,1.2517,1.3261,1.3092,1.3193,1.431,1.5105,1.5714,1.6086,1.7388,1.8758,1.9908,2.0555,2.0899,2.0899,2.0772,2.0849,2.1418,2.1451,2.1675,2.2248,2.231,2.231,2.231,2.231,2.231,2.231,2.231,2.231,2.231,2.2426,2.25,2.25,2.2686,2.2747,2.2747,2.2747,2.2908,2.3189,2.3021,2.3141,2.3437,2.3259,2.3014,2.2773,2.3087,2.3111,2.3032,2.3323,2.3346,2.3189,2.3189,2.3189,2.3189,2.3189,2.3414,2.3692,2.3692,2.3816,2.3917,2.3753,2.3816,2.3937,2.3937,2.3937,2.3937,2.3937,2.3816,2.3692,2.3692,2.3692,2.3692,2.3692,2.3692,2.3588,2.3259,2.3189,2.3189,2.3189,2.3189,2.3189,2.3189,2.3045,2.2947,2.2947,2.2678,2.25,2.25,2.2388,2.231,2.231,2.231,2.231,2.231,2.231,2.231,2.231,2.231,2.2077,2.1582,2.1582,2.1165,2.0314,2.0314,2.0089,0.0,0.0,0.0,0.0,0.0,1.4548,0.0,0.0,0.0,0.0,0.0,0.0,0.0,0.0,0.0,0.0,0.0,0.0,0.0,1.7719,0.0,1.9124,1.9007,1.9235,2.0091,2.0053,2.0489,2.1775,2.1735,2.1786,2.2073,2.2226,2.2321,2.2388,2.2388,2.2415,2.2453,2.2704,2.2797,2.2797,2.3069,2.3189,2.3189,2.3189,2.3253,2.33,2.33,2.3346,2.3392,2.3392,2.3392,2.3414,2.3544,2.3477,2.3323,2.3522,2.3522,2.3392,2.3323,2.3346,2.3392,2.3392,2.3566,2.3795,2.3795,2.3996,2.419,2.419,2.419,2.419,2.419,2.419,2.419,2.419,2.419,2.419,2.419,2.419,2.419,2.419,2.4151,2.3937,2.3459,2.3392,2.3369,2.3323,2.33,2.3259,2.3212,2.3141,2.3093,2.3093,2.2815,2.2608,2.2608,2.2426,2.231,2.231,2.231,2.231,2.231,2.231,2.231,2.231,2.231,2.2077,2.1582,2.1582,2.1165,2.0314,2.0314,2.0089,0.0,0.0,0.0,0.0,1.6999,0.0,0.0,0.0,1.3717,1.1874,0.0,0.0,0.0,0.0,0.0,0.0,0.0,0.0,1.3024,1.3918,1.5466,1.7721,1.8269,1.8522,1.863,1.8062,1.8386,2.0128,1.9672,1.9875,2.1245,2.1938,2.2398,2.2634,2.2643,2.2815,2.3093,2.3117,2.3141,2.3141,2.3165,2.3189,2.3189,2.3189,2.3369,2.3631,2.3631,2.3816,2.4094,2.4094,2.4094,2.4016,2.3459,2.3414,2.361,2.3346,2.361,2.4036,2.3753,2.3837,2.4094,2.4094,2.4113,2.4151,2.4151,2.417,2.419,2.419,2.419,2.419,2.419,2.419,2.419,2.419,2.419,2.419,2.419,2.419,2.419,2.419,2.3976,2.3816,2.4054,2.4094,2.3996,2.3692,2.3631,2.3544,2.3236,2.2947,2.2772,2.2772,2.25,2.2349,2.2349,2.2338,2.231,2.231,2.231,2.231,2.231,2.231,2.231,2.231,2.231,2.2077,2.1582,2.1582,2.1165,2.0314,2.0314,2.0089,0.0,0.0,0.0,0.0,0.0,0.0,1.4788,0.0,1.3701,0.0,0.0,0.0,0.0,0.0,0.0,0.0,1.2026,0.0,0.0,0.0,1.3656,0.0,0.0,0.0,1.7626,1.7662,1.8262,1.9883,1.8927,1.9113,2.1102,2.1481,2.1919,2.2446,2.2625,2.2772,2.2923,2.33,2.35,2.35,2.3692,2.3774,2.3774,2.3774,2.3876,2.3996,2.3996,2.4074,2.419,2.419,2.419,2.417,2.3896,2.3876,2.3976,2.3837,2.3976,2.417,2.4036,2.4074,2.419,2.419,2.419,2.419,2.419,2.419,2.419,2.419,2.419,2.419,2.419,2.419,2.419,2.419,2.419,2.419,2.419,2.419,2.4151,2.3955,2.3795,2.3692,2.3628,2.361,2.3566,2.3414,2.3414,2.3369,2.3212,2.3069,2.2996,2.2996,2.273,2.2537,2.2537,2.2388,2.231,2.231,2.231,2.231,2.231,2.231,2.231,2.231,2.231,2.1945,2.1244,2.1244,2.0781,1.9965,2.0177,2.0089,1.8534,0.0,0.0,0.0,0.0,0.0,0.0,0.0,0.0,0.0,0.0,0.0,0.0,0.0,0.0,0.0,0.0,1.1874,0.0,1.1164,0.0,0.0,0.0,0.0,0.0,1.6353,1.6941,1.8937,1.7743,1.798,2.0458,2.0983,2.1484,2.2092,2.2496,2.2797,2.2972,2.3477,2.3753,2.3837,2.4094,2.419,2.419,2.419,2.419,2.419,2.419,2.419,2.419,2.419,2.419,2.419,2.419,2.419,2.419,2.419,2.419,2.419,2.419,2.419,2.419,2.419,2.419,2.419,2.419,2.419,2.419,2.419,2.419,2.419,2.419,2.419,2.417,2.4094,2.4074,2.4054,2.3955,2.3917,2.3837,2.361,2.35,2.3346,2.3093,2.3141,2.3165,2.3069,2.3069,2.3038,2.2965,2.2958,2.2958,2.2958,2.2903,2.2882,2.2882,2.2705,2.253,2.2327,2.231,2.231,2.231,2.231,2.2237,2.2106,2.2106,2.1675,2.0797,2.0797,2.0431,1.9726,2.0,1.9965,0.0,0.0,0.0,1.6455,0.0,0.0,0.0,0.0,1.5325,0.0,0.0,0.0,0.0,0.0,0.0,0.0,0.0,0.0,0.0,0.0,0.0,0.0,0.0,0.0,0.0,1.3184,1.3264,1.6559,1.5443,1.5883,1.8809,2.0408,2.1344,2.1621,2.2314,2.3021,2.3671,2.3692,2.3858,2.417,2.419,2.419,2.419,2.419,2.419,2.419,2.419,2.419,2.419,2.419,2.419,2.419,2.419,2.419,2.419,2.419,2.419,2.419,2.419,2.419,2.419,2.419,2.419,2.419,2.419,2.419,2.419,2.419,2.419,2.419,2.419,2.419,2.4113,2.3795,2.3714,2.3628,2.33,2.3212,2.3212,2.3212,2.2947,2.2721,2.2721,2.2996,2.3093,2.2772,2.2721,2.2625,2.2377,2.2338,2.2338,2.2338,2.2965,2.3388,2.3388,2.3359,2.3054,2.2361,2.231,2.231,2.231,2.231,2.2106,2.1628,2.1612,2.1197,2.0314,2.0314,2.0089,1.969,1.9711,1.9711,0.0,0.0,2.117,1.8131,0.0,0.0,0.0,0.0,0.0,0.0,0.0,0.0,0.0,0.0,0.0,0.0,0.0,0.0,0.0,0.0,0.0,0.0,0.0,0.0,0.0,0.0,0.0,1.5105,1.4327,1.5054,1.8014,1.9604,2.0688,2.131,2.2229,2.2822,2.3045,2.3477,2.3774,2.3876,2.4094,2.419,2.419,2.419,2.419,2.419,2.419,2.419,2.419,2.419,2.419,2.419,2.419,2.419,2.419,2.419,2.419,2.419,2.419,2.419,2.419,2.419,2.419,2.419,2.419,2.419,2.419,2.419,2.419,2.419,2.419,2.419,2.417,2.4074,2.4016,2.3996,2.3896,2.3858,2.3795,2.3566,2.3437,2.3212,2.2772,2.2797,2.2764,2.249,2.2453,2.2398,2.231,2.231,2.2496,2.2987,2.3241,2.3596,2.41,2.3663,2.3291,2.3038,2.2581,2.231,2.231,2.231,2.2225,2.2077,2.2061,2.1764,2.1165,2.0878,2.0516,2.0089,1.9803,1.969,2.1675,2.2062,0.0,1.9505,1.903,0.0,1.5694,0.0,1.6331,0.0,0.0,0.0,0.0,0.0,0.0,0.0,0.0,0.0,0.0,0.9607,0.0,0.0,0.0,0.0,0.0,0.0,1.2331,1.4342,1.3819,1.4582,0.0,1.9056,2.0221,2.0754,2.1943,2.2678,2.2873,2.3323,2.3649,2.3876,2.4094,2.419,2.419,2.419,2.419,2.419,2.419,2.419,2.419,2.419,2.419,2.419,2.419,2.419,2.419,2.419,2.419,2.419,2.419,2.419,2.419,2.419,2.419,2.419,2.419,2.419,2.419,2.419,2.419,2.419,2.419,2.419,2.417,2.4054,2.4016,2.3996,2.3876,2.3837,2.3774,2.3566,2.3414,2.3212,2.2772,2.2625,2.25,2.2338,2.231,2.231,2.231,2.231,2.2581,2.3325,2.363,2.4086,2.4814,2.4458,2.3951,2.3427,2.2953,2.2581,2.2327,2.231,2.2152,2.184,2.1857,2.1554,2.091,2.0665,2.0364,2.0089,1.9818,1.969]}]]